<?xml version="1.0" encoding="UTF-8" standalone="no" ?>
<gpx xmlns="http://www.topografix.com/GPX/1/1" creator="www.cicloide.com" version="1.1" xmlns:xsi="http://www.w3.org/2001/XMLSchema-instance" xsi:schemaLocation="http://www.topografix.com/GPX/1/1 http://www.topografix.com/GPX/1/1/gpx.xsd">
  <trk>
    <name>www.cicloide.com 12446</name>
    <desc>www.cicloide.com 12446</desc>
    <trkseg>
      <trkpt lat="41.607121000" lon="2.542374000">
        <ele>115.50</ele>
        <time>2013-03-02T15:41:54Z</time>
      </trkpt>
      <trkpt lat="41.607119700" lon="2.542377300">
        <ele>115.50</ele>
        <time>2013-03-02T15:41:56Z</time>
      </trkpt>
      <trkpt lat="41.607119700" lon="2.542371800">
        <ele>115.50</ele>
        <time>2013-03-02T15:42:01Z</time>
      </trkpt>
      <trkpt lat="41.607117300" lon="2.542359300">
        <ele>115.50</ele>
        <time>2013-03-02T15:42:05Z</time>
      </trkpt>
      <trkpt lat="41.607116900" lon="2.542351600">
        <ele>115.50</ele>
        <time>2013-03-02T15:42:06Z</time>
      </trkpt>
      <trkpt lat="41.607114000" lon="2.542330400">
        <ele>115.50</ele>
        <time>2013-03-02T15:42:12Z</time>
      </trkpt>
      <trkpt lat="41.607109500" lon="2.542319400">
        <ele>115.50</ele>
        <time>2013-03-02T15:42:17Z</time>
      </trkpt>
      <trkpt lat="41.607107600" lon="2.542326500">
        <ele>115.50</ele>
        <time>2013-03-02T15:42:22Z</time>
      </trkpt>
      <trkpt lat="41.607104100" lon="2.542336100">
        <ele>115.50</ele>
        <time>2013-03-02T15:42:29Z</time>
      </trkpt>
      <trkpt lat="41.607101300" lon="2.542341200">
        <ele>115.50</ele>
        <time>2013-03-02T15:42:31Z</time>
      </trkpt>
      <trkpt lat="41.607097200" lon="2.542368200">
        <ele>115.50</ele>
        <time>2013-03-02T15:42:41Z</time>
      </trkpt>
      <trkpt lat="41.607108700" lon="2.542386900">
        <ele>115.50</ele>
        <time>2013-03-02T15:42:52Z</time>
      </trkpt>
      <trkpt lat="41.607086200" lon="2.542379800">
        <ele>115.50</ele>
        <time>2013-03-02T15:42:57Z</time>
      </trkpt>
      <trkpt lat="41.607021700" lon="2.542267900">
        <ele>115.50</ele>
        <time>2013-03-02T15:43:02Z</time>
      </trkpt>
      <trkpt lat="41.607007800" lon="2.542205900">
        <ele>115.50</ele>
        <time>2013-03-02T15:43:07Z</time>
      </trkpt>
      <trkpt lat="41.607012600" lon="2.542199200">
        <ele>115.50</ele>
        <time>2013-03-02T15:43:18Z</time>
      </trkpt>
      <trkpt lat="41.607007000" lon="2.542199000">
        <ele>115.50</ele>
        <time>2013-03-02T15:43:30Z</time>
      </trkpt>
      <trkpt lat="41.607000200" lon="2.542194400">
        <ele>115.50</ele>
        <time>2013-03-02T15:43:35Z</time>
      </trkpt>
      <trkpt lat="41.606910000" lon="2.542074600">
        <ele>115.50</ele>
        <time>2013-03-02T15:43:39Z</time>
      </trkpt>
      <trkpt lat="41.606818900" lon="2.541850400">
        <ele>115.50</ele>
        <time>2013-03-02T15:43:46Z</time>
      </trkpt>
      <trkpt lat="41.606810600" lon="2.541837000">
        <ele>115.50</ele>
        <time>2013-03-02T15:43:46Z</time>
      </trkpt>
      <trkpt lat="41.606824000" lon="2.541811000">
        <ele>115.50</ele>
        <time>2013-03-02T15:43:53Z</time>
      </trkpt>
      <trkpt lat="41.606844500" lon="2.541783600">
        <ele>115.50</ele>
        <time>2013-03-02T15:44:24Z</time>
      </trkpt>
      <trkpt lat="41.606859900" lon="2.541781300">
        <ele>115.50</ele>
        <time>2013-03-02T15:44:38Z</time>
      </trkpt>
      <trkpt lat="41.606873000" lon="2.541783700">
        <ele>115.50</ele>
        <time>2013-03-02T15:44:54Z</time>
      </trkpt>
      <trkpt lat="41.606855600" lon="2.541777600">
        <ele>115.50</ele>
        <time>2013-03-02T15:45:09Z</time>
      </trkpt>
      <trkpt lat="41.606857900" lon="2.541773100">
        <ele>115.50</ele>
        <time>2013-03-02T15:45:23Z</time>
      </trkpt>
      <trkpt lat="41.606863800" lon="2.541772700">
        <ele>115.50</ele>
        <time>2013-03-02T15:46:00Z</time>
      </trkpt>
      <trkpt lat="41.606859200" lon="2.541761000">
        <ele>115.50</ele>
        <time>2013-03-02T15:46:14Z</time>
      </trkpt>
      <trkpt lat="41.606853300" lon="2.541756100">
        <ele>115.50</ele>
        <time>2013-03-02T15:46:28Z</time>
      </trkpt>
      <trkpt lat="41.606848900" lon="2.541678200">
        <ele>115.50</ele>
        <time>2013-03-02T15:46:31Z</time>
      </trkpt>
      <trkpt lat="41.606751200" lon="2.541312000">
        <ele>113.60</ele>
        <time>2013-03-02T15:46:38Z</time>
      </trkpt>
      <trkpt lat="41.606697600" lon="2.541119200">
        <ele>112.10</ele>
        <time>2013-03-02T15:46:42Z</time>
      </trkpt>
      <trkpt lat="41.606672300" lon="2.541001500">
        <ele>111.20</ele>
        <time>2013-03-02T15:46:43Z</time>
      </trkpt>
      <trkpt lat="41.606566100" lon="2.540864900">
        <ele>110.20</ele>
        <time>2013-03-02T15:46:47Z</time>
      </trkpt>
      <trkpt lat="41.606422600" lon="2.540734500">
        <ele>109.70</ele>
        <time>2013-03-02T15:46:54Z</time>
      </trkpt>
      <trkpt lat="41.606388100" lon="2.540724100">
        <ele>110.20</ele>
        <time>2013-03-02T15:46:54Z</time>
      </trkpt>
      <trkpt lat="41.606235600" lon="2.540682200">
        <ele>110.20</ele>
        <time>2013-03-02T15:46:59Z</time>
      </trkpt>
      <trkpt lat="41.606114900" lon="2.540642800">
        <ele>109.70</ele>
        <time>2013-03-02T15:47:01Z</time>
      </trkpt>
      <trkpt lat="41.605713400" lon="2.540526200">
        <ele>107.80</ele>
        <time>2013-03-02T15:47:11Z</time>
      </trkpt>
      <trkpt lat="41.605570700" lon="2.540513400">
        <ele>106.80</ele>
        <time>2013-03-02T15:47:17Z</time>
      </trkpt>
      <trkpt lat="41.605332000" lon="2.540470600">
        <ele>106.80</ele>
        <time>2013-03-02T15:47:22Z</time>
      </trkpt>
      <trkpt lat="41.605152800" lon="2.540457300">
        <ele>105.90</ele>
        <time>2013-03-02T15:47:27Z</time>
      </trkpt>
      <trkpt lat="41.604830800" lon="2.540462000">
        <ele>104.40</ele>
        <time>2013-03-02T15:47:34Z</time>
      </trkpt>
      <trkpt lat="41.604793400" lon="2.540466600">
        <ele>104.40</ele>
        <time>2013-03-02T15:47:34Z</time>
      </trkpt>
      <trkpt lat="41.604723400" lon="2.540646800">
        <ele>103.50</ele>
        <time>2013-03-02T15:47:39Z</time>
      </trkpt>
      <trkpt lat="41.604717300" lon="2.540675400">
        <ele>103.00</ele>
        <time>2013-03-02T15:47:41Z</time>
      </trkpt>
      <trkpt lat="41.604776600" lon="2.540949800">
        <ele>104.40</ele>
        <time>2013-03-02T15:47:48Z</time>
      </trkpt>
      <trkpt lat="41.604829100" lon="2.541165300">
        <ele>105.90</ele>
        <time>2013-03-02T15:47:55Z</time>
      </trkpt>
      <trkpt lat="41.604884100" lon="2.541375200">
        <ele>106.80</ele>
        <time>2013-03-02T15:48:02Z</time>
      </trkpt>
      <trkpt lat="41.604944600" lon="2.541605600">
        <ele>108.30</ele>
        <time>2013-03-02T15:48:11Z</time>
      </trkpt>
      <trkpt lat="41.604995200" lon="2.541805700">
        <ele>109.70</ele>
        <time>2013-03-02T15:48:19Z</time>
      </trkpt>
      <trkpt lat="41.605017700" lon="2.542028200">
        <ele>111.20</ele>
        <time>2013-03-02T15:48:26Z</time>
      </trkpt>
      <trkpt lat="41.605015500" lon="2.542084400">
        <ele>111.70</ele>
        <time>2013-03-02T15:48:28Z</time>
      </trkpt>
      <trkpt lat="41.604974300" lon="2.542207100">
        <ele>112.60</ele>
        <time>2013-03-02T15:48:33Z</time>
      </trkpt>
      <trkpt lat="41.604794900" lon="2.542465000">
        <ele>111.20</ele>
        <time>2013-03-02T15:48:40Z</time>
      </trkpt>
      <trkpt lat="41.604596800" lon="2.542536600">
        <ele>110.20</ele>
        <time>2013-03-02T15:48:45Z</time>
      </trkpt>
      <trkpt lat="41.604435600" lon="2.542445500">
        <ele>109.20</ele>
        <time>2013-03-02T15:48:49Z</time>
      </trkpt>
      <trkpt lat="41.604301500" lon="2.542495700">
        <ele>108.80</ele>
        <time>2013-03-02T15:48:52Z</time>
      </trkpt>
      <trkpt lat="41.604219300" lon="2.542543500">
        <ele>108.80</ele>
        <time>2013-03-02T15:48:56Z</time>
      </trkpt>
      <trkpt lat="41.603999800" lon="2.542646700">
        <ele>109.20</ele>
        <time>2013-03-02T15:49:03Z</time>
      </trkpt>
      <trkpt lat="41.603795700" lon="2.542752600">
        <ele>110.20</ele>
        <time>2013-03-02T15:49:13Z</time>
      </trkpt>
      <trkpt lat="41.603655100" lon="2.542860500">
        <ele>109.70</ele>
        <time>2013-03-02T15:49:18Z</time>
      </trkpt>
      <trkpt lat="41.603467200" lon="2.543021500">
        <ele>108.30</ele>
        <time>2013-03-02T15:49:24Z</time>
      </trkpt>
      <trkpt lat="41.603374100" lon="2.543193000">
        <ele>108.30</ele>
        <time>2013-03-02T15:49:29Z</time>
      </trkpt>
      <trkpt lat="41.603312100" lon="2.543217800">
        <ele>105.90</ele>
        <time>2013-03-02T15:49:34Z</time>
      </trkpt>
      <trkpt lat="41.603274100" lon="2.543174800">
        <ele>105.40</ele>
        <time>2013-03-02T15:49:36Z</time>
      </trkpt>
      <trkpt lat="41.603130600" lon="2.543025500">
        <ele>104.00</ele>
        <time>2013-03-02T15:49:39Z</time>
      </trkpt>
      <trkpt lat="41.602981700" lon="2.542895000">
        <ele>102.50</ele>
        <time>2013-03-02T15:49:43Z</time>
      </trkpt>
      <trkpt lat="41.602882800" lon="2.542784000">
        <ele>101.60</ele>
        <time>2013-03-02T15:49:46Z</time>
      </trkpt>
      <trkpt lat="41.602699600" lon="2.542407000">
        <ele>98.20</ele>
        <time>2013-03-02T15:49:53Z</time>
      </trkpt>
      <trkpt lat="41.602664600" lon="2.542220200">
        <ele>96.30</ele>
        <time>2013-03-02T15:49:59Z</time>
      </trkpt>
      <trkpt lat="41.602610000" lon="2.542237300">
        <ele>95.80</ele>
        <time>2013-03-02T15:50:04Z</time>
      </trkpt>
      <trkpt lat="41.602604300" lon="2.542267200">
        <ele>95.80</ele>
        <time>2013-03-02T15:50:04Z</time>
      </trkpt>
      <trkpt lat="41.602467400" lon="2.542624100">
        <ele>94.80</ele>
        <time>2013-03-02T15:50:12Z</time>
      </trkpt>
      <trkpt lat="41.602249100" lon="2.542902000">
        <ele>94.30</ele>
        <time>2013-03-02T15:50:21Z</time>
      </trkpt>
      <trkpt lat="41.602012600" lon="2.543164600">
        <ele>94.80</ele>
        <time>2013-03-02T15:50:30Z</time>
      </trkpt>
      <trkpt lat="41.601770900" lon="2.543409600">
        <ele>96.80</ele>
        <time>2013-03-02T15:50:40Z</time>
      </trkpt>
      <trkpt lat="41.601564400" lon="2.543558200">
        <ele>98.70</ele>
        <time>2013-03-02T15:50:49Z</time>
      </trkpt>
      <trkpt lat="41.601415100" lon="2.543714500">
        <ele>99.60</ele>
        <time>2013-03-02T15:50:56Z</time>
      </trkpt>
      <trkpt lat="41.601281800" lon="2.543953100">
        <ele>100.10</ele>
        <time>2013-03-02T15:51:03Z</time>
      </trkpt>
      <trkpt lat="41.601158300" lon="2.544186800">
        <ele>98.20</ele>
        <time>2013-03-02T15:51:10Z</time>
      </trkpt>
      <trkpt lat="41.601230000" lon="2.544358700">
        <ele>99.20</ele>
        <time>2013-03-02T15:51:15Z</time>
      </trkpt>
      <trkpt lat="41.601245300" lon="2.544384300">
        <ele>99.20</ele>
        <time>2013-03-02T15:51:17Z</time>
      </trkpt>
      <trkpt lat="41.601417800" lon="2.544650600">
        <ele>101.60</ele>
        <time>2013-03-02T15:51:27Z</time>
      </trkpt>
      <trkpt lat="41.601610900" lon="2.544925400">
        <ele>104.00</ele>
        <time>2013-03-02T15:51:40Z</time>
      </trkpt>
      <trkpt lat="41.601781900" lon="2.545167000">
        <ele>105.90</ele>
        <time>2013-03-02T15:51:50Z</time>
      </trkpt>
      <trkpt lat="41.601907100" lon="2.545327400">
        <ele>107.80</ele>
        <time>2013-03-02T15:51:59Z</time>
      </trkpt>
      <trkpt lat="41.602085400" lon="2.545549000">
        <ele>109.70</ele>
        <time>2013-03-02T15:52:09Z</time>
      </trkpt>
      <trkpt lat="41.602130300" lon="2.545635300">
        <ele>110.20</ele>
        <time>2013-03-02T15:52:13Z</time>
      </trkpt>
      <trkpt lat="41.602143200" lon="2.545761400">
        <ele>112.10</ele>
        <time>2013-03-02T15:52:18Z</time>
      </trkpt>
      <trkpt lat="41.602039400" lon="2.545828900">
        <ele>113.60</ele>
        <time>2013-03-02T15:52:25Z</time>
      </trkpt>
      <trkpt lat="41.601965600" lon="2.545836000">
        <ele>114.10</ele>
        <time>2013-03-02T15:52:30Z</time>
      </trkpt>
      <trkpt lat="41.601830500" lon="2.545858600">
        <ele>115.00</ele>
        <time>2013-03-02T15:52:37Z</time>
      </trkpt>
      <trkpt lat="41.601751200" lon="2.545878500">
        <ele>115.50</ele>
        <time>2013-03-02T15:52:42Z</time>
      </trkpt>
      <trkpt lat="41.601576700" lon="2.545920700">
        <ele>116.90</ele>
        <time>2013-03-02T15:52:53Z</time>
      </trkpt>
      <trkpt lat="41.601413700" lon="2.545953900">
        <ele>118.40</ele>
        <time>2013-03-02T15:53:01Z</time>
      </trkpt>
      <trkpt lat="41.601262800" lon="2.546019100">
        <ele>120.30</ele>
        <time>2013-03-02T15:53:10Z</time>
      </trkpt>
      <trkpt lat="41.601154400" lon="2.546088800">
        <ele>122.20</ele>
        <time>2013-03-02T15:53:19Z</time>
      </trkpt>
      <trkpt lat="41.601071900" lon="2.546163200">
        <ele>123.20</ele>
        <time>2013-03-02T15:53:26Z</time>
      </trkpt>
      <trkpt lat="41.600961200" lon="2.546286800">
        <ele>125.10</ele>
        <time>2013-03-02T15:53:33Z</time>
      </trkpt>
      <trkpt lat="41.600817200" lon="2.546414600">
        <ele>127.50</ele>
        <time>2013-03-02T15:53:45Z</time>
      </trkpt>
      <trkpt lat="41.600690400" lon="2.546481400">
        <ele>129.90</ele>
        <time>2013-03-02T15:53:54Z</time>
      </trkpt>
      <trkpt lat="41.600617700" lon="2.546496600">
        <ele>130.40</ele>
        <time>2013-03-02T15:53:59Z</time>
      </trkpt>
      <trkpt lat="41.600481000" lon="2.546449600">
        <ele>131.80</ele>
        <time>2013-03-02T15:54:06Z</time>
      </trkpt>
      <trkpt lat="41.600355300" lon="2.546333100">
        <ele>132.80</ele>
        <time>2013-03-02T15:54:16Z</time>
      </trkpt>
      <trkpt lat="41.600230400" lon="2.546210800">
        <ele>133.80</ele>
        <time>2013-03-02T15:54:25Z</time>
      </trkpt>
      <trkpt lat="41.600172600" lon="2.546166400">
        <ele>134.70</ele>
        <time>2013-03-02T15:54:29Z</time>
      </trkpt>
      <trkpt lat="41.600063500" lon="2.546233900">
        <ele>135.70</ele>
        <time>2013-03-02T15:54:37Z</time>
      </trkpt>
      <trkpt lat="41.600111100" lon="2.546311700">
        <ele>136.60</ele>
        <time>2013-03-02T15:54:41Z</time>
      </trkpt>
      <trkpt lat="41.600237000" lon="2.546464400">
        <ele>138.10</ele>
        <time>2013-03-02T15:54:51Z</time>
      </trkpt>
      <trkpt lat="41.600345500" lon="2.546610100">
        <ele>139.10</ele>
        <time>2013-03-02T15:55:00Z</time>
      </trkpt>
      <trkpt lat="41.600504500" lon="2.546741300">
        <ele>140.50</ele>
        <time>2013-03-02T15:55:10Z</time>
      </trkpt>
      <trkpt lat="41.600647700" lon="2.546782100">
        <ele>141.40</ele>
        <time>2013-03-02T15:55:19Z</time>
      </trkpt>
      <trkpt lat="41.600779000" lon="2.546810700">
        <ele>142.90</ele>
        <time>2013-03-02T15:55:28Z</time>
      </trkpt>
      <trkpt lat="41.600890100" lon="2.546852800">
        <ele>143.90</ele>
        <time>2013-03-02T15:55:35Z</time>
      </trkpt>
      <trkpt lat="41.601074600" lon="2.546941200">
        <ele>145.30</ele>
        <time>2013-03-02T15:55:47Z</time>
      </trkpt>
      <trkpt lat="41.601220500" lon="2.547007900">
        <ele>146.70</ele>
        <time>2013-03-02T15:55:56Z</time>
      </trkpt>
      <trkpt lat="41.601324300" lon="2.546994100">
        <ele>147.70</ele>
        <time>2013-03-02T15:56:03Z</time>
      </trkpt>
      <trkpt lat="41.601463000" lon="2.546999700">
        <ele>148.70</ele>
        <time>2013-03-02T15:56:11Z</time>
      </trkpt>
      <trkpt lat="41.601635400" lon="2.547030800">
        <ele>149.60</ele>
        <time>2013-03-02T15:56:20Z</time>
      </trkpt>
      <trkpt lat="41.601790400" lon="2.547010600">
        <ele>151.10</ele>
        <time>2013-03-02T15:56:29Z</time>
      </trkpt>
      <trkpt lat="41.601840800" lon="2.546998300">
        <ele>151.50</ele>
        <time>2013-03-02T15:56:32Z</time>
      </trkpt>
      <trkpt lat="41.601955400" lon="2.546936600">
        <ele>153.00</ele>
        <time>2013-03-02T15:56:39Z</time>
      </trkpt>
      <trkpt lat="41.602082300" lon="2.547030000">
        <ele>154.40</ele>
        <time>2013-03-02T15:56:48Z</time>
      </trkpt>
      <trkpt lat="41.602090500" lon="2.547049200">
        <ele>154.90</ele>
        <time>2013-03-02T15:56:50Z</time>
      </trkpt>
      <trkpt lat="41.602185200" lon="2.547204800">
        <ele>155.90</ele>
        <time>2013-03-02T15:56:58Z</time>
      </trkpt>
      <trkpt lat="41.602266600" lon="2.547297300">
        <ele>157.80</ele>
        <time>2013-03-02T15:57:05Z</time>
      </trkpt>
      <trkpt lat="41.602389500" lon="2.547443900">
        <ele>159.20</ele>
        <time>2013-03-02T15:57:16Z</time>
      </trkpt>
      <trkpt lat="41.602549400" lon="2.547589700">
        <ele>160.20</ele>
        <time>2013-03-02T15:57:24Z</time>
      </trkpt>
      <trkpt lat="41.602698700" lon="2.547733400">
        <ele>160.20</ele>
        <time>2013-03-02T15:57:33Z</time>
      </trkpt>
      <trkpt lat="41.602920900" lon="2.547933600">
        <ele>161.20</ele>
        <time>2013-03-02T15:57:44Z</time>
      </trkpt>
      <trkpt lat="41.603077600" lon="2.548055500">
        <ele>162.10</ele>
        <time>2013-03-02T15:57:52Z</time>
      </trkpt>
      <trkpt lat="41.603190200" lon="2.548103400">
        <ele>163.10</ele>
        <time>2013-03-02T15:57:58Z</time>
      </trkpt>
      <trkpt lat="41.603337700" lon="2.548204400">
        <ele>164.50</ele>
        <time>2013-03-02T15:58:06Z</time>
      </trkpt>
      <trkpt lat="41.603289600" lon="2.548278400">
        <ele>165.50</ele>
        <time>2013-03-02T15:58:10Z</time>
      </trkpt>
      <trkpt lat="41.603250200" lon="2.548251500">
        <ele>166.00</ele>
        <time>2013-03-02T15:58:13Z</time>
      </trkpt>
      <trkpt lat="41.603071700" lon="2.548164800">
        <ele>166.90</ele>
        <time>2013-03-02T15:58:22Z</time>
      </trkpt>
      <trkpt lat="41.602918200" lon="2.548096200">
        <ele>167.90</ele>
        <time>2013-03-02T15:58:29Z</time>
      </trkpt>
      <trkpt lat="41.602819200" lon="2.548162200">
        <ele>168.40</ele>
        <time>2013-03-02T15:58:34Z</time>
      </trkpt>
      <trkpt lat="41.602833400" lon="2.548320300">
        <ele>169.80</ele>
        <time>2013-03-02T15:58:39Z</time>
      </trkpt>
      <trkpt lat="41.602878100" lon="2.548534300">
        <ele>172.20</ele>
        <time>2013-03-02T15:58:48Z</time>
      </trkpt>
      <trkpt lat="41.602881700" lon="2.548795800">
        <ele>173.20</ele>
        <time>2013-03-02T15:58:57Z</time>
      </trkpt>
      <trkpt lat="41.602935800" lon="2.549088400">
        <ele>174.10</ele>
        <time>2013-03-02T15:59:07Z</time>
      </trkpt>
      <trkpt lat="41.602998000" lon="2.549292700">
        <ele>174.60</ele>
        <time>2013-03-02T15:59:14Z</time>
      </trkpt>
      <trkpt lat="41.603023700" lon="2.549538700">
        <ele>175.60</ele>
        <time>2013-03-02T15:59:23Z</time>
      </trkpt>
      <trkpt lat="41.603019700" lon="2.549597100">
        <ele>176.10</ele>
        <time>2013-03-02T15:59:25Z</time>
      </trkpt>
      <trkpt lat="41.603051800" lon="2.549806400">
        <ele>177.00</ele>
        <time>2013-03-02T15:59:32Z</time>
      </trkpt>
      <trkpt lat="41.603137100" lon="2.550014100">
        <ele>178.50</ele>
        <time>2013-03-02T15:59:40Z</time>
      </trkpt>
      <trkpt lat="41.603182000" lon="2.550261000">
        <ele>179.40</ele>
        <time>2013-03-02T15:59:47Z</time>
      </trkpt>
      <trkpt lat="41.603217500" lon="2.550452200">
        <ele>180.40</ele>
        <time>2013-03-02T15:59:54Z</time>
      </trkpt>
      <trkpt lat="41.603273300" lon="2.550651000">
        <ele>180.90</ele>
        <time>2013-03-02T16:00:01Z</time>
      </trkpt>
      <trkpt lat="41.603327100" lon="2.550945400">
        <ele>182.80</ele>
        <time>2013-03-02T16:00:12Z</time>
      </trkpt>
      <trkpt lat="41.603412400" lon="2.551194500">
        <ele>184.20</ele>
        <time>2013-03-02T16:00:20Z</time>
      </trkpt>
      <trkpt lat="41.603487300" lon="2.551391400">
        <ele>186.10</ele>
        <time>2013-03-02T16:00:29Z</time>
      </trkpt>
      <trkpt lat="41.603453300" lon="2.551589200">
        <ele>186.10</ele>
        <time>2013-03-02T16:00:34Z</time>
      </trkpt>
      <trkpt lat="41.603316600" lon="2.551801900">
        <ele>186.60</ele>
        <time>2013-03-02T16:00:43Z</time>
      </trkpt>
      <trkpt lat="41.603142000" lon="2.551918600">
        <ele>187.60</ele>
        <time>2013-03-02T16:00:50Z</time>
      </trkpt>
      <trkpt lat="41.602962000" lon="2.552006200">
        <ele>188.60</ele>
        <time>2013-03-02T16:00:59Z</time>
      </trkpt>
      <trkpt lat="41.602841000" lon="2.551905000">
        <ele>190.00</ele>
        <time>2013-03-02T16:01:06Z</time>
      </trkpt>
      <trkpt lat="41.602733200" lon="2.551864800">
        <ele>191.40</ele>
        <time>2013-03-02T16:01:13Z</time>
      </trkpt>
      <trkpt lat="41.602697200" lon="2.551898900">
        <ele>192.40</ele>
        <time>2013-03-02T16:01:16Z</time>
      </trkpt>
      <trkpt lat="41.602650700" lon="2.551932000">
        <ele>192.90</ele>
        <time>2013-03-02T16:01:18Z</time>
      </trkpt>
      <trkpt lat="41.602552400" lon="2.552117200">
        <ele>194.80</ele>
        <time>2013-03-02T16:01:28Z</time>
      </trkpt>
      <trkpt lat="41.602459100" lon="2.552205400">
        <ele>196.70</ele>
        <time>2013-03-02T16:01:35Z</time>
      </trkpt>
      <trkpt lat="41.602320900" lon="2.552213600">
        <ele>200.10</ele>
        <time>2013-03-02T16:01:46Z</time>
      </trkpt>
      <trkpt lat="41.602192200" lon="2.552243000">
        <ele>202.00</ele>
        <time>2013-03-02T16:01:54Z</time>
      </trkpt>
      <trkpt lat="41.602077100" lon="2.552324400">
        <ele>203.50</ele>
        <time>2013-03-02T16:02:03Z</time>
      </trkpt>
      <trkpt lat="41.601968100" lon="2.552458000">
        <ele>205.90</ele>
        <time>2013-03-02T16:02:14Z</time>
      </trkpt>
      <trkpt lat="41.601955600" lon="2.552473000">
        <ele>205.90</ele>
        <time>2013-03-02T16:02:14Z</time>
      </trkpt>
      <trkpt lat="41.601886300" lon="2.552607700">
        <ele>207.30</ele>
        <time>2013-03-02T16:02:22Z</time>
      </trkpt>
      <trkpt lat="41.601861000" lon="2.552662000">
        <ele>208.30</ele>
        <time>2013-03-02T16:02:26Z</time>
      </trkpt>
      <trkpt lat="41.601822400" lon="2.552761600">
        <ele>209.70</ele>
        <time>2013-03-02T16:02:33Z</time>
      </trkpt>
      <trkpt lat="41.601751500" lon="2.552920900">
        <ele>211.10</ele>
        <time>2013-03-02T16:02:43Z</time>
      </trkpt>
      <trkpt lat="41.601725600" lon="2.552958800">
        <ele>211.60</ele>
        <time>2013-03-02T16:02:45Z</time>
      </trkpt>
      <trkpt lat="41.601710500" lon="2.552981500">
        <ele>212.10</ele>
        <time>2013-03-02T16:02:47Z</time>
      </trkpt>
      <trkpt lat="41.601647600" lon="2.553120600">
        <ele>214.00</ele>
        <time>2013-03-02T16:02:57Z</time>
      </trkpt>
      <trkpt lat="41.601611000" lon="2.553294100">
        <ele>216.40</ele>
        <time>2013-03-02T16:03:06Z</time>
      </trkpt>
      <trkpt lat="41.601618000" lon="2.553328800">
        <ele>216.40</ele>
        <time>2013-03-02T16:03:09Z</time>
      </trkpt>
      <trkpt lat="41.601570400" lon="2.553509000">
        <ele>217.40</ele>
        <time>2013-03-02T16:03:18Z</time>
      </trkpt>
      <trkpt lat="41.601531600" lon="2.553663400">
        <ele>218.40</ele>
        <time>2013-03-02T16:03:25Z</time>
      </trkpt>
      <trkpt lat="41.601525200" lon="2.553776300">
        <ele>219.30</ele>
        <time>2013-03-02T16:03:32Z</time>
      </trkpt>
      <trkpt lat="41.601568300" lon="2.553822700">
        <ele>219.80</ele>
        <time>2013-03-02T16:03:36Z</time>
      </trkpt>
      <trkpt lat="41.601705800" lon="2.553852900">
        <ele>222.20</ele>
        <time>2013-03-02T16:03:46Z</time>
      </trkpt>
      <trkpt lat="41.601815900" lon="2.553859800">
        <ele>224.60</ele>
        <time>2013-03-02T16:03:53Z</time>
      </trkpt>
      <trkpt lat="41.601978300" lon="2.553839600">
        <ele>227.00</ele>
        <time>2013-03-02T16:04:05Z</time>
      </trkpt>
      <trkpt lat="41.602098400" lon="2.553820400">
        <ele>228.90</ele>
        <time>2013-03-02T16:04:14Z</time>
      </trkpt>
      <trkpt lat="41.602246000" lon="2.553865400">
        <ele>230.40</ele>
        <time>2013-03-02T16:04:24Z</time>
      </trkpt>
      <trkpt lat="41.602343900" lon="2.553954900">
        <ele>231.80</ele>
        <time>2013-03-02T16:04:31Z</time>
      </trkpt>
      <trkpt lat="41.602443600" lon="2.553986700">
        <ele>233.30</ele>
        <time>2013-03-02T16:04:38Z</time>
      </trkpt>
      <trkpt lat="41.602639400" lon="2.553967300">
        <ele>233.70</ele>
        <time>2013-03-02T16:04:49Z</time>
      </trkpt>
      <trkpt lat="41.602810500" lon="2.553951400">
        <ele>234.20</ele>
        <time>2013-03-02T16:04:57Z</time>
      </trkpt>
      <trkpt lat="41.603005800" lon="2.553917600">
        <ele>235.20</ele>
        <time>2013-03-02T16:05:06Z</time>
      </trkpt>
      <trkpt lat="41.603161500" lon="2.553847600">
        <ele>236.10</ele>
        <time>2013-03-02T16:05:13Z</time>
      </trkpt>
      <trkpt lat="41.603365300" lon="2.553695700">
        <ele>238.10</ele>
        <time>2013-03-02T16:05:24Z</time>
      </trkpt>
      <trkpt lat="41.603515800" lon="2.553612700">
        <ele>239.50</ele>
        <time>2013-03-02T16:05:32Z</time>
      </trkpt>
      <trkpt lat="41.603663500" lon="2.553551300">
        <ele>241.90</ele>
        <time>2013-03-02T16:05:41Z</time>
      </trkpt>
      <trkpt lat="41.603800900" lon="2.553459700">
        <ele>244.30</ele>
        <time>2013-03-02T16:05:50Z</time>
      </trkpt>
      <trkpt lat="41.603925400" lon="2.553344900">
        <ele>245.80</ele>
        <time>2013-03-02T16:06:00Z</time>
      </trkpt>
      <trkpt lat="41.604059900" lon="2.553331100">
        <ele>247.20</ele>
        <time>2013-03-02T16:06:09Z</time>
      </trkpt>
      <trkpt lat="41.604184700" lon="2.553354500">
        <ele>248.60</ele>
        <time>2013-03-02T16:06:17Z</time>
      </trkpt>
      <trkpt lat="41.604302400" lon="2.553373100">
        <ele>250.10</ele>
        <time>2013-03-02T16:06:26Z</time>
      </trkpt>
      <trkpt lat="41.604440900" lon="2.553365700">
        <ele>251.50</ele>
        <time>2013-03-02T16:06:33Z</time>
      </trkpt>
      <trkpt lat="41.604471200" lon="2.553361100">
        <ele>251.50</ele>
        <time>2013-03-02T16:06:35Z</time>
      </trkpt>
      <trkpt lat="41.604587800" lon="2.553344900">
        <ele>253.00</ele>
        <time>2013-03-02T16:06:44Z</time>
      </trkpt>
      <trkpt lat="41.604700400" lon="2.553311200">
        <ele>255.40</ele>
        <time>2013-03-02T16:06:52Z</time>
      </trkpt>
      <trkpt lat="41.604747600" lon="2.553309500">
        <ele>255.40</ele>
        <time>2013-03-02T16:06:54Z</time>
      </trkpt>
      <trkpt lat="41.604929500" lon="2.553386300">
        <ele>255.90</ele>
        <time>2013-03-02T16:07:05Z</time>
      </trkpt>
      <trkpt lat="41.605055200" lon="2.553484500">
        <ele>255.90</ele>
        <time>2013-03-02T16:07:11Z</time>
      </trkpt>
      <trkpt lat="41.605228600" lon="2.553663500">
        <ele>255.40</ele>
        <time>2013-03-02T16:07:20Z</time>
      </trkpt>
      <trkpt lat="41.605436400" lon="2.553736500">
        <ele>255.40</ele>
        <time>2013-03-02T16:07:27Z</time>
      </trkpt>
      <trkpt lat="41.605644000" lon="2.553724200">
        <ele>255.90</ele>
        <time>2013-03-02T16:07:36Z</time>
      </trkpt>
      <trkpt lat="41.605875400" lon="2.553727300">
        <ele>256.80</ele>
        <time>2013-03-02T16:07:45Z</time>
      </trkpt>
      <trkpt lat="41.606008400" lon="2.553669600">
        <ele>257.80</ele>
        <time>2013-03-02T16:07:52Z</time>
      </trkpt>
      <trkpt lat="41.606124200" lon="2.553505400">
        <ele>259.70</ele>
        <time>2013-03-02T16:08:02Z</time>
      </trkpt>
      <trkpt lat="41.606262800" lon="2.553449500">
        <ele>260.60</ele>
        <time>2013-03-02T16:08:09Z</time>
      </trkpt>
      <trkpt lat="41.606433900" lon="2.553382800">
        <ele>262.60</ele>
        <time>2013-03-02T16:08:19Z</time>
      </trkpt>
      <trkpt lat="41.606571800" lon="2.553244900">
        <ele>264.50</ele>
        <time>2013-03-02T16:08:30Z</time>
      </trkpt>
      <trkpt lat="41.606699400" lon="2.553102100">
        <ele>265.50</ele>
        <time>2013-03-02T16:08:40Z</time>
      </trkpt>
      <trkpt lat="41.606782600" lon="2.553031500">
        <ele>265.50</ele>
        <time>2013-03-02T16:08:44Z</time>
      </trkpt>
      <trkpt lat="41.607080300" lon="2.552977200">
        <ele>263.10</ele>
        <time>2013-03-02T16:08:49Z</time>
      </trkpt>
      <trkpt lat="41.607136400" lon="2.552972600">
        <ele>262.60</ele>
        <time>2013-03-02T16:08:51Z</time>
      </trkpt>
      <trkpt lat="41.607410500" lon="2.553022500">
        <ele>261.10</ele>
        <time>2013-03-02T16:08:56Z</time>
      </trkpt>
      <trkpt lat="41.607463700" lon="2.553070700">
        <ele>260.60</ele>
        <time>2013-03-02T16:08:56Z</time>
      </trkpt>
      <trkpt lat="41.607900200" lon="2.553370300">
        <ele>258.70</ele>
        <time>2013-03-02T16:09:05Z</time>
      </trkpt>
      <trkpt lat="41.608098100" lon="2.553492300">
        <ele>259.70</ele>
        <time>2013-03-02T16:09:10Z</time>
      </trkpt>
      <trkpt lat="41.608250600" lon="2.553603800">
        <ele>261.60</ele>
        <time>2013-03-02T16:09:15Z</time>
      </trkpt>
      <trkpt lat="41.608368200" lon="2.553703300">
        <ele>262.10</ele>
        <time>2013-03-02T16:09:22Z</time>
      </trkpt>
      <trkpt lat="41.608519800" lon="2.553812700">
        <ele>264.50</ele>
        <time>2013-03-02T16:09:31Z</time>
      </trkpt>
      <trkpt lat="41.608749600" lon="2.553924500">
        <ele>268.40</ele>
        <time>2013-03-02T16:09:47Z</time>
      </trkpt>
      <trkpt lat="41.608889300" lon="2.554002200">
        <ele>270.30</ele>
        <time>2013-03-02T16:09:55Z</time>
      </trkpt>
      <trkpt lat="41.609008300" lon="2.554029700">
        <ele>272.70</ele>
        <time>2013-03-02T16:10:04Z</time>
      </trkpt>
      <trkpt lat="41.609140100" lon="2.554068100">
        <ele>275.10</ele>
        <time>2013-03-02T16:10:13Z</time>
      </trkpt>
      <trkpt lat="41.609257500" lon="2.554088700">
        <ele>277.00</ele>
        <time>2013-03-02T16:10:21Z</time>
      </trkpt>
      <trkpt lat="41.609371200" lon="2.554020400">
        <ele>278.00</ele>
        <time>2013-03-02T16:10:28Z</time>
      </trkpt>
      <trkpt lat="41.609457800" lon="2.553946900">
        <ele>278.40</ele>
        <time>2013-03-02T16:10:34Z</time>
      </trkpt>
      <trkpt lat="41.609563700" lon="2.553852000">
        <ele>278.00</ele>
        <time>2013-03-02T16:10:39Z</time>
      </trkpt>
      <trkpt lat="41.609826200" lon="2.553770600">
        <ele>278.00</ele>
        <time>2013-03-02T16:10:46Z</time>
      </trkpt>
      <trkpt lat="41.610019200" lon="2.553809200">
        <ele>277.00</ele>
        <time>2013-03-02T16:10:51Z</time>
      </trkpt>
      <trkpt lat="41.610315700" lon="2.553787600">
        <ele>276.50</ele>
        <time>2013-03-02T16:10:58Z</time>
      </trkpt>
      <trkpt lat="41.610543600" lon="2.553792700">
        <ele>277.00</ele>
        <time>2013-03-02T16:11:05Z</time>
      </trkpt>
      <trkpt lat="41.610775700" lon="2.553859600">
        <ele>277.50</ele>
        <time>2013-03-02T16:11:12Z</time>
      </trkpt>
      <trkpt lat="41.610990600" lon="2.553861600">
        <ele>278.40</ele>
        <time>2013-03-02T16:11:21Z</time>
      </trkpt>
      <trkpt lat="41.611159800" lon="2.553899500">
        <ele>279.90</ele>
        <time>2013-03-02T16:11:28Z</time>
      </trkpt>
      <trkpt lat="41.611349200" lon="2.554000400">
        <ele>280.40</ele>
        <time>2013-03-02T16:11:36Z</time>
      </trkpt>
      <trkpt lat="41.611461100" lon="2.554224600">
        <ele>281.30</ele>
        <time>2013-03-02T16:11:43Z</time>
      </trkpt>
      <trkpt lat="41.611542300" lon="2.554414600">
        <ele>282.80</ele>
        <time>2013-03-02T16:11:50Z</time>
      </trkpt>
      <trkpt lat="41.611522400" lon="2.554539900">
        <ele>283.20</ele>
        <time>2013-03-02T16:11:55Z</time>
      </trkpt>
      <trkpt lat="41.611474000" lon="2.554735800">
        <ele>283.20</ele>
        <time>2013-03-02T16:12:04Z</time>
      </trkpt>
      <trkpt lat="41.611467000" lon="2.554800800">
        <ele>284.20</ele>
        <time>2013-03-02T16:12:06Z</time>
      </trkpt>
      <trkpt lat="41.611439700" lon="2.554866300">
        <ele>283.20</ele>
        <time>2013-03-02T16:12:11Z</time>
      </trkpt>
      <trkpt lat="41.611433200" lon="2.554907900">
        <ele>283.70</ele>
        <time>2013-03-02T16:12:23Z</time>
      </trkpt>
      <trkpt lat="41.611431600" lon="2.554915000">
        <ele>283.70</ele>
        <time>2013-03-02T16:12:23Z</time>
      </trkpt>
      <trkpt lat="41.611429800" lon="2.554953500">
        <ele>284.20</ele>
        <time>2013-03-02T16:12:27Z</time>
      </trkpt>
      <trkpt lat="41.611437700" lon="2.555096300">
        <ele>285.60</ele>
        <time>2013-03-02T16:12:34Z</time>
      </trkpt>
      <trkpt lat="41.611474700" lon="2.555219100">
        <ele>287.10</ele>
        <time>2013-03-02T16:12:41Z</time>
      </trkpt>
      <trkpt lat="41.611494300" lon="2.555331600">
        <ele>288.50</ele>
        <time>2013-03-02T16:12:46Z</time>
      </trkpt>
      <trkpt lat="41.611456300" lon="2.555707000">
        <ele>290.50</ele>
        <time>2013-03-02T16:13:00Z</time>
      </trkpt>
      <trkpt lat="41.611438000" lon="2.555974300">
        <ele>291.90</ele>
        <time>2013-03-02T16:13:09Z</time>
      </trkpt>
      <trkpt lat="41.611470000" lon="2.556186100">
        <ele>294.30</ele>
        <time>2013-03-02T16:13:17Z</time>
      </trkpt>
      <trkpt lat="41.611495300" lon="2.556352300">
        <ele>295.30</ele>
        <time>2013-03-02T16:13:23Z</time>
      </trkpt>
      <trkpt lat="41.611530700" lon="2.556587600">
        <ele>297.20</ele>
        <time>2013-03-02T16:13:31Z</time>
      </trkpt>
      <trkpt lat="41.611592600" lon="2.556803600">
        <ele>297.70</ele>
        <time>2013-03-02T16:13:40Z</time>
      </trkpt>
      <trkpt lat="41.611655400" lon="2.557137700">
        <ele>295.70</ele>
        <time>2013-03-02T16:13:45Z</time>
      </trkpt>
      <trkpt lat="41.611667900" lon="2.557203700">
        <ele>295.30</ele>
        <time>2013-03-02T16:13:47Z</time>
      </trkpt>
      <trkpt lat="41.611761900" lon="2.557433000">
        <ele>292.40</ele>
        <time>2013-03-02T16:13:50Z</time>
      </trkpt>
      <trkpt lat="41.611809600" lon="2.557627400">
        <ele>290.50</ele>
        <time>2013-03-02T16:13:54Z</time>
      </trkpt>
      <trkpt lat="41.611886100" lon="2.557801300">
        <ele>289.00</ele>
        <time>2013-03-02T16:13:57Z</time>
      </trkpt>
      <trkpt lat="41.612054900" lon="2.557842100">
        <ele>287.10</ele>
        <time>2013-03-02T16:13:59Z</time>
      </trkpt>
      <trkpt lat="41.612423700" lon="2.557782600">
        <ele>283.20</ele>
        <time>2013-03-02T16:14:04Z</time>
      </trkpt>
      <trkpt lat="41.612668700" lon="2.557725900">
        <ele>281.30</ele>
        <time>2013-03-02T16:14:08Z</time>
      </trkpt>
      <trkpt lat="41.612988700" lon="2.557679800">
        <ele>278.90</ele>
        <time>2013-03-02T16:14:11Z</time>
      </trkpt>
      <trkpt lat="41.613055100" lon="2.557648900">
        <ele>278.00</ele>
        <time>2013-03-02T16:14:13Z</time>
      </trkpt>
      <trkpt lat="41.613240100" lon="2.557727200">
        <ele>277.00</ele>
        <time>2013-03-02T16:14:18Z</time>
      </trkpt>
      <trkpt lat="41.613399100" lon="2.558059800">
        <ele>277.00</ele>
        <time>2013-03-02T16:14:25Z</time>
      </trkpt>
      <trkpt lat="41.613633800" lon="2.558486000">
        <ele>278.40</ele>
        <time>2013-03-02T16:14:39Z</time>
      </trkpt>
      <trkpt lat="41.613796800" lon="2.558734500">
        <ele>280.40</ele>
        <time>2013-03-02T16:14:48Z</time>
      </trkpt>
      <trkpt lat="41.613901800" lon="2.558898200">
        <ele>282.80</ele>
        <time>2013-03-02T16:14:57Z</time>
      </trkpt>
      <trkpt lat="41.613989900" lon="2.559037000">
        <ele>284.70</ele>
        <time>2013-03-02T16:15:05Z</time>
      </trkpt>
      <trkpt lat="41.614104200" lon="2.559168800">
        <ele>286.10</ele>
        <time>2013-03-02T16:15:12Z</time>
      </trkpt>
      <trkpt lat="41.614205900" lon="2.559293900">
        <ele>287.60</ele>
        <time>2013-03-02T16:15:19Z</time>
      </trkpt>
      <trkpt lat="41.614274100" lon="2.559360200">
        <ele>288.50</ele>
        <time>2013-03-02T16:15:26Z</time>
      </trkpt>
      <trkpt lat="41.614296200" lon="2.559355100">
        <ele>289.00</ele>
        <time>2013-03-02T16:15:28Z</time>
      </trkpt>
      <trkpt lat="41.614363600" lon="2.559358100">
        <ele>290.50</ele>
        <time>2013-03-02T16:15:33Z</time>
      </trkpt>
      <trkpt lat="41.614392400" lon="2.559338100">
        <ele>290.50</ele>
        <time>2013-03-02T16:15:35Z</time>
      </trkpt>
      <trkpt lat="41.614479200" lon="2.559264700">
        <ele>292.40</ele>
        <time>2013-03-02T16:15:42Z</time>
      </trkpt>
      <trkpt lat="41.614530500" lon="2.559247500">
        <ele>293.30</ele>
        <time>2013-03-02T16:15:45Z</time>
      </trkpt>
      <trkpt lat="41.614643900" lon="2.559287100">
        <ele>294.30</ele>
        <time>2013-03-02T16:15:54Z</time>
      </trkpt>
      <trkpt lat="41.614655300" lon="2.559287000">
        <ele>294.30</ele>
        <time>2013-03-02T16:15:54Z</time>
      </trkpt>
      <trkpt lat="41.614725900" lon="2.559284100">
        <ele>294.80</ele>
        <time>2013-03-02T16:16:01Z</time>
      </trkpt>
      <trkpt lat="41.614850500" lon="2.559342300">
        <ele>294.80</ele>
        <time>2013-03-02T16:16:10Z</time>
      </trkpt>
      <trkpt lat="41.614897000" lon="2.559397900">
        <ele>294.80</ele>
        <time>2013-03-02T16:16:13Z</time>
      </trkpt>
      <trkpt lat="41.614989700" lon="2.559470000">
        <ele>294.80</ele>
        <time>2013-03-02T16:16:20Z</time>
      </trkpt>
      <trkpt lat="41.615056100" lon="2.559400900">
        <ele>294.30</ele>
        <time>2013-03-02T16:16:25Z</time>
      </trkpt>
      <trkpt lat="41.615168800" lon="2.559299900">
        <ele>292.40</ele>
        <time>2013-03-02T16:16:31Z</time>
      </trkpt>
      <trkpt lat="41.615208200" lon="2.559276000">
        <ele>291.40</ele>
        <time>2013-03-02T16:16:34Z</time>
      </trkpt>
      <trkpt lat="41.615328900" lon="2.559225600">
        <ele>288.00</ele>
        <time>2013-03-02T16:16:39Z</time>
      </trkpt>
      <trkpt lat="41.615380400" lon="2.559222600">
        <ele>286.60</ele>
        <time>2013-03-02T16:16:43Z</time>
      </trkpt>
      <trkpt lat="41.615389300" lon="2.559312300">
        <ele>286.60</ele>
        <time>2013-03-02T16:16:48Z</time>
      </trkpt>
      <trkpt lat="41.615377500" lon="2.559347000">
        <ele>287.10</ele>
        <time>2013-03-02T16:16:50Z</time>
      </trkpt>
      <trkpt lat="41.615373000" lon="2.559497500">
        <ele>285.20</ele>
        <time>2013-03-02T16:16:55Z</time>
      </trkpt>
      <trkpt lat="41.615379000" lon="2.559529900">
        <ele>285.20</ele>
        <time>2013-03-02T16:16:55Z</time>
      </trkpt>
      <trkpt lat="41.615402300" lon="2.559658500">
        <ele>284.20</ele>
        <time>2013-03-02T16:17:00Z</time>
      </trkpt>
      <trkpt lat="41.615416700" lon="2.559783600">
        <ele>285.60</ele>
        <time>2013-03-02T16:17:05Z</time>
      </trkpt>
      <trkpt lat="41.615438400" lon="2.559903300">
        <ele>286.60</ele>
        <time>2013-03-02T16:17:11Z</time>
      </trkpt>
      <trkpt lat="41.615445300" lon="2.559944300">
        <ele>286.60</ele>
        <time>2013-03-02T16:17:14Z</time>
      </trkpt>
      <trkpt lat="41.615442500" lon="2.560042500">
        <ele>287.10</ele>
        <time>2013-03-02T16:17:18Z</time>
      </trkpt>
      <trkpt lat="41.615443600" lon="2.560243900">
        <ele>287.60</ele>
        <time>2013-03-02T16:17:25Z</time>
      </trkpt>
      <trkpt lat="41.615468300" lon="2.560393900">
        <ele>289.00</ele>
        <time>2013-03-02T16:17:33Z</time>
      </trkpt>
      <trkpt lat="41.615484500" lon="2.560564300">
        <ele>290.00</ele>
        <time>2013-03-02T16:17:40Z</time>
      </trkpt>
      <trkpt lat="41.615483200" lon="2.560628900">
        <ele>289.50</ele>
        <time>2013-03-02T16:17:44Z</time>
      </trkpt>
      <trkpt lat="41.615533500" lon="2.560744800">
        <ele>287.10</ele>
        <time>2013-03-02T16:17:49Z</time>
      </trkpt>
      <trkpt lat="41.615575800" lon="2.560770800">
        <ele>285.60</ele>
        <time>2013-03-02T16:17:51Z</time>
      </trkpt>
      <trkpt lat="41.615608300" lon="2.560668400">
        <ele>284.20</ele>
        <time>2013-03-02T16:17:58Z</time>
      </trkpt>
      <trkpt lat="41.615670800" lon="2.560726000">
        <ele>281.30</ele>
        <time>2013-03-02T16:18:03Z</time>
      </trkpt>
      <trkpt lat="41.615719900" lon="2.560629600">
        <ele>279.40</ele>
        <time>2013-03-02T16:18:08Z</time>
      </trkpt>
      <trkpt lat="41.615722100" lon="2.560601000">
        <ele>278.90</ele>
        <time>2013-03-02T16:18:10Z</time>
      </trkpt>
      <trkpt lat="41.615725000" lon="2.560543300">
        <ele>278.90</ele>
        <time>2013-03-02T16:18:12Z</time>
      </trkpt>
      <trkpt lat="41.615685000" lon="2.560293300">
        <ele>277.50</ele>
        <time>2013-03-02T16:18:19Z</time>
      </trkpt>
      <trkpt lat="41.615679700" lon="2.560196400">
        <ele>276.50</ele>
        <time>2013-03-02T16:18:22Z</time>
      </trkpt>
      <trkpt lat="41.615713700" lon="2.560192600">
        <ele>274.60</ele>
        <time>2013-03-02T16:18:26Z</time>
      </trkpt>
      <trkpt lat="41.615729800" lon="2.560213100">
        <ele>274.10</ele>
        <time>2013-03-02T16:18:29Z</time>
      </trkpt>
      <trkpt lat="41.615804300" lon="2.560320700">
        <ele>272.70</ele>
        <time>2013-03-02T16:18:34Z</time>
      </trkpt>
      <trkpt lat="41.615859200" lon="2.560407600">
        <ele>271.70</ele>
        <time>2013-03-02T16:18:38Z</time>
      </trkpt>
      <trkpt lat="41.615879300" lon="2.560471100">
        <ele>271.70</ele>
        <time>2013-03-02T16:18:41Z</time>
      </trkpt>
      <trkpt lat="41.615908800" lon="2.560507000">
        <ele>270.30</ele>
        <time>2013-03-02T16:18:43Z</time>
      </trkpt>
      <trkpt lat="41.615972000" lon="2.560529300">
        <ele>269.80</ele>
        <time>2013-03-02T16:18:47Z</time>
      </trkpt>
      <trkpt lat="41.616115100" lon="2.560574100">
        <ele>267.90</ele>
        <time>2013-03-02T16:18:52Z</time>
      </trkpt>
      <trkpt lat="41.616136700" lon="2.560586200">
        <ele>267.90</ele>
        <time>2013-03-02T16:18:53Z</time>
      </trkpt>
      <trkpt lat="41.616197700" lon="2.560612900">
        <ele>267.90</ele>
        <time>2013-03-02T16:18:57Z</time>
      </trkpt>
      <trkpt lat="41.616321900" lon="2.560692000">
        <ele>265.00</ele>
        <time>2013-03-02T16:19:02Z</time>
      </trkpt>
      <trkpt lat="41.616334800" lon="2.560688200">
        <ele>265.00</ele>
        <time>2013-03-02T16:19:04Z</time>
      </trkpt>
      <trkpt lat="41.616331900" lon="2.560564300">
        <ele>263.50</ele>
        <time>2013-03-02T16:19:09Z</time>
      </trkpt>
      <trkpt lat="41.616300700" lon="2.560523900">
        <ele>263.50</ele>
        <time>2013-03-02T16:19:13Z</time>
      </trkpt>
      <trkpt lat="41.616167100" lon="2.560432200">
        <ele>263.50</ele>
        <time>2013-03-02T16:19:20Z</time>
      </trkpt>
      <trkpt lat="41.616086200" lon="2.560314500">
        <ele>262.60</ele>
        <time>2013-03-02T16:19:23Z</time>
      </trkpt>
      <trkpt lat="41.616026900" lon="2.560174700">
        <ele>262.10</ele>
        <time>2013-03-02T16:19:28Z</time>
      </trkpt>
      <trkpt lat="41.616015800" lon="2.560140600">
        <ele>261.60</ele>
        <time>2013-03-02T16:19:30Z</time>
      </trkpt>
      <trkpt lat="41.616017200" lon="2.560064600">
        <ele>261.10</ele>
        <time>2013-03-02T16:19:32Z</time>
      </trkpt>
      <trkpt lat="41.616017700" lon="2.559891300">
        <ele>260.60</ele>
        <time>2013-03-02T16:19:37Z</time>
      </trkpt>
      <trkpt lat="41.616029100" lon="2.559863000">
        <ele>261.10</ele>
        <time>2013-03-02T16:19:37Z</time>
      </trkpt>
      <trkpt lat="41.616047800" lon="2.559739300">
        <ele>261.60</ele>
        <time>2013-03-02T16:19:42Z</time>
      </trkpt>
      <trkpt lat="41.616075200" lon="2.559496900">
        <ele>263.10</ele>
        <time>2013-03-02T16:19:53Z</time>
      </trkpt>
      <trkpt lat="41.616084400" lon="2.559371000">
        <ele>263.50</ele>
        <time>2013-03-02T16:19:58Z</time>
      </trkpt>
      <trkpt lat="41.616086900" lon="2.559314700">
        <ele>264.50</ele>
        <time>2013-03-02T16:20:01Z</time>
      </trkpt>
      <trkpt lat="41.616079000" lon="2.559165500">
        <ele>267.40</ele>
        <time>2013-03-02T16:20:12Z</time>
      </trkpt>
      <trkpt lat="41.616083600" lon="2.559157900">
        <ele>267.40</ele>
        <time>2013-03-02T16:20:12Z</time>
      </trkpt>
      <trkpt lat="41.616100900" lon="2.558955300">
        <ele>269.30</ele>
        <time>2013-03-02T16:20:22Z</time>
      </trkpt>
      <trkpt lat="41.616108900" lon="2.558848400">
        <ele>270.30</ele>
        <time>2013-03-02T16:20:28Z</time>
      </trkpt>
      <trkpt lat="41.616226400" lon="2.558776700">
        <ele>268.80</ele>
        <time>2013-03-02T16:20:33Z</time>
      </trkpt>
      <trkpt lat="41.616271100" lon="2.558763700">
        <ele>268.80</ele>
        <time>2013-03-02T16:20:33Z</time>
      </trkpt>
      <trkpt lat="41.616315700" lon="2.558759300">
        <ele>268.40</ele>
        <time>2013-03-02T16:20:35Z</time>
      </trkpt>
      <trkpt lat="41.616547900" lon="2.558784800">
        <ele>268.40</ele>
        <time>2013-03-02T16:20:42Z</time>
      </trkpt>
      <trkpt lat="41.616718100" lon="2.558907200">
        <ele>267.90</ele>
        <time>2013-03-02T16:20:47Z</time>
      </trkpt>
      <trkpt lat="41.616924800" lon="2.559022500">
        <ele>266.40</ele>
        <time>2013-03-02T16:20:54Z</time>
      </trkpt>
      <trkpt lat="41.617092700" lon="2.559169400">
        <ele>264.00</ele>
        <time>2013-03-02T16:21:01Z</time>
      </trkpt>
      <trkpt lat="41.617118500" lon="2.559198900">
        <ele>264.00</ele>
        <time>2013-03-02T16:21:01Z</time>
      </trkpt>
      <trkpt lat="41.617282900" lon="2.559388800">
        <ele>260.60</ele>
        <time>2013-03-02T16:21:08Z</time>
      </trkpt>
      <trkpt lat="41.617466500" lon="2.559582900">
        <ele>259.20</ele>
        <time>2013-03-02T16:21:13Z</time>
      </trkpt>
      <trkpt lat="41.617695700" lon="2.559757900">
        <ele>256.80</ele>
        <time>2013-03-02T16:21:18Z</time>
      </trkpt>
      <trkpt lat="41.617801800" lon="2.559762000">
        <ele>255.40</ele>
        <time>2013-03-02T16:21:23Z</time>
      </trkpt>
      <trkpt lat="41.617899600" lon="2.559746400">
        <ele>254.40</ele>
        <time>2013-03-02T16:21:27Z</time>
      </trkpt>
      <trkpt lat="41.618085900" lon="2.559795500">
        <ele>252.00</ele>
        <time>2013-03-02T16:21:34Z</time>
      </trkpt>
      <trkpt lat="41.618275200" lon="2.559781300">
        <ele>250.60</ele>
        <time>2013-03-02T16:21:41Z</time>
      </trkpt>
      <trkpt lat="41.618353000" lon="2.559744900">
        <ele>249.60</ele>
        <time>2013-03-02T16:21:44Z</time>
      </trkpt>
      <trkpt lat="41.618421900" lon="2.559582000">
        <ele>248.60</ele>
        <time>2013-03-02T16:21:48Z</time>
      </trkpt>
      <trkpt lat="41.618520700" lon="2.559296300">
        <ele>244.80</ele>
        <time>2013-03-02T16:21:55Z</time>
      </trkpt>
      <trkpt lat="41.618567800" lon="2.559068500">
        <ele>241.90</ele>
        <time>2013-03-02T16:21:58Z</time>
      </trkpt>
      <trkpt lat="41.618617000" lon="2.558910300">
        <ele>238.50</ele>
        <time>2013-03-02T16:22:02Z</time>
      </trkpt>
      <trkpt lat="41.618817600" lon="2.558762900">
        <ele>234.70</ele>
        <time>2013-03-02T16:22:07Z</time>
      </trkpt>
      <trkpt lat="41.619000300" lon="2.558643300">
        <ele>232.80</ele>
        <time>2013-03-02T16:22:12Z</time>
      </trkpt>
      <trkpt lat="41.619180700" lon="2.558619000">
        <ele>230.90</ele>
        <time>2013-03-02T16:22:17Z</time>
      </trkpt>
      <trkpt lat="41.619265200" lon="2.558633700">
        <ele>228.90</ele>
        <time>2013-03-02T16:22:19Z</time>
      </trkpt>
      <trkpt lat="41.619293500" lon="2.558757900">
        <ele>227.50</ele>
        <time>2013-03-02T16:22:24Z</time>
      </trkpt>
      <trkpt lat="41.619285100" lon="2.558783600">
        <ele>227.00</ele>
        <time>2013-03-02T16:22:26Z</time>
      </trkpt>
      <trkpt lat="41.619169700" lon="2.558936300">
        <ele>224.60</ele>
        <time>2013-03-02T16:22:33Z</time>
      </trkpt>
      <trkpt lat="41.619124700" lon="2.558966700">
        <ele>224.10</ele>
        <time>2013-03-02T16:22:35Z</time>
      </trkpt>
      <trkpt lat="41.619102400" lon="2.559033500">
        <ele>222.70</ele>
        <time>2013-03-02T16:22:38Z</time>
      </trkpt>
      <trkpt lat="41.619151000" lon="2.559079400">
        <ele>221.20</ele>
        <time>2013-03-02T16:22:40Z</time>
      </trkpt>
      <trkpt lat="41.619295400" lon="2.559078800">
        <ele>220.80</ele>
        <time>2013-03-02T16:22:47Z</time>
      </trkpt>
      <trkpt lat="41.619324700" lon="2.559066200">
        <ele>220.80</ele>
        <time>2013-03-02T16:22:47Z</time>
      </trkpt>
      <trkpt lat="41.619617600" lon="2.558936100">
        <ele>218.40</ele>
        <time>2013-03-02T16:22:57Z</time>
      </trkpt>
      <trkpt lat="41.619761100" lon="2.558691900">
        <ele>216.40</ele>
        <time>2013-03-02T16:23:03Z</time>
      </trkpt>
      <trkpt lat="41.619778300" lon="2.558421400">
        <ele>215.00</ele>
        <time>2013-03-02T16:23:08Z</time>
      </trkpt>
      <trkpt lat="41.619859400" lon="2.558124800">
        <ele>213.10</ele>
        <time>2013-03-02T16:23:13Z</time>
      </trkpt>
      <trkpt lat="41.619822000" lon="2.557954600">
        <ele>211.60</ele>
        <time>2013-03-02T16:23:18Z</time>
      </trkpt>
      <trkpt lat="41.619752900" lon="2.557765600">
        <ele>210.20</ele>
        <time>2013-03-02T16:23:22Z</time>
      </trkpt>
      <trkpt lat="41.619603300" lon="2.557443000">
        <ele>207.80</ele>
        <time>2013-03-02T16:23:29Z</time>
      </trkpt>
      <trkpt lat="41.619591300" lon="2.557403100">
        <ele>207.30</ele>
        <time>2013-03-02T16:23:30Z</time>
      </trkpt>
      <trkpt lat="41.619644800" lon="2.557344000">
        <ele>205.40</ele>
        <time>2013-03-02T16:23:34Z</time>
      </trkpt>
      <trkpt lat="41.619671200" lon="2.557361500">
        <ele>204.90</ele>
        <time>2013-03-02T16:23:36Z</time>
      </trkpt>
      <trkpt lat="41.619751200" lon="2.557409700">
        <ele>203.50</ele>
        <time>2013-03-02T16:23:39Z</time>
      </trkpt>
      <trkpt lat="41.619844700" lon="2.557498300">
        <ele>202.00</ele>
        <time>2013-03-02T16:23:43Z</time>
      </trkpt>
      <trkpt lat="41.619956800" lon="2.557659500">
        <ele>200.60</ele>
        <time>2013-03-02T16:23:46Z</time>
      </trkpt>
      <trkpt lat="41.620126300" lon="2.557893100">
        <ele>199.10</ele>
        <time>2013-03-02T16:23:53Z</time>
      </trkpt>
      <trkpt lat="41.620189200" lon="2.558101300">
        <ele>197.70</ele>
        <time>2013-03-02T16:23:57Z</time>
      </trkpt>
      <trkpt lat="41.620224000" lon="2.558355600">
        <ele>197.20</ele>
        <time>2013-03-02T16:24:04Z</time>
      </trkpt>
      <trkpt lat="41.620230200" lon="2.558381500">
        <ele>197.20</ele>
        <time>2013-03-02T16:24:05Z</time>
      </trkpt>
      <trkpt lat="41.620351300" lon="2.558524900">
        <ele>198.60</ele>
        <time>2013-03-02T16:24:12Z</time>
      </trkpt>
      <trkpt lat="41.620397800" lon="2.558644100">
        <ele>201.10</ele>
        <time>2013-03-02T16:24:21Z</time>
      </trkpt>
      <trkpt lat="41.620416700" lon="2.558732000">
        <ele>203.00</ele>
        <time>2013-03-02T16:24:26Z</time>
      </trkpt>
      <trkpt lat="41.620395200" lon="2.558808400">
        <ele>203.00</ele>
        <time>2013-03-02T16:24:31Z</time>
      </trkpt>
      <trkpt lat="41.620270700" lon="2.558899700">
        <ele>204.40</ele>
        <time>2013-03-02T16:24:40Z</time>
      </trkpt>
      <trkpt lat="41.620213500" lon="2.559069200">
        <ele>203.50</ele>
        <time>2013-03-02T16:24:47Z</time>
      </trkpt>
      <trkpt lat="41.620184300" lon="2.559379500">
        <ele>199.60</ele>
        <time>2013-03-02T16:24:52Z</time>
      </trkpt>
      <trkpt lat="41.620133600" lon="2.559656300">
        <ele>196.20</ele>
        <time>2013-03-02T16:24:59Z</time>
      </trkpt>
      <trkpt lat="41.620106800" lon="2.559734800">
        <ele>194.80</ele>
        <time>2013-03-02T16:25:01Z</time>
      </trkpt>
      <trkpt lat="41.620001300" lon="2.559862800">
        <ele>191.90</ele>
        <time>2013-03-02T16:25:05Z</time>
      </trkpt>
      <trkpt lat="41.619971600" lon="2.559870400">
        <ele>191.40</ele>
        <time>2013-03-02T16:25:06Z</time>
      </trkpt>
      <trkpt lat="41.619748700" lon="2.559967100">
        <ele>191.40</ele>
        <time>2013-03-02T16:25:13Z</time>
      </trkpt>
      <trkpt lat="41.619712100" lon="2.560032100">
        <ele>192.40</ele>
        <time>2013-03-02T16:25:15Z</time>
      </trkpt>
      <trkpt lat="41.619830300" lon="2.560136000">
        <ele>191.00</ele>
        <time>2013-03-02T16:25:20Z</time>
      </trkpt>
      <trkpt lat="41.619909600" lon="2.560269100">
        <ele>190.50</ele>
        <time>2013-03-02T16:25:24Z</time>
      </trkpt>
      <trkpt lat="41.619993900" lon="2.560440700">
        <ele>191.40</ele>
        <time>2013-03-02T16:25:31Z</time>
      </trkpt>
      <trkpt lat="41.620009400" lon="2.560458700">
        <ele>191.40</ele>
        <time>2013-03-02T16:25:32Z</time>
      </trkpt>
      <trkpt lat="41.620120800" lon="2.560629700">
        <ele>193.80</ele>
        <time>2013-03-02T16:25:41Z</time>
      </trkpt>
      <trkpt lat="41.620151000" lon="2.560733900">
        <ele>194.30</ele>
        <time>2013-03-02T16:25:48Z</time>
      </trkpt>
      <trkpt lat="41.620272600" lon="2.560846500">
        <ele>193.80</ele>
        <time>2013-03-02T16:25:53Z</time>
      </trkpt>
      <trkpt lat="41.620356000" lon="2.560911400">
        <ele>192.90</ele>
        <time>2013-03-02T16:25:55Z</time>
      </trkpt>
      <trkpt lat="41.620608200" lon="2.561149000">
        <ele>190.00</ele>
        <time>2013-03-02T16:26:02Z</time>
      </trkpt>
      <trkpt lat="41.620635200" lon="2.561171300">
        <ele>189.00</ele>
        <time>2013-03-02T16:26:04Z</time>
      </trkpt>
      <trkpt lat="41.620800200" lon="2.561158800">
        <ele>186.60</ele>
        <time>2013-03-02T16:26:09Z</time>
      </trkpt>
      <trkpt lat="41.620966700" lon="2.561088400">
        <ele>185.20</ele>
        <time>2013-03-02T16:26:14Z</time>
      </trkpt>
      <trkpt lat="41.621285800" lon="2.560969400">
        <ele>184.20</ele>
        <time>2013-03-02T16:26:25Z</time>
      </trkpt>
      <trkpt lat="41.621433400" lon="2.560840600">
        <ele>183.30</ele>
        <time>2013-03-02T16:26:30Z</time>
      </trkpt>
      <trkpt lat="41.621631600" lon="2.560684400">
        <ele>183.30</ele>
        <time>2013-03-02T16:26:37Z</time>
      </trkpt>
      <trkpt lat="41.621776400" lon="2.560644100">
        <ele>181.40</ele>
        <time>2013-03-02T16:26:42Z</time>
      </trkpt>
      <trkpt lat="41.621862800" lon="2.560662000">
        <ele>180.40</ele>
        <time>2013-03-02T16:26:44Z</time>
      </trkpt>
      <trkpt lat="41.622008300" lon="2.560662600">
        <ele>179.90</ele>
        <time>2013-03-02T16:26:47Z</time>
      </trkpt>
      <trkpt lat="41.622321800" lon="2.560722700">
        <ele>177.50</ele>
        <time>2013-03-02T16:26:54Z</time>
      </trkpt>
      <trkpt lat="41.622394700" lon="2.560637100">
        <ele>176.10</ele>
        <time>2013-03-02T16:26:58Z</time>
      </trkpt>
      <trkpt lat="41.622358000" lon="2.560549900">
        <ele>174.10</ele>
        <time>2013-03-02T16:27:01Z</time>
      </trkpt>
      <trkpt lat="41.622287000" lon="2.560429200">
        <ele>172.20</ele>
        <time>2013-03-02T16:27:06Z</time>
      </trkpt>
      <trkpt lat="41.622240700" lon="2.560343700">
        <ele>171.20</ele>
        <time>2013-03-02T16:27:08Z</time>
      </trkpt>
      <trkpt lat="41.622181400" lon="2.560098300">
        <ele>167.40</ele>
        <time>2013-03-02T16:27:12Z</time>
      </trkpt>
      <trkpt lat="41.622171300" lon="2.559873500">
        <ele>165.50</ele>
        <time>2013-03-02T16:27:17Z</time>
      </trkpt>
      <trkpt lat="41.622143100" lon="2.559762300">
        <ele>164.50</ele>
        <time>2013-03-02T16:27:19Z</time>
      </trkpt>
      <trkpt lat="41.622033300" lon="2.559622600">
        <ele>163.60</ele>
        <time>2013-03-02T16:27:22Z</time>
      </trkpt>
      <trkpt lat="41.621816000" lon="2.559618000">
        <ele>162.10</ele>
        <time>2013-03-02T16:27:29Z</time>
      </trkpt>
      <trkpt lat="41.621773800" lon="2.559630700">
        <ele>161.60</ele>
        <time>2013-03-02T16:27:29Z</time>
      </trkpt>
      <trkpt lat="41.621680800" lon="2.559671300">
        <ele>160.70</ele>
        <time>2013-03-02T16:27:31Z</time>
      </trkpt>
      <trkpt lat="41.621587800" lon="2.559742800">
        <ele>159.20</ele>
        <time>2013-03-02T16:27:34Z</time>
      </trkpt>
      <trkpt lat="41.621563400" lon="2.559678300">
        <ele>158.30</ele>
        <time>2013-03-02T16:27:38Z</time>
      </trkpt>
      <trkpt lat="41.621616300" lon="2.559579900">
        <ele>155.90</ele>
        <time>2013-03-02T16:27:41Z</time>
      </trkpt>
      <trkpt lat="41.621838900" lon="2.559446000">
        <ele>153.50</ele>
        <time>2013-03-02T16:27:50Z</time>
      </trkpt>
      <trkpt lat="41.621928900" lon="2.559378000">
        <ele>152.00</ele>
        <time>2013-03-02T16:27:55Z</time>
      </trkpt>
      <trkpt lat="41.621998200" lon="2.559332700">
        <ele>151.10</ele>
        <time>2013-03-02T16:27:57Z</time>
      </trkpt>
      <trkpt lat="41.622240000" lon="2.559116500">
        <ele>146.70</ele>
        <time>2013-03-02T16:28:02Z</time>
      </trkpt>
      <trkpt lat="41.622397700" lon="2.559034700">
        <ele>145.30</ele>
        <time>2013-03-02T16:28:04Z</time>
      </trkpt>
      <trkpt lat="41.622492200" lon="2.558986600">
        <ele>144.30</ele>
        <time>2013-03-02T16:28:06Z</time>
      </trkpt>
      <trkpt lat="41.622601600" lon="2.558858300">
        <ele>142.90</ele>
        <time>2013-03-02T16:28:09Z</time>
      </trkpt>
      <trkpt lat="41.622651700" lon="2.558731400">
        <ele>142.40</ele>
        <time>2013-03-02T16:28:13Z</time>
      </trkpt>
      <trkpt lat="41.622706900" lon="2.558633100">
        <ele>141.00</ele>
        <time>2013-03-02T16:28:14Z</time>
      </trkpt>
      <trkpt lat="41.623000800" lon="2.558341100">
        <ele>138.10</ele>
        <time>2013-03-02T16:28:21Z</time>
      </trkpt>
      <trkpt lat="41.623165400" lon="2.558255400">
        <ele>135.20</ele>
        <time>2013-03-02T16:28:27Z</time>
      </trkpt>
      <trkpt lat="41.623282200" lon="2.558195000">
        <ele>134.70</ele>
        <time>2013-03-02T16:28:32Z</time>
      </trkpt>
      <trkpt lat="41.623302200" lon="2.557972300">
        <ele>134.70</ele>
        <time>2013-03-02T16:28:39Z</time>
      </trkpt>
      <trkpt lat="41.623183800" lon="2.557823400">
        <ele>135.70</ele>
        <time>2013-03-02T16:28:46Z</time>
      </trkpt>
      <trkpt lat="41.623165800" lon="2.557782200">
        <ele>136.20</ele>
        <time>2013-03-02T16:28:49Z</time>
      </trkpt>
      <trkpt lat="41.623217100" lon="2.557724400">
        <ele>137.60</ele>
        <time>2013-03-02T16:28:54Z</time>
      </trkpt>
      <trkpt lat="41.623265900" lon="2.557768900">
        <ele>138.60</ele>
        <time>2013-03-02T16:29:00Z</time>
      </trkpt>
      <trkpt lat="41.623285400" lon="2.557772100">
        <ele>139.10</ele>
        <time>2013-03-02T16:29:01Z</time>
      </trkpt>
      <trkpt lat="41.623313500" lon="2.557650400">
        <ele>139.10</ele>
        <time>2013-03-02T16:29:07Z</time>
      </trkpt>
      <trkpt lat="41.623330500" lon="2.557442300">
        <ele>140.00</ele>
        <time>2013-03-02T16:29:14Z</time>
      </trkpt>
      <trkpt lat="41.623462000" lon="2.557246000">
        <ele>140.50</ele>
        <time>2013-03-02T16:29:22Z</time>
      </trkpt>
      <trkpt lat="41.623645000" lon="2.557011000">
        <ele>141.00</ele>
        <time>2013-03-02T16:29:31Z</time>
      </trkpt>
      <trkpt lat="41.623655600" lon="2.556792800">
        <ele>141.00</ele>
        <time>2013-03-02T16:29:36Z</time>
      </trkpt>
      <trkpt lat="41.623643500" lon="2.556698500">
        <ele>141.00</ele>
        <time>2013-03-02T16:29:38Z</time>
      </trkpt>
      <trkpt lat="41.623715400" lon="2.556588100">
        <ele>140.50</ele>
        <time>2013-03-02T16:29:41Z</time>
      </trkpt>
      <trkpt lat="41.623839000" lon="2.556556900">
        <ele>140.50</ele>
        <time>2013-03-02T16:29:48Z</time>
      </trkpt>
      <trkpt lat="41.623842400" lon="2.556545000">
        <ele>141.00</ele>
        <time>2013-03-02T16:29:57Z</time>
      </trkpt>
      <trkpt lat="41.623856400" lon="2.556538600">
        <ele>141.40</ele>
        <time>2013-03-02T16:30:06Z</time>
      </trkpt>
      <trkpt lat="41.623868100" lon="2.556523100">
        <ele>141.00</ele>
        <time>2013-03-02T16:30:13Z</time>
      </trkpt>
      <trkpt lat="41.623882200" lon="2.556530500">
        <ele>141.40</ele>
        <time>2013-03-02T16:30:27Z</time>
      </trkpt>
      <trkpt lat="41.623968600" lon="2.556494900">
        <ele>141.90</ele>
        <time>2013-03-02T16:30:34Z</time>
      </trkpt>
      <trkpt lat="41.624113200" lon="2.556463100">
        <ele>143.40</ele>
        <time>2013-03-02T16:30:41Z</time>
      </trkpt>
      <trkpt lat="41.624231700" lon="2.556429300">
        <ele>144.30</ele>
        <time>2013-03-02T16:30:48Z</time>
      </trkpt>
      <trkpt lat="41.624373800" lon="2.556364700">
        <ele>144.80</ele>
        <time>2013-03-02T16:30:55Z</time>
      </trkpt>
      <trkpt lat="41.624554500" lon="2.556306400">
        <ele>145.80</ele>
        <time>2013-03-02T16:31:03Z</time>
      </trkpt>
      <trkpt lat="41.624740600" lon="2.556255600">
        <ele>146.70</ele>
        <time>2013-03-02T16:31:12Z</time>
      </trkpt>
      <trkpt lat="41.624939600" lon="2.556158800">
        <ele>146.30</ele>
        <time>2013-03-02T16:31:19Z</time>
      </trkpt>
      <trkpt lat="41.625096200" lon="2.555980600">
        <ele>144.30</ele>
        <time>2013-03-02T16:31:26Z</time>
      </trkpt>
      <trkpt lat="41.625211600" lon="2.555875300">
        <ele>145.30</ele>
        <time>2013-03-02T16:31:31Z</time>
      </trkpt>
      <trkpt lat="41.625305200" lon="2.555763300">
        <ele>146.70</ele>
        <time>2013-03-02T16:31:38Z</time>
      </trkpt>
      <trkpt lat="41.625408800" lon="2.555657800">
        <ele>147.70</ele>
        <time>2013-03-02T16:31:47Z</time>
      </trkpt>
      <trkpt lat="41.625525000" lon="2.555537000">
        <ele>149.10</ele>
        <time>2013-03-02T16:31:56Z</time>
      </trkpt>
      <trkpt lat="41.625652800" lon="2.555416700">
        <ele>150.60</ele>
        <time>2013-03-02T16:32:04Z</time>
      </trkpt>
      <trkpt lat="41.625710300" lon="2.555305000">
        <ele>152.00</ele>
        <time>2013-03-02T16:32:10Z</time>
      </trkpt>
      <trkpt lat="41.625758000" lon="2.555083800">
        <ele>152.00</ele>
        <time>2013-03-02T16:32:17Z</time>
      </trkpt>
      <trkpt lat="41.625842300" lon="2.554829600">
        <ele>152.50</ele>
        <time>2013-03-02T16:32:27Z</time>
      </trkpt>
      <trkpt lat="41.625904500" lon="2.554619800">
        <ele>153.90</ele>
        <time>2013-03-02T16:32:36Z</time>
      </trkpt>
      <trkpt lat="41.625937900" lon="2.554524000">
        <ele>155.40</ele>
        <time>2013-03-02T16:32:41Z</time>
      </trkpt>
      <trkpt lat="41.626017900" lon="2.554351500">
        <ele>157.30</ele>
        <time>2013-03-02T16:32:50Z</time>
      </trkpt>
      <trkpt lat="41.626107000" lon="2.554171000">
        <ele>158.30</ele>
        <time>2013-03-02T16:33:00Z</time>
      </trkpt>
      <trkpt lat="41.626216500" lon="2.554086100">
        <ele>159.20</ele>
        <time>2013-03-02T16:33:07Z</time>
      </trkpt>
      <trkpt lat="41.626396300" lon="2.553998800">
        <ele>159.70</ele>
        <time>2013-03-02T16:33:16Z</time>
      </trkpt>
      <trkpt lat="41.626544700" lon="2.553975700">
        <ele>160.70</ele>
        <time>2013-03-02T16:33:24Z</time>
      </trkpt>
      <trkpt lat="41.626689900" lon="2.553899500">
        <ele>161.20</ele>
        <time>2013-03-02T16:33:33Z</time>
      </trkpt>
      <trkpt lat="41.626805300" lon="2.553806200">
        <ele>162.10</ele>
        <time>2013-03-02T16:33:42Z</time>
      </trkpt>
      <trkpt lat="41.626885900" lon="2.553739700">
        <ele>163.60</ele>
        <time>2013-03-02T16:33:49Z</time>
      </trkpt>
      <trkpt lat="41.626923100" lon="2.553731800">
        <ele>163.60</ele>
        <time>2013-03-02T16:33:51Z</time>
      </trkpt>
      <trkpt lat="41.627087500" lon="2.553587200">
        <ele>163.60</ele>
        <time>2013-03-02T16:34:01Z</time>
      </trkpt>
      <trkpt lat="41.627220000" lon="2.553482000">
        <ele>164.50</ele>
        <time>2013-03-02T16:34:10Z</time>
      </trkpt>
      <trkpt lat="41.627354800" lon="2.553445800">
        <ele>165.50</ele>
        <time>2013-03-02T16:34:17Z</time>
      </trkpt>
      <trkpt lat="41.627524800" lon="2.553391200">
        <ele>166.00</ele>
        <time>2013-03-02T16:34:25Z</time>
      </trkpt>
      <trkpt lat="41.627515100" lon="2.553201900">
        <ele>165.50</ele>
        <time>2013-03-02T16:34:31Z</time>
      </trkpt>
      <trkpt lat="41.627530800" lon="2.553014300">
        <ele>166.00</ele>
        <time>2013-03-02T16:34:38Z</time>
      </trkpt>
      <trkpt lat="41.627586700" lon="2.552804900">
        <ele>166.40</ele>
        <time>2013-03-02T16:34:45Z</time>
      </trkpt>
      <trkpt lat="41.627682200" lon="2.552572500">
        <ele>167.40</ele>
        <time>2013-03-02T16:34:53Z</time>
      </trkpt>
      <trkpt lat="41.627812900" lon="2.552471800">
        <ele>168.40</ele>
        <time>2013-03-02T16:35:00Z</time>
      </trkpt>
      <trkpt lat="41.627938300" lon="2.552399900">
        <ele>170.80</ele>
        <time>2013-03-02T16:35:09Z</time>
      </trkpt>
      <trkpt lat="41.628064700" lon="2.552366900">
        <ele>171.20</ele>
        <time>2013-03-02T16:35:14Z</time>
      </trkpt>
      <trkpt lat="41.628171400" lon="2.552378200">
        <ele>171.70</ele>
        <time>2013-03-02T16:35:19Z</time>
      </trkpt>
      <trkpt lat="41.628239100" lon="2.552231500">
        <ele>172.20</ele>
        <time>2013-03-02T16:35:28Z</time>
      </trkpt>
      <trkpt lat="41.628287800" lon="2.552055500">
        <ele>174.10</ele>
        <time>2013-03-02T16:35:37Z</time>
      </trkpt>
      <trkpt lat="41.628345600" lon="2.551881700">
        <ele>176.10</ele>
        <time>2013-03-02T16:35:46Z</time>
      </trkpt>
      <trkpt lat="41.628473300" lon="2.551750200">
        <ele>177.50</ele>
        <time>2013-03-02T16:35:54Z</time>
      </trkpt>
      <trkpt lat="41.628573200" lon="2.551573600">
        <ele>177.50</ele>
        <time>2013-03-02T16:36:03Z</time>
      </trkpt>
      <trkpt lat="41.628653700" lon="2.551411000">
        <ele>178.90</ele>
        <time>2013-03-02T16:36:12Z</time>
      </trkpt>
      <trkpt lat="41.628676900" lon="2.551369700">
        <ele>179.90</ele>
        <time>2013-03-02T16:36:15Z</time>
      </trkpt>
      <trkpt lat="41.628807300" lon="2.551256300">
        <ele>181.40</ele>
        <time>2013-03-02T16:36:24Z</time>
      </trkpt>
      <trkpt lat="41.628887100" lon="2.551194000">
        <ele>181.80</ele>
        <time>2013-03-02T16:36:31Z</time>
      </trkpt>
      <trkpt lat="41.628978400" lon="2.551063400">
        <ele>183.30</ele>
        <time>2013-03-02T16:36:38Z</time>
      </trkpt>
      <trkpt lat="41.629010200" lon="2.550887600">
        <ele>184.20</ele>
        <time>2013-03-02T16:36:47Z</time>
      </trkpt>
      <trkpt lat="41.629044100" lon="2.550685900">
        <ele>183.80</ele>
        <time>2013-03-02T16:36:54Z</time>
      </trkpt>
      <trkpt lat="41.629098800" lon="2.550428600">
        <ele>184.70</ele>
        <time>2013-03-02T16:37:02Z</time>
      </trkpt>
      <trkpt lat="41.629165000" lon="2.550282900">
        <ele>185.20</ele>
        <time>2013-03-02T16:37:09Z</time>
      </trkpt>
      <trkpt lat="41.629248200" lon="2.550181400">
        <ele>186.10</ele>
        <time>2013-03-02T16:37:16Z</time>
      </trkpt>
      <trkpt lat="41.629334300" lon="2.550094500">
        <ele>186.60</ele>
        <time>2013-03-02T16:37:21Z</time>
      </trkpt>
      <trkpt lat="41.629350200" lon="2.550083700">
        <ele>186.60</ele>
        <time>2013-03-02T16:37:23Z</time>
      </trkpt>
      <trkpt lat="41.629513900" lon="2.550022800">
        <ele>186.10</ele>
        <time>2013-03-02T16:37:28Z</time>
      </trkpt>
      <trkpt lat="41.629687100" lon="2.549972100">
        <ele>187.10</ele>
        <time>2013-03-02T16:37:35Z</time>
      </trkpt>
      <trkpt lat="41.629745100" lon="2.549957600">
        <ele>187.10</ele>
        <time>2013-03-02T16:37:39Z</time>
      </trkpt>
      <trkpt lat="41.629944900" lon="2.549879000">
        <ele>190.00</ele>
        <time>2013-03-02T16:37:49Z</time>
      </trkpt>
      <trkpt lat="41.630066200" lon="2.549793400">
        <ele>190.00</ele>
        <time>2013-03-02T16:37:56Z</time>
      </trkpt>
      <trkpt lat="41.630152300" lon="2.549716800">
        <ele>190.50</ele>
        <time>2013-03-02T16:38:01Z</time>
      </trkpt>
      <trkpt lat="41.630271300" lon="2.549591000">
        <ele>191.00</ele>
        <time>2013-03-02T16:38:10Z</time>
      </trkpt>
      <trkpt lat="41.630378400" lon="2.549462800">
        <ele>191.90</ele>
        <time>2013-03-02T16:38:19Z</time>
      </trkpt>
      <trkpt lat="41.630505600" lon="2.549346500">
        <ele>193.80</ele>
        <time>2013-03-02T16:38:29Z</time>
      </trkpt>
      <trkpt lat="41.630606300" lon="2.549236000">
        <ele>195.30</ele>
        <time>2013-03-02T16:38:36Z</time>
      </trkpt>
      <trkpt lat="41.630665900" lon="2.549139100">
        <ele>196.70</ele>
        <time>2013-03-02T16:38:43Z</time>
      </trkpt>
      <trkpt lat="41.630795200" lon="2.549030700">
        <ele>196.70</ele>
        <time>2013-03-02T16:38:52Z</time>
      </trkpt>
      <trkpt lat="41.630930800" lon="2.548891500">
        <ele>195.80</ele>
        <time>2013-03-02T16:38:57Z</time>
      </trkpt>
      <trkpt lat="41.631067600" lon="2.548713700">
        <ele>195.30</ele>
        <time>2013-03-02T16:39:02Z</time>
      </trkpt>
      <trkpt lat="41.631129700" lon="2.548645600">
        <ele>195.30</ele>
        <time>2013-03-02T16:39:06Z</time>
      </trkpt>
      <trkpt lat="41.631181400" lon="2.548549600">
        <ele>195.30</ele>
        <time>2013-03-02T16:39:11Z</time>
      </trkpt>
      <trkpt lat="41.631234800" lon="2.548454300">
        <ele>196.20</ele>
        <time>2013-03-02T16:39:16Z</time>
      </trkpt>
      <trkpt lat="41.631332100" lon="2.548286200">
        <ele>197.70</ele>
        <time>2013-03-02T16:39:25Z</time>
      </trkpt>
      <trkpt lat="41.631384800" lon="2.548169900">
        <ele>198.60</ele>
        <time>2013-03-02T16:39:30Z</time>
      </trkpt>
      <trkpt lat="41.631423600" lon="2.548093300">
        <ele>199.60</ele>
        <time>2013-03-02T16:39:34Z</time>
      </trkpt>
      <trkpt lat="41.631526000" lon="2.547902800">
        <ele>202.00</ele>
        <time>2013-03-02T16:39:44Z</time>
      </trkpt>
      <trkpt lat="41.631595700" lon="2.547787600">
        <ele>203.90</ele>
        <time>2013-03-02T16:39:51Z</time>
      </trkpt>
      <trkpt lat="41.631623700" lon="2.547715700">
        <ele>204.90</ele>
        <time>2013-03-02T16:39:55Z</time>
      </trkpt>
      <trkpt lat="41.631630100" lon="2.547678400">
        <ele>204.90</ele>
        <time>2013-03-02T16:39:56Z</time>
      </trkpt>
      <trkpt lat="41.631797800" lon="2.547458800">
        <ele>206.30</ele>
        <time>2013-03-02T16:40:10Z</time>
      </trkpt>
      <trkpt lat="41.631844400" lon="2.547407600">
        <ele>206.80</ele>
        <time>2013-03-02T16:40:14Z</time>
      </trkpt>
      <trkpt lat="41.631966400" lon="2.547320400">
        <ele>207.30</ele>
        <time>2013-03-02T16:40:23Z</time>
      </trkpt>
      <trkpt lat="41.631981800" lon="2.547308800">
        <ele>207.30</ele>
        <time>2013-03-02T16:40:24Z</time>
      </trkpt>
      <trkpt lat="41.632061900" lon="2.547242000">
        <ele>206.80</ele>
        <time>2013-03-02T16:40:28Z</time>
      </trkpt>
      <trkpt lat="41.632274800" lon="2.547093700">
        <ele>206.80</ele>
        <time>2013-03-02T16:40:36Z</time>
      </trkpt>
      <trkpt lat="41.632406100" lon="2.546898800">
        <ele>209.20</ele>
        <time>2013-03-02T16:40:47Z</time>
      </trkpt>
      <trkpt lat="41.632504700" lon="2.546812700">
        <ele>210.70</ele>
        <time>2013-03-02T16:40:56Z</time>
      </trkpt>
      <trkpt lat="41.632606400" lon="2.546767700">
        <ele>211.60</ele>
        <time>2013-03-02T16:41:03Z</time>
      </trkpt>
      <trkpt lat="41.632663900" lon="2.546733600">
        <ele>212.10</ele>
        <time>2013-03-02T16:41:06Z</time>
      </trkpt>
      <trkpt lat="41.632775300" lon="2.546642300">
        <ele>213.60</ele>
        <time>2013-03-02T16:41:15Z</time>
      </trkpt>
      <trkpt lat="41.632840500" lon="2.546560500">
        <ele>215.00</ele>
        <time>2013-03-02T16:41:22Z</time>
      </trkpt>
      <trkpt lat="41.632884300" lon="2.546508600">
        <ele>216.40</ele>
        <time>2013-03-02T16:41:27Z</time>
      </trkpt>
      <trkpt lat="41.633022300" lon="2.546408200">
        <ele>218.80</ele>
        <time>2013-03-02T16:41:39Z</time>
      </trkpt>
      <trkpt lat="41.633140100" lon="2.546367200">
        <ele>219.80</ele>
        <time>2013-03-02T16:41:48Z</time>
      </trkpt>
      <trkpt lat="41.633176300" lon="2.546364700">
        <ele>220.30</ele>
        <time>2013-03-02T16:41:51Z</time>
      </trkpt>
      <trkpt lat="41.633239400" lon="2.546364600">
        <ele>221.20</ele>
        <time>2013-03-02T16:41:58Z</time>
      </trkpt>
      <trkpt lat="41.633262500" lon="2.546349400">
        <ele>221.20</ele>
        <time>2013-03-02T16:42:00Z</time>
      </trkpt>
      <trkpt lat="41.633374700" lon="2.546297700">
        <ele>223.20</ele>
        <time>2013-03-02T16:42:09Z</time>
      </trkpt>
      <trkpt lat="41.633477900" lon="2.546252900">
        <ele>225.10</ele>
        <time>2013-03-02T16:42:19Z</time>
      </trkpt>
      <trkpt lat="41.633592000" lon="2.546231800">
        <ele>226.50</ele>
        <time>2013-03-02T16:42:26Z</time>
      </trkpt>
      <trkpt lat="41.633721700" lon="2.546226600">
        <ele>228.00</ele>
        <time>2013-03-02T16:42:35Z</time>
      </trkpt>
      <trkpt lat="41.633774900" lon="2.546233600">
        <ele>228.90</ele>
        <time>2013-03-02T16:42:40Z</time>
      </trkpt>
      <trkpt lat="41.633884900" lon="2.546256100">
        <ele>229.90</ele>
        <time>2013-03-02T16:42:47Z</time>
      </trkpt>
      <trkpt lat="41.633984300" lon="2.546288200">
        <ele>230.90</ele>
        <time>2013-03-02T16:42:54Z</time>
      </trkpt>
      <trkpt lat="41.634084100" lon="2.546328300">
        <ele>231.80</ele>
        <time>2013-03-02T16:43:01Z</time>
      </trkpt>
      <trkpt lat="41.634220100" lon="2.546361500">
        <ele>233.30</ele>
        <time>2013-03-02T16:43:10Z</time>
      </trkpt>
      <trkpt lat="41.634282800" lon="2.546353900">
        <ele>234.20</ele>
        <time>2013-03-02T16:43:15Z</time>
      </trkpt>
      <trkpt lat="41.634341200" lon="2.546249200">
        <ele>236.10</ele>
        <time>2013-03-02T16:43:24Z</time>
      </trkpt>
      <trkpt lat="41.634312700" lon="2.546138300">
        <ele>236.10</ele>
        <time>2013-03-02T16:43:29Z</time>
      </trkpt>
      <trkpt lat="41.634225500" lon="2.546030300">
        <ele>237.60</ele>
        <time>2013-03-02T16:43:39Z</time>
      </trkpt>
      <trkpt lat="41.634132500" lon="2.545940400">
        <ele>239.00</ele>
        <time>2013-03-02T16:43:48Z</time>
      </trkpt>
      <trkpt lat="41.634054800" lon="2.545823100">
        <ele>240.50</ele>
        <time>2013-03-02T16:43:57Z</time>
      </trkpt>
      <trkpt lat="41.634032500" lon="2.545691700">
        <ele>241.40</ele>
        <time>2013-03-02T16:44:06Z</time>
      </trkpt>
      <trkpt lat="41.634063500" lon="2.545519200">
        <ele>242.90</ele>
        <time>2013-03-02T16:44:14Z</time>
      </trkpt>
      <trkpt lat="41.634095000" lon="2.545449500">
        <ele>243.80</ele>
        <time>2013-03-02T16:44:19Z</time>
      </trkpt>
      <trkpt lat="41.634205900" lon="2.545340400">
        <ele>244.80</ele>
        <time>2013-03-02T16:44:28Z</time>
      </trkpt>
      <trkpt lat="41.634312800" lon="2.545286500">
        <ele>245.80</ele>
        <time>2013-03-02T16:44:37Z</time>
      </trkpt>
      <trkpt lat="41.634351400" lon="2.545289600">
        <ele>246.20</ele>
        <time>2013-03-02T16:44:40Z</time>
      </trkpt>
      <trkpt lat="41.634490200" lon="2.545220100">
        <ele>247.20</ele>
        <time>2013-03-02T16:44:49Z</time>
      </trkpt>
      <trkpt lat="41.634677100" lon="2.545013700">
        <ele>246.20</ele>
        <time>2013-03-02T16:44:58Z</time>
      </trkpt>
      <trkpt lat="41.634779900" lon="2.544914800">
        <ele>246.70</ele>
        <time>2013-03-02T16:45:05Z</time>
      </trkpt>
      <trkpt lat="41.634916300" lon="2.544815700">
        <ele>247.20</ele>
        <time>2013-03-02T16:45:13Z</time>
      </trkpt>
      <trkpt lat="41.634961800" lon="2.544778500">
        <ele>247.20</ele>
        <time>2013-03-02T16:45:17Z</time>
      </trkpt>
      <trkpt lat="41.635087700" lon="2.544627300">
        <ele>249.10</ele>
        <time>2013-03-02T16:45:27Z</time>
      </trkpt>
      <trkpt lat="41.635149000" lon="2.544480000">
        <ele>251.00</ele>
        <time>2013-03-02T16:45:36Z</time>
      </trkpt>
      <trkpt lat="41.635194700" lon="2.544399900">
        <ele>252.00</ele>
        <time>2013-03-02T16:45:41Z</time>
      </trkpt>
      <trkpt lat="41.635251900" lon="2.544320900">
        <ele>252.00</ele>
        <time>2013-03-02T16:45:45Z</time>
      </trkpt>
      <trkpt lat="41.635281100" lon="2.544269500">
        <ele>252.50</ele>
        <time>2013-03-02T16:45:48Z</time>
      </trkpt>
      <trkpt lat="41.635400700" lon="2.544184500">
        <ele>253.90</ele>
        <time>2013-03-02T16:45:57Z</time>
      </trkpt>
      <trkpt lat="41.635511400" lon="2.544126100">
        <ele>254.40</ele>
        <time>2013-03-02T16:46:04Z</time>
      </trkpt>
      <trkpt lat="41.635525800" lon="2.544119400">
        <ele>254.40</ele>
        <time>2013-03-02T16:46:06Z</time>
      </trkpt>
      <trkpt lat="41.635600700" lon="2.544098700">
        <ele>254.90</ele>
        <time>2013-03-02T16:46:11Z</time>
      </trkpt>
      <trkpt lat="41.635724800" lon="2.544029900">
        <ele>255.90</ele>
        <time>2013-03-02T16:46:18Z</time>
      </trkpt>
      <trkpt lat="41.635832300" lon="2.543940400">
        <ele>257.30</ele>
        <time>2013-03-02T16:46:27Z</time>
      </trkpt>
      <trkpt lat="41.635894700" lon="2.543832900">
        <ele>257.30</ele>
        <time>2013-03-02T16:46:34Z</time>
      </trkpt>
      <trkpt lat="41.635971100" lon="2.543607500">
        <ele>256.80</ele>
        <time>2013-03-02T16:46:41Z</time>
      </trkpt>
      <trkpt lat="41.636069200" lon="2.543302300">
        <ele>255.90</ele>
        <time>2013-03-02T16:46:48Z</time>
      </trkpt>
      <trkpt lat="41.636188400" lon="2.543198500">
        <ele>255.90</ele>
        <time>2013-03-02T16:46:53Z</time>
      </trkpt>
      <trkpt lat="41.636321300" lon="2.543089000">
        <ele>257.30</ele>
        <time>2013-03-02T16:47:00Z</time>
      </trkpt>
      <trkpt lat="41.636414900" lon="2.542998700">
        <ele>258.20</ele>
        <time>2013-03-02T16:47:07Z</time>
      </trkpt>
      <trkpt lat="41.636501700" lon="2.542774700">
        <ele>258.20</ele>
        <time>2013-03-02T16:47:15Z</time>
      </trkpt>
      <trkpt lat="41.636588200" lon="2.542563000">
        <ele>257.80</ele>
        <time>2013-03-02T16:47:22Z</time>
      </trkpt>
      <trkpt lat="41.636687300" lon="2.542368200">
        <ele>259.20</ele>
        <time>2013-03-02T16:47:33Z</time>
      </trkpt>
      <trkpt lat="41.636780600" lon="2.542233300">
        <ele>260.60</ele>
        <time>2013-03-02T16:47:42Z</time>
      </trkpt>
      <trkpt lat="41.636810100" lon="2.542176700">
        <ele>261.10</ele>
        <time>2013-03-02T16:47:45Z</time>
      </trkpt>
      <trkpt lat="41.636900500" lon="2.542030500">
        <ele>262.10</ele>
        <time>2013-03-02T16:47:52Z</time>
      </trkpt>
      <trkpt lat="41.636997900" lon="2.541901800">
        <ele>263.50</ele>
        <time>2013-03-02T16:48:01Z</time>
      </trkpt>
      <trkpt lat="41.637020000" lon="2.541874000">
        <ele>264.00</ele>
        <time>2013-03-02T16:48:08Z</time>
      </trkpt>
      <trkpt lat="41.637036600" lon="2.541846400">
        <ele>264.00</ele>
        <time>2013-03-02T16:48:18Z</time>
      </trkpt>
      <trkpt lat="41.637040200" lon="2.541831900">
        <ele>264.00</ele>
        <time>2013-03-02T16:48:32Z</time>
      </trkpt>
      <trkpt lat="41.637106900" lon="2.541796300">
        <ele>264.00</ele>
        <time>2013-03-02T16:49:09Z</time>
      </trkpt>
      <trkpt lat="41.637091900" lon="2.541788100">
        <ele>264.00</ele>
        <time>2013-03-02T16:49:23Z</time>
      </trkpt>
      <trkpt lat="41.637088700" lon="2.541746000">
        <ele>264.00</ele>
        <time>2013-03-02T16:49:38Z</time>
      </trkpt>
      <trkpt lat="41.637075700" lon="2.541744500">
        <ele>264.00</ele>
        <time>2013-03-02T16:49:54Z</time>
      </trkpt>
      <trkpt lat="41.637093000" lon="2.541748100">
        <ele>264.00</ele>
        <time>2013-03-02T16:50:08Z</time>
      </trkpt>
      <trkpt lat="41.637092300" lon="2.541734700">
        <ele>264.00</ele>
        <time>2013-03-02T16:50:24Z</time>
      </trkpt>
      <trkpt lat="41.637070100" lon="2.541745900">
        <ele>264.00</ele>
        <time>2013-03-02T16:50:37Z</time>
      </trkpt>
      <trkpt lat="41.637057700" lon="2.541719200">
        <ele>264.00</ele>
        <time>2013-03-02T16:50:44Z</time>
      </trkpt>
      <trkpt lat="41.637090200" lon="2.541700500">
        <ele>264.50</ele>
        <time>2013-03-02T16:50:51Z</time>
      </trkpt>
      <trkpt lat="41.637086200" lon="2.541701600">
        <ele>264.50</ele>
        <time>2013-03-02T16:51:05Z</time>
      </trkpt>
      <trkpt lat="41.637089800" lon="2.541695500">
        <ele>265.00</ele>
        <time>2013-03-02T16:51:05Z</time>
      </trkpt>
      <trkpt lat="41.637132700" lon="2.541654200">
        <ele>265.50</ele>
        <time>2013-03-02T16:51:12Z</time>
      </trkpt>
      <trkpt lat="41.637155600" lon="2.541610700">
        <ele>266.40</ele>
        <time>2013-03-02T16:51:16Z</time>
      </trkpt>
      <trkpt lat="41.637238100" lon="2.541499700">
        <ele>268.80</ele>
        <time>2013-03-02T16:51:24Z</time>
      </trkpt>
      <trkpt lat="41.637246300" lon="2.541488200">
        <ele>268.80</ele>
        <time>2013-03-02T16:51:26Z</time>
      </trkpt>
      <trkpt lat="41.637295800" lon="2.541423500">
        <ele>269.80</ele>
        <time>2013-03-02T16:51:30Z</time>
      </trkpt>
      <trkpt lat="41.637369900" lon="2.541332700">
        <ele>270.80</ele>
        <time>2013-03-02T16:51:37Z</time>
      </trkpt>
      <trkpt lat="41.637414200" lon="2.541278800">
        <ele>271.70</ele>
        <time>2013-03-02T16:51:42Z</time>
      </trkpt>
      <trkpt lat="41.637491400" lon="2.541195800">
        <ele>272.20</ele>
        <time>2013-03-02T16:51:49Z</time>
      </trkpt>
      <trkpt lat="41.637569600" lon="2.541089500">
        <ele>273.10</ele>
        <time>2013-03-02T16:51:56Z</time>
      </trkpt>
      <trkpt lat="41.637629800" lon="2.541028700">
        <ele>274.10</ele>
        <time>2013-03-02T16:52:03Z</time>
      </trkpt>
      <trkpt lat="41.637687800" lon="2.540967000">
        <ele>275.10</ele>
        <time>2013-03-02T16:52:08Z</time>
      </trkpt>
      <trkpt lat="41.637752400" lon="2.540890300">
        <ele>275.60</ele>
        <time>2013-03-02T16:52:15Z</time>
      </trkpt>
      <trkpt lat="41.637849500" lon="2.540746400">
        <ele>276.50</ele>
        <time>2013-03-02T16:52:24Z</time>
      </trkpt>
      <trkpt lat="41.637919700" lon="2.540638000">
        <ele>278.00</ele>
        <time>2013-03-02T16:52:32Z</time>
      </trkpt>
      <trkpt lat="41.637976600" lon="2.540530000">
        <ele>278.90</ele>
        <time>2013-03-02T16:52:41Z</time>
      </trkpt>
      <trkpt lat="41.638035000" lon="2.540455100">
        <ele>280.40</ele>
        <time>2013-03-02T16:52:48Z</time>
      </trkpt>
      <trkpt lat="41.638069400" lon="2.540401200">
        <ele>281.80</ele>
        <time>2013-03-02T16:52:53Z</time>
      </trkpt>
      <trkpt lat="41.638112200" lon="2.540332500">
        <ele>283.20</ele>
        <time>2013-03-02T16:53:00Z</time>
      </trkpt>
      <trkpt lat="41.638196600" lon="2.540263100">
        <ele>283.70</ele>
        <time>2013-03-02T16:53:05Z</time>
      </trkpt>
      <trkpt lat="41.638285800" lon="2.540182700">
        <ele>285.20</ele>
        <time>2013-03-02T16:53:14Z</time>
      </trkpt>
      <trkpt lat="41.638359900" lon="2.540084600">
        <ele>286.60</ele>
        <time>2013-03-02T16:53:21Z</time>
      </trkpt>
      <trkpt lat="41.638393600" lon="2.539952100">
        <ele>288.00</ele>
        <time>2013-03-02T16:53:30Z</time>
      </trkpt>
      <trkpt lat="41.638426900" lon="2.539797900">
        <ele>289.50</ele>
        <time>2013-03-02T16:53:37Z</time>
      </trkpt>
      <trkpt lat="41.638470400" lon="2.539708800">
        <ele>290.50</ele>
        <time>2013-03-02T16:53:44Z</time>
      </trkpt>
      <trkpt lat="41.638550400" lon="2.539647900">
        <ele>291.40</ele>
        <time>2013-03-02T16:53:51Z</time>
      </trkpt>
      <trkpt lat="41.638661100" lon="2.539568200">
        <ele>292.40</ele>
        <time>2013-03-02T16:54:01Z</time>
      </trkpt>
      <trkpt lat="41.638768300" lon="2.539474100">
        <ele>294.30</ele>
        <time>2013-03-02T16:54:10Z</time>
      </trkpt>
      <trkpt lat="41.638856900" lon="2.539384500">
        <ele>295.70</ele>
        <time>2013-03-02T16:54:19Z</time>
      </trkpt>
      <trkpt lat="41.638957800" lon="2.539299700">
        <ele>298.60</ele>
        <time>2013-03-02T16:54:29Z</time>
      </trkpt>
      <trkpt lat="41.638975900" lon="2.539269500">
        <ele>299.10</ele>
        <time>2013-03-02T16:54:31Z</time>
      </trkpt>
      <trkpt lat="41.638987800" lon="2.539350100">
        <ele>300.50</ele>
        <time>2013-03-02T16:54:38Z</time>
      </trkpt>
      <trkpt lat="41.638973800" lon="2.539433200">
        <ele>301.00</ele>
        <time>2013-03-02T16:54:45Z</time>
      </trkpt>
      <trkpt lat="41.638933400" lon="2.539549000">
        <ele>302.50</ele>
        <time>2013-03-02T16:54:55Z</time>
      </trkpt>
      <trkpt lat="41.638872400" lon="2.539660100">
        <ele>303.90</ele>
        <time>2013-03-02T16:55:04Z</time>
      </trkpt>
      <trkpt lat="41.638813700" lon="2.539772300">
        <ele>305.80</ele>
        <time>2013-03-02T16:55:13Z</time>
      </trkpt>
      <trkpt lat="41.638788500" lon="2.539870300">
        <ele>306.30</ele>
        <time>2013-03-02T16:55:18Z</time>
      </trkpt>
      <trkpt lat="41.638792400" lon="2.539907200">
        <ele>306.30</ele>
        <time>2013-03-02T16:55:20Z</time>
      </trkpt>
      <trkpt lat="41.638762500" lon="2.540047500">
        <ele>308.20</ele>
        <time>2013-03-02T16:55:28Z</time>
      </trkpt>
      <trkpt lat="41.638723100" lon="2.540175200">
        <ele>309.20</ele>
        <time>2013-03-02T16:55:37Z</time>
      </trkpt>
      <trkpt lat="41.638717900" lon="2.540240000">
        <ele>310.20</ele>
        <time>2013-03-02T16:55:41Z</time>
      </trkpt>
      <trkpt lat="41.638698900" lon="2.540301700">
        <ele>311.10</ele>
        <time>2013-03-02T16:55:44Z</time>
      </trkpt>
      <trkpt lat="41.638677800" lon="2.540455700">
        <ele>312.60</ele>
        <time>2013-03-02T16:55:53Z</time>
      </trkpt>
      <trkpt lat="41.638710400" lon="2.540601900">
        <ele>313.00</ele>
        <time>2013-03-02T16:56:01Z</time>
      </trkpt>
      <trkpt lat="41.638729400" lon="2.540678300">
        <ele>314.00</ele>
        <time>2013-03-02T16:56:05Z</time>
      </trkpt>
      <trkpt lat="41.638739100" lon="2.540813700">
        <ele>314.50</ele>
        <time>2013-03-02T16:56:14Z</time>
      </trkpt>
      <trkpt lat="41.638707600" lon="2.540992100">
        <ele>315.50</ele>
        <time>2013-03-02T16:56:24Z</time>
      </trkpt>
      <trkpt lat="41.638654200" lon="2.541131700">
        <ele>316.90</ele>
        <time>2013-03-02T16:56:33Z</time>
      </trkpt>
      <trkpt lat="41.638635600" lon="2.541278200">
        <ele>317.90</ele>
        <time>2013-03-02T16:56:42Z</time>
      </trkpt>
      <trkpt lat="41.638636100" lon="2.541391800">
        <ele>319.30</ele>
        <time>2013-03-02T16:56:48Z</time>
      </trkpt>
      <trkpt lat="41.638632800" lon="2.541518600">
        <ele>320.70</ele>
        <time>2013-03-02T16:56:55Z</time>
      </trkpt>
      <trkpt lat="41.638587300" lon="2.541657800">
        <ele>321.70</ele>
        <time>2013-03-02T16:57:04Z</time>
      </trkpt>
      <trkpt lat="41.638495200" lon="2.541805300">
        <ele>321.20</ele>
        <time>2013-03-02T16:57:11Z</time>
      </trkpt>
      <trkpt lat="41.638370000" lon="2.542039300">
        <ele>318.30</ele>
        <time>2013-03-02T16:57:16Z</time>
      </trkpt>
      <trkpt lat="41.638320000" lon="2.542304900">
        <ele>317.40</ele>
        <time>2013-03-02T16:57:23Z</time>
      </trkpt>
      <trkpt lat="41.638314900" lon="2.542391200">
        <ele>317.40</ele>
        <time>2013-03-02T16:57:27Z</time>
      </trkpt>
      <trkpt lat="41.638247900" lon="2.542546200">
        <ele>317.90</ele>
        <time>2013-03-02T16:57:34Z</time>
      </trkpt>
      <trkpt lat="41.638173500" lon="2.542689000">
        <ele>318.80</ele>
        <time>2013-03-02T16:57:41Z</time>
      </trkpt>
      <trkpt lat="41.638069400" lon="2.542787100">
        <ele>319.30</ele>
        <time>2013-03-02T16:57:48Z</time>
      </trkpt>
      <trkpt lat="41.638012900" lon="2.542850600">
        <ele>319.80</ele>
        <time>2013-03-02T16:57:53Z</time>
      </trkpt>
      <trkpt lat="41.638050200" lon="2.542903700">
        <ele>320.70</ele>
        <time>2013-03-02T16:57:58Z</time>
      </trkpt>
      <trkpt lat="41.638064700" lon="2.542901800">
        <ele>321.20</ele>
        <time>2013-03-02T16:57:58Z</time>
      </trkpt>
      <trkpt lat="41.638203300" lon="2.542818400">
        <ele>321.70</ele>
        <time>2013-03-02T16:58:09Z</time>
      </trkpt>
      <trkpt lat="41.638319400" lon="2.542707000">
        <ele>323.10</ele>
        <time>2013-03-02T16:58:17Z</time>
      </trkpt>
      <trkpt lat="41.638375600" lon="2.542626400">
        <ele>324.10</ele>
        <time>2013-03-02T16:58:24Z</time>
      </trkpt>
      <trkpt lat="41.638447100" lon="2.542504600">
        <ele>326.00</ele>
        <time>2013-03-02T16:58:31Z</time>
      </trkpt>
      <trkpt lat="41.638489400" lon="2.542369500">
        <ele>327.50</ele>
        <time>2013-03-02T16:58:40Z</time>
      </trkpt>
      <trkpt lat="41.638528700" lon="2.542228700">
        <ele>328.40</ele>
        <time>2013-03-02T16:58:47Z</time>
      </trkpt>
      <trkpt lat="41.638533500" lon="2.542209400">
        <ele>328.90</ele>
        <time>2013-03-02T16:58:49Z</time>
      </trkpt>
      <trkpt lat="41.638585300" lon="2.541975900">
        <ele>329.90</ele>
        <time>2013-03-02T16:58:59Z</time>
      </trkpt>
      <trkpt lat="41.638677400" lon="2.541765300">
        <ele>329.90</ele>
        <time>2013-03-02T16:59:08Z</time>
      </trkpt>
      <trkpt lat="41.638772800" lon="2.541616000">
        <ele>330.80</ele>
        <time>2013-03-02T16:59:17Z</time>
      </trkpt>
      <trkpt lat="41.638869800" lon="2.541530400">
        <ele>332.30</ele>
        <time>2013-03-02T16:59:25Z</time>
      </trkpt>
      <trkpt lat="41.638962900" lon="2.541359000">
        <ele>332.80</ele>
        <time>2013-03-02T16:59:34Z</time>
      </trkpt>
      <trkpt lat="41.639039600" lon="2.541175300">
        <ele>332.80</ele>
        <time>2013-03-02T16:59:41Z</time>
      </trkpt>
      <trkpt lat="41.639133100" lon="2.541046400">
        <ele>333.20</ele>
        <time>2013-03-02T16:59:50Z</time>
      </trkpt>
      <trkpt lat="41.639246100" lon="2.540946900">
        <ele>334.70</ele>
        <time>2013-03-02T16:59:58Z</time>
      </trkpt>
      <trkpt lat="41.639256800" lon="2.540933200">
        <ele>335.20</ele>
        <time>2013-03-02T17:00:00Z</time>
      </trkpt>
      <trkpt lat="41.639327900" lon="2.540859100">
        <ele>336.60</ele>
        <time>2013-03-02T17:00:05Z</time>
      </trkpt>
      <trkpt lat="41.639408500" lon="2.540728700">
        <ele>338.50</ele>
        <time>2013-03-02T17:00:14Z</time>
      </trkpt>
      <trkpt lat="41.639459700" lon="2.540629300">
        <ele>339.00</ele>
        <time>2013-03-02T17:00:21Z</time>
      </trkpt>
      <trkpt lat="41.639528000" lon="2.540488800">
        <ele>339.50</ele>
        <time>2013-03-02T17:00:28Z</time>
      </trkpt>
      <trkpt lat="41.639621900" lon="2.540348500">
        <ele>340.90</ele>
        <time>2013-03-02T17:00:37Z</time>
      </trkpt>
      <trkpt lat="41.639719400" lon="2.540269200">
        <ele>341.90</ele>
        <time>2013-03-02T17:00:45Z</time>
      </trkpt>
      <trkpt lat="41.639785200" lon="2.540192900">
        <ele>342.40</ele>
        <time>2013-03-02T17:00:52Z</time>
      </trkpt>
      <trkpt lat="41.639893300" lon="2.540035600">
        <ele>343.80</ele>
        <time>2013-03-02T17:01:03Z</time>
      </trkpt>
      <trkpt lat="41.639993000" lon="2.539910200">
        <ele>345.20</ele>
        <time>2013-03-02T17:01:13Z</time>
      </trkpt>
      <trkpt lat="41.640032600" lon="2.539855800">
        <ele>345.20</ele>
        <time>2013-03-02T17:01:17Z</time>
      </trkpt>
      <trkpt lat="41.640116800" lon="2.539763100">
        <ele>346.20</ele>
        <time>2013-03-02T17:01:25Z</time>
      </trkpt>
      <trkpt lat="41.640150500" lon="2.539724600">
        <ele>347.20</ele>
        <time>2013-03-02T17:01:29Z</time>
      </trkpt>
      <trkpt lat="41.640232000" lon="2.539622900">
        <ele>349.10</ele>
        <time>2013-03-02T17:01:38Z</time>
      </trkpt>
      <trkpt lat="41.640252400" lon="2.539601500">
        <ele>349.60</ele>
        <time>2013-03-02T17:01:41Z</time>
      </trkpt>
      <trkpt lat="41.640269300" lon="2.539576500">
        <ele>349.60</ele>
        <time>2013-03-02T17:01:43Z</time>
      </trkpt>
      <trkpt lat="41.640316500" lon="2.539536600">
        <ele>350.50</ele>
        <time>2013-03-02T17:01:46Z</time>
      </trkpt>
      <trkpt lat="41.640400400" lon="2.539431700">
        <ele>352.00</ele>
        <time>2013-03-02T17:01:55Z</time>
      </trkpt>
      <trkpt lat="41.640499900" lon="2.539328400">
        <ele>354.40</ele>
        <time>2013-03-02T17:02:05Z</time>
      </trkpt>
      <trkpt lat="41.640595300" lon="2.539219300">
        <ele>355.80</ele>
        <time>2013-03-02T17:02:16Z</time>
      </trkpt>
      <trkpt lat="41.640630900" lon="2.539163600">
        <ele>357.30</ele>
        <time>2013-03-02T17:02:19Z</time>
      </trkpt>
      <trkpt lat="41.640657100" lon="2.539133400">
        <ele>357.80</ele>
        <time>2013-03-02T17:02:23Z</time>
      </trkpt>
      <trkpt lat="41.640699400" lon="2.539060900">
        <ele>358.70</ele>
        <time>2013-03-02T17:02:28Z</time>
      </trkpt>
      <trkpt lat="41.640719700" lon="2.539047900">
        <ele>358.70</ele>
        <time>2013-03-02T17:02:30Z</time>
      </trkpt>
      <trkpt lat="41.640783100" lon="2.538970600">
        <ele>360.10</ele>
        <time>2013-03-02T17:02:37Z</time>
      </trkpt>
      <trkpt lat="41.640847700" lon="2.538894400">
        <ele>361.10</ele>
        <time>2013-03-02T17:02:44Z</time>
      </trkpt>
      <trkpt lat="41.640912700" lon="2.538786200">
        <ele>362.50</ele>
        <time>2013-03-02T17:02:51Z</time>
      </trkpt>
      <trkpt lat="41.641001300" lon="2.538668100">
        <ele>363.50</ele>
        <time>2013-03-02T17:02:59Z</time>
      </trkpt>
      <trkpt lat="41.641058700" lon="2.538553900">
        <ele>365.00</ele>
        <time>2013-03-02T17:03:08Z</time>
      </trkpt>
      <trkpt lat="41.641099000" lon="2.538469600">
        <ele>365.90</ele>
        <time>2013-03-02T17:03:13Z</time>
      </trkpt>
      <trkpt lat="41.641139000" lon="2.538344100">
        <ele>366.40</ele>
        <time>2013-03-02T17:03:22Z</time>
      </trkpt>
      <trkpt lat="41.641149800" lon="2.538269800">
        <ele>367.40</ele>
        <time>2013-03-02T17:03:27Z</time>
      </trkpt>
      <trkpt lat="41.641142000" lon="2.538146600">
        <ele>367.80</ele>
        <time>2013-03-02T17:03:34Z</time>
      </trkpt>
      <trkpt lat="41.641153600" lon="2.538030800">
        <ele>368.80</ele>
        <time>2013-03-02T17:03:41Z</time>
      </trkpt>
      <trkpt lat="41.641176300" lon="2.537849600">
        <ele>368.80</ele>
        <time>2013-03-02T17:03:50Z</time>
      </trkpt>
      <trkpt lat="41.641186700" lon="2.537748800">
        <ele>369.80</ele>
        <time>2013-03-02T17:03:57Z</time>
      </trkpt>
      <trkpt lat="41.641192400" lon="2.537653900">
        <ele>369.80</ele>
        <time>2013-03-02T17:04:02Z</time>
      </trkpt>
      <trkpt lat="41.641220400" lon="2.537406900">
        <ele>369.80</ele>
        <time>2013-03-02T17:04:11Z</time>
      </trkpt>
      <trkpt lat="41.641210600" lon="2.537207300">
        <ele>369.80</ele>
        <time>2013-03-02T17:04:18Z</time>
      </trkpt>
      <trkpt lat="41.641163900" lon="2.537046100">
        <ele>370.20</ele>
        <time>2013-03-02T17:04:25Z</time>
      </trkpt>
      <trkpt lat="41.641111100" lon="2.536882800">
        <ele>370.70</ele>
        <time>2013-03-02T17:04:32Z</time>
      </trkpt>
      <trkpt lat="41.641072800" lon="2.536676300">
        <ele>370.70</ele>
        <time>2013-03-02T17:04:42Z</time>
      </trkpt>
      <trkpt lat="41.641040600" lon="2.536488500">
        <ele>371.20</ele>
        <time>2013-03-02T17:04:51Z</time>
      </trkpt>
      <trkpt lat="41.641026000" lon="2.536306600">
        <ele>371.70</ele>
        <time>2013-03-02T17:04:58Z</time>
      </trkpt>
      <trkpt lat="41.641024000" lon="2.536156800">
        <ele>372.60</ele>
        <time>2013-03-02T17:05:05Z</time>
      </trkpt>
      <trkpt lat="41.641010100" lon="2.536019200">
        <ele>374.10</ele>
        <time>2013-03-02T17:05:14Z</time>
      </trkpt>
      <trkpt lat="41.641000800" lon="2.535840300">
        <ele>375.50</ele>
        <time>2013-03-02T17:05:24Z</time>
      </trkpt>
      <trkpt lat="41.640998000" lon="2.535740800">
        <ele>377.00</ele>
        <time>2013-03-02T17:05:29Z</time>
      </trkpt>
      <trkpt lat="41.640992600" lon="2.535709200">
        <ele>377.50</ele>
        <time>2013-03-02T17:05:31Z</time>
      </trkpt>
      <trkpt lat="41.640991300" lon="2.535591600">
        <ele>378.40</ele>
        <time>2013-03-02T17:05:38Z</time>
      </trkpt>
      <trkpt lat="41.640983800" lon="2.535520200">
        <ele>379.40</ele>
        <time>2013-03-02T17:05:42Z</time>
      </trkpt>
      <trkpt lat="41.641022300" lon="2.535502700">
        <ele>380.30</ele>
        <time>2013-03-02T17:05:47Z</time>
      </trkpt>
      <trkpt lat="41.641037200" lon="2.535527400">
        <ele>380.80</ele>
        <time>2013-03-02T17:05:50Z</time>
      </trkpt>
      <trkpt lat="41.641079700" lon="2.535607400">
        <ele>381.80</ele>
        <time>2013-03-02T17:05:55Z</time>
      </trkpt>
      <trkpt lat="41.641142700" lon="2.535745100">
        <ele>381.80</ele>
        <time>2013-03-02T17:06:04Z</time>
      </trkpt>
      <trkpt lat="41.641161200" lon="2.535780200">
        <ele>382.30</ele>
        <time>2013-03-02T17:06:06Z</time>
      </trkpt>
      <trkpt lat="41.641197500" lon="2.535876600">
        <ele>382.30</ele>
        <time>2013-03-02T17:06:11Z</time>
      </trkpt>
      <trkpt lat="41.641262100" lon="2.536078000">
        <ele>383.70</ele>
        <time>2013-03-02T17:06:22Z</time>
      </trkpt>
      <trkpt lat="41.641302700" lon="2.536221600">
        <ele>384.70</ele>
        <time>2013-03-02T17:06:30Z</time>
      </trkpt>
      <trkpt lat="41.641354900" lon="2.536407900">
        <ele>386.10</ele>
        <time>2013-03-02T17:06:39Z</time>
      </trkpt>
      <trkpt lat="41.641404200" lon="2.536584600">
        <ele>387.50</ele>
        <time>2013-03-02T17:06:48Z</time>
      </trkpt>
      <trkpt lat="41.641416200" lon="2.536619500">
        <ele>387.50</ele>
        <time>2013-03-02T17:06:51Z</time>
      </trkpt>
      <trkpt lat="41.641499500" lon="2.536779700">
        <ele>388.50</ele>
        <time>2013-03-02T17:07:00Z</time>
      </trkpt>
      <trkpt lat="41.641581600" lon="2.536882500">
        <ele>390.00</ele>
        <time>2013-03-02T17:07:07Z</time>
      </trkpt>
      <trkpt lat="41.641632500" lon="2.537058200">
        <ele>390.00</ele>
        <time>2013-03-02T17:07:17Z</time>
      </trkpt>
      <trkpt lat="41.641592100" lon="2.537260800">
        <ele>390.00</ele>
        <time>2013-03-02T17:07:24Z</time>
      </trkpt>
      <trkpt lat="41.641577800" lon="2.537420100">
        <ele>390.00</ele>
        <time>2013-03-02T17:07:28Z</time>
      </trkpt>
      <trkpt lat="41.641585200" lon="2.537719800">
        <ele>390.40</ele>
        <time>2013-03-02T17:07:38Z</time>
      </trkpt>
      <trkpt lat="41.641626000" lon="2.537996000">
        <ele>391.40</ele>
        <time>2013-03-02T17:07:49Z</time>
      </trkpt>
      <trkpt lat="41.641738900" lon="2.538199500">
        <ele>391.40</ele>
        <time>2013-03-02T17:07:57Z</time>
      </trkpt>
      <trkpt lat="41.641893000" lon="2.538414300">
        <ele>390.90</ele>
        <time>2013-03-02T17:08:03Z</time>
      </trkpt>
      <trkpt lat="41.642099300" lon="2.538525300">
        <ele>390.00</ele>
        <time>2013-03-02T17:08:08Z</time>
      </trkpt>
      <trkpt lat="41.642179500" lon="2.538543800">
        <ele>390.40</ele>
        <time>2013-03-02T17:08:13Z</time>
      </trkpt>
      <trkpt lat="41.642187000" lon="2.538516300">
        <ele>390.40</ele>
        <time>2013-03-02T17:08:22Z</time>
      </trkpt>
      <trkpt lat="41.642205300" lon="2.538529200">
        <ele>390.40</ele>
        <time>2013-03-02T17:08:34Z</time>
      </trkpt>
      <trkpt lat="41.642196900" lon="2.538530600">
        <ele>390.40</ele>
        <time>2013-03-02T17:08:48Z</time>
      </trkpt>
      <trkpt lat="41.642197000" lon="2.538505000">
        <ele>390.40</ele>
        <time>2013-03-02T17:08:58Z</time>
      </trkpt>
      <trkpt lat="41.642201000" lon="2.538494200">
        <ele>390.40</ele>
        <time>2013-03-02T17:09:07Z</time>
      </trkpt>
      <trkpt lat="41.642215600" lon="2.538492000">
        <ele>390.00</ele>
        <time>2013-03-02T17:09:19Z</time>
      </trkpt>
      <trkpt lat="41.642236200" lon="2.538512100">
        <ele>390.40</ele>
        <time>2013-03-02T17:09:35Z</time>
      </trkpt>
      <trkpt lat="41.642237200" lon="2.538521800">
        <ele>390.40</ele>
        <time>2013-03-02T17:09:45Z</time>
      </trkpt>
      <trkpt lat="41.642257900" lon="2.538525000">
        <ele>390.00</ele>
        <time>2013-03-02T17:10:01Z</time>
      </trkpt>
      <trkpt lat="41.642252800" lon="2.538538700">
        <ele>390.40</ele>
        <time>2013-03-02T17:10:06Z</time>
      </trkpt>
      <trkpt lat="41.642266000" lon="2.538550500">
        <ele>390.40</ele>
        <time>2013-03-02T17:10:10Z</time>
      </trkpt>
      <trkpt lat="41.642312400" lon="2.538544200">
        <ele>390.90</ele>
        <time>2013-03-02T17:10:15Z</time>
      </trkpt>
      <trkpt lat="41.642461600" lon="2.538571700">
        <ele>391.90</ele>
        <time>2013-03-02T17:10:24Z</time>
      </trkpt>
      <trkpt lat="41.642583900" lon="2.538693100">
        <ele>392.40</ele>
        <time>2013-03-02T17:10:31Z</time>
      </trkpt>
      <trkpt lat="41.642728300" lon="2.538822600">
        <ele>391.40</ele>
        <time>2013-03-02T17:10:36Z</time>
      </trkpt>
      <trkpt lat="41.642863100" lon="2.538923600">
        <ele>390.90</ele>
        <time>2013-03-02T17:10:41Z</time>
      </trkpt>
      <trkpt lat="41.642933300" lon="2.538978900">
        <ele>390.90</ele>
        <time>2013-03-02T17:10:43Z</time>
      </trkpt>
      <trkpt lat="41.643157500" lon="2.539082500">
        <ele>388.50</ele>
        <time>2013-03-02T17:10:48Z</time>
      </trkpt>
      <trkpt lat="41.643195000" lon="2.539112100">
        <ele>388.00</ele>
        <time>2013-03-02T17:10:48Z</time>
      </trkpt>
      <trkpt lat="41.643355200" lon="2.539334400">
        <ele>385.10</ele>
        <time>2013-03-02T17:10:53Z</time>
      </trkpt>
      <trkpt lat="41.643439900" lon="2.539432400">
        <ele>383.70</ele>
        <time>2013-03-02T17:10:55Z</time>
      </trkpt>
      <trkpt lat="41.643490700" lon="2.539466600">
        <ele>383.20</ele>
        <time>2013-03-02T17:10:55Z</time>
      </trkpt>
      <trkpt lat="41.643748700" lon="2.539607500">
        <ele>378.90</ele>
        <time>2013-03-02T17:11:00Z</time>
      </trkpt>
      <trkpt lat="41.643775700" lon="2.539622300">
        <ele>378.40</ele>
        <time>2013-03-02T17:11:02Z</time>
      </trkpt>
      <trkpt lat="41.643880800" lon="2.539727400">
        <ele>377.50</ele>
        <time>2013-03-02T17:11:06Z</time>
      </trkpt>
      <trkpt lat="41.644014000" lon="2.539894800">
        <ele>375.50</ele>
        <time>2013-03-02T17:11:09Z</time>
      </trkpt>
      <trkpt lat="41.644164000" lon="2.540009900">
        <ele>372.20</ele>
        <time>2013-03-02T17:11:14Z</time>
      </trkpt>
      <trkpt lat="41.644201500" lon="2.540002000">
        <ele>370.70</ele>
        <time>2013-03-02T17:11:16Z</time>
      </trkpt>
      <trkpt lat="41.644321200" lon="2.539888900">
        <ele>367.40</ele>
        <time>2013-03-02T17:11:23Z</time>
      </trkpt>
      <trkpt lat="41.644424300" lon="2.539840900">
        <ele>364.50</ele>
        <time>2013-03-02T17:11:30Z</time>
      </trkpt>
      <trkpt lat="41.644518800" lon="2.539837700">
        <ele>362.10</ele>
        <time>2013-03-02T17:11:33Z</time>
      </trkpt>
      <trkpt lat="41.644652200" lon="2.539871300">
        <ele>358.70</ele>
        <time>2013-03-02T17:11:39Z</time>
      </trkpt>
      <trkpt lat="41.644724200" lon="2.539879500">
        <ele>358.20</ele>
        <time>2013-03-02T17:11:40Z</time>
      </trkpt>
      <trkpt lat="41.644902900" lon="2.539965800">
        <ele>356.80</ele>
        <time>2013-03-02T17:11:44Z</time>
      </trkpt>
      <trkpt lat="41.645209500" lon="2.540118000">
        <ele>353.90</ele>
        <time>2013-03-02T17:11:51Z</time>
      </trkpt>
      <trkpt lat="41.645414200" lon="2.540172200">
        <ele>351.50</ele>
        <time>2013-03-02T17:11:56Z</time>
      </trkpt>
      <trkpt lat="41.645490400" lon="2.540164600">
        <ele>351.00</ele>
        <time>2013-03-02T17:11:58Z</time>
      </trkpt>
      <trkpt lat="41.645587800" lon="2.539981200">
        <ele>348.10</ele>
        <time>2013-03-02T17:12:03Z</time>
      </trkpt>
      <trkpt lat="41.645644000" lon="2.539816700">
        <ele>345.70</ele>
        <time>2013-03-02T17:12:05Z</time>
      </trkpt>
      <trkpt lat="41.645704800" lon="2.539502600">
        <ele>341.90</ele>
        <time>2013-03-02T17:12:10Z</time>
      </trkpt>
      <trkpt lat="41.645694900" lon="2.539361500">
        <ele>339.00</ele>
        <time>2013-03-02T17:12:12Z</time>
      </trkpt>
      <trkpt lat="41.645726700" lon="2.539122600">
        <ele>334.70</ele>
        <time>2013-03-02T17:12:17Z</time>
      </trkpt>
      <trkpt lat="41.645679000" lon="2.538850000">
        <ele>329.90</ele>
        <time>2013-03-02T17:12:22Z</time>
      </trkpt>
      <trkpt lat="41.645608000" lon="2.538672100">
        <ele>326.00</ele>
        <time>2013-03-02T17:12:24Z</time>
      </trkpt>
      <trkpt lat="41.645601700" lon="2.538626100">
        <ele>325.50</ele>
        <time>2013-03-02T17:12:26Z</time>
      </trkpt>
      <trkpt lat="41.645629700" lon="2.538418400">
        <ele>322.20</ele>
        <time>2013-03-02T17:12:29Z</time>
      </trkpt>
      <trkpt lat="41.645696600" lon="2.538167500">
        <ele>318.80</ele>
        <time>2013-03-02T17:12:31Z</time>
      </trkpt>
      <trkpt lat="41.645853500" lon="2.537864200">
        <ele>314.00</ele>
        <time>2013-03-02T17:12:36Z</time>
      </trkpt>
      <trkpt lat="41.646009600" lon="2.537578400">
        <ele>309.20</ele>
        <time>2013-03-02T17:12:38Z</time>
      </trkpt>
      <trkpt lat="41.646060400" lon="2.537492000">
        <ele>308.20</ele>
        <time>2013-03-02T17:12:40Z</time>
      </trkpt>
      <trkpt lat="41.646237800" lon="2.537301300">
        <ele>305.40</ele>
        <time>2013-03-02T17:12:43Z</time>
      </trkpt>
      <trkpt lat="41.646482600" lon="2.536884600">
        <ele>301.50</ele>
        <time>2013-03-02T17:12:48Z</time>
      </trkpt>
      <trkpt lat="41.646546600" lon="2.536709400">
        <ele>300.10</ele>
        <time>2013-03-02T17:12:50Z</time>
      </trkpt>
      <trkpt lat="41.646833300" lon="2.536286000">
        <ele>295.30</ele>
        <time>2013-03-02T17:12:55Z</time>
      </trkpt>
      <trkpt lat="41.646900500" lon="2.536211400">
        <ele>294.30</ele>
        <time>2013-03-02T17:12:55Z</time>
      </trkpt>
      <trkpt lat="41.647126300" lon="2.535828900">
        <ele>290.00</ele>
        <time>2013-03-02T17:13:00Z</time>
      </trkpt>
      <trkpt lat="41.647257400" lon="2.535436600">
        <ele>287.10</ele>
        <time>2013-03-02T17:13:06Z</time>
      </trkpt>
      <trkpt lat="41.647322400" lon="2.535248800">
        <ele>286.10</ele>
        <time>2013-03-02T17:13:07Z</time>
      </trkpt>
      <trkpt lat="41.647511600" lon="2.534827900">
        <ele>282.30</ele>
        <time>2013-03-02T17:13:13Z</time>
      </trkpt>
      <trkpt lat="41.647586500" lon="2.534531300">
        <ele>278.40</ele>
        <time>2013-03-02T17:13:16Z</time>
      </trkpt>
      <trkpt lat="41.647616600" lon="2.534315700">
        <ele>277.00</ele>
        <time>2013-03-02T17:13:18Z</time>
      </trkpt>
      <trkpt lat="41.647583800" lon="2.533829200">
        <ele>272.70</ele>
        <time>2013-03-02T17:13:23Z</time>
      </trkpt>
      <trkpt lat="41.647573800" lon="2.533725700">
        <ele>271.70</ele>
        <time>2013-03-02T17:13:25Z</time>
      </trkpt>
      <trkpt lat="41.647432800" lon="2.533425700">
        <ele>270.30</ele>
        <time>2013-03-02T17:13:30Z</time>
      </trkpt>
      <trkpt lat="41.647363000" lon="2.533348100">
        <ele>270.30</ele>
        <time>2013-03-02T17:13:32Z</time>
      </trkpt>
      <trkpt lat="41.647281100" lon="2.533159800">
        <ele>269.80</ele>
        <time>2013-03-02T17:13:35Z</time>
      </trkpt>
      <trkpt lat="41.647230900" lon="2.532853400">
        <ele>268.80</ele>
        <time>2013-03-02T17:13:42Z</time>
      </trkpt>
      <trkpt lat="41.647249200" lon="2.532602100">
        <ele>268.40</ele>
        <time>2013-03-02T17:13:46Z</time>
      </trkpt>
      <trkpt lat="41.647265100" lon="2.532468400">
        <ele>268.40</ele>
        <time>2013-03-02T17:13:47Z</time>
      </trkpt>
      <trkpt lat="41.647289800" lon="2.531870800">
        <ele>265.90</ele>
        <time>2013-03-02T17:13:56Z</time>
      </trkpt>
      <trkpt lat="41.647295900" lon="2.531713700">
        <ele>265.00</ele>
        <time>2013-03-02T17:13:58Z</time>
      </trkpt>
      <trkpt lat="41.647269300" lon="2.531461500">
        <ele>263.10</ele>
        <time>2013-03-02T17:14:00Z</time>
      </trkpt>
      <trkpt lat="41.647293600" lon="2.531067300">
        <ele>259.20</ele>
        <time>2013-03-02T17:14:05Z</time>
      </trkpt>
      <trkpt lat="41.647299600" lon="2.531019400">
        <ele>259.20</ele>
        <time>2013-03-02T17:14:07Z</time>
      </trkpt>
      <trkpt lat="41.647295800" lon="2.530876400">
        <ele>259.20</ele>
        <time>2013-03-02T17:14:12Z</time>
      </trkpt>
      <trkpt lat="41.647271500" lon="2.530726000">
        <ele>259.20</ele>
        <time>2013-03-02T17:14:17Z</time>
      </trkpt>
      <trkpt lat="41.647272300" lon="2.530642500">
        <ele>259.20</ele>
        <time>2013-03-02T17:14:19Z</time>
      </trkpt>
      <trkpt lat="41.647243600" lon="2.530279000">
        <ele>258.20</ele>
        <time>2013-03-02T17:14:26Z</time>
      </trkpt>
      <trkpt lat="41.647240400" lon="2.530097200">
        <ele>257.80</ele>
        <time>2013-03-02T17:14:29Z</time>
      </trkpt>
      <trkpt lat="41.647222700" lon="2.529929400">
        <ele>257.80</ele>
        <time>2013-03-02T17:14:31Z</time>
      </trkpt>
      <trkpt lat="41.647088700" lon="2.529623300">
        <ele>258.70</ele>
        <time>2013-03-02T17:14:40Z</time>
      </trkpt>
      <trkpt lat="41.646968600" lon="2.529320300">
        <ele>258.20</ele>
        <time>2013-03-02T17:14:47Z</time>
      </trkpt>
      <trkpt lat="41.646847100" lon="2.528998200">
        <ele>257.30</ele>
        <time>2013-03-02T17:14:52Z</time>
      </trkpt>
      <trkpt lat="41.646753300" lon="2.528629600">
        <ele>255.90</ele>
        <time>2013-03-02T17:14:57Z</time>
      </trkpt>
      <trkpt lat="41.646718600" lon="2.528481400">
        <ele>255.40</ele>
        <time>2013-03-02T17:14:59Z</time>
      </trkpt>
      <trkpt lat="41.646624000" lon="2.527862500">
        <ele>253.90</ele>
        <time>2013-03-02T17:15:06Z</time>
      </trkpt>
      <trkpt lat="41.646610200" lon="2.527781100">
        <ele>253.40</ele>
        <time>2013-03-02T17:15:08Z</time>
      </trkpt>
      <trkpt lat="41.646480200" lon="2.526981800">
        <ele>250.60</ele>
        <time>2013-03-02T17:15:16Z</time>
      </trkpt>
      <trkpt lat="41.646420600" lon="2.526692700">
        <ele>249.60</ele>
        <time>2013-03-02T17:15:20Z</time>
      </trkpt>
      <trkpt lat="41.646440900" lon="2.526299400">
        <ele>248.60</ele>
        <time>2013-03-02T17:15:23Z</time>
      </trkpt>
      <trkpt lat="41.646517300" lon="2.526032300">
        <ele>248.20</ele>
        <time>2013-03-02T17:15:27Z</time>
      </trkpt>
      <trkpt lat="41.646541100" lon="2.525631900">
        <ele>246.70</ele>
        <time>2013-03-02T17:15:30Z</time>
      </trkpt>
      <trkpt lat="41.646473600" lon="2.524869800">
        <ele>245.30</ele>
        <time>2013-03-02T17:15:39Z</time>
      </trkpt>
      <trkpt lat="41.646371400" lon="2.524233400">
        <ele>244.80</ele>
        <time>2013-03-02T17:15:48Z</time>
      </trkpt>
      <trkpt lat="41.646285000" lon="2.523809700">
        <ele>244.30</ele>
        <time>2013-03-02T17:15:55Z</time>
      </trkpt>
      <trkpt lat="41.646251800" lon="2.523393500">
        <ele>245.30</ele>
        <time>2013-03-02T17:16:02Z</time>
      </trkpt>
      <trkpt lat="41.646290500" lon="2.523063900">
        <ele>245.80</ele>
        <time>2013-03-02T17:16:10Z</time>
      </trkpt>
      <trkpt lat="41.646380600" lon="2.522663900">
        <ele>243.80</ele>
        <time>2013-03-02T17:16:16Z</time>
      </trkpt>
      <trkpt lat="41.646464300" lon="2.522056000">
        <ele>242.40</ele>
        <time>2013-03-02T17:16:23Z</time>
      </trkpt>
      <trkpt lat="41.646494600" lon="2.521818400">
        <ele>242.40</ele>
        <time>2013-03-02T17:16:26Z</time>
      </trkpt>
      <trkpt lat="41.646549900" lon="2.521349500">
        <ele>241.90</ele>
        <time>2013-03-02T17:16:33Z</time>
      </trkpt>
      <trkpt lat="41.646582400" lon="2.521133200">
        <ele>242.40</ele>
        <time>2013-03-02T17:16:36Z</time>
      </trkpt>
      <trkpt lat="41.646647100" lon="2.520723200">
        <ele>242.90</ele>
        <time>2013-03-02T17:16:45Z</time>
      </trkpt>
      <trkpt lat="41.646754200" lon="2.520348000">
        <ele>241.40</ele>
        <time>2013-03-02T17:16:50Z</time>
      </trkpt>
      <trkpt lat="41.646832800" lon="2.519990200">
        <ele>239.50</ele>
        <time>2013-03-02T17:16:54Z</time>
      </trkpt>
      <trkpt lat="41.646902500" lon="2.519484600">
        <ele>237.10</ele>
        <time>2013-03-02T17:16:59Z</time>
      </trkpt>
      <trkpt lat="41.646874400" lon="2.519090200">
        <ele>236.10</ele>
        <time>2013-03-02T17:17:04Z</time>
      </trkpt>
      <trkpt lat="41.646944700" lon="2.518730900">
        <ele>234.70</ele>
        <time>2013-03-02T17:17:08Z</time>
      </trkpt>
      <trkpt lat="41.647068000" lon="2.518363600">
        <ele>232.80</ele>
        <time>2013-03-02T17:17:11Z</time>
      </trkpt>
      <trkpt lat="41.647133800" lon="2.518058200">
        <ele>231.30</ele>
        <time>2013-03-02T17:17:15Z</time>
      </trkpt>
      <trkpt lat="41.647168100" lon="2.517278200">
        <ele>229.90</ele>
        <time>2013-03-02T17:17:22Z</time>
      </trkpt>
      <trkpt lat="41.647163500" lon="2.517193100">
        <ele>229.40</ele>
        <time>2013-03-02T17:17:24Z</time>
      </trkpt>
      <trkpt lat="41.647066100" lon="2.516748000">
        <ele>230.90</ele>
        <time>2013-03-02T17:17:30Z</time>
      </trkpt>
      <trkpt lat="41.646907300" lon="2.516384800">
        <ele>231.30</ele>
        <time>2013-03-02T17:17:39Z</time>
      </trkpt>
      <trkpt lat="41.646722700" lon="2.516113000">
        <ele>231.80</ele>
        <time>2013-03-02T17:17:46Z</time>
      </trkpt>
      <trkpt lat="41.646598600" lon="2.515964400">
        <ele>231.30</ele>
        <time>2013-03-02T17:17:50Z</time>
      </trkpt>
      <trkpt lat="41.646528500" lon="2.515891400">
        <ele>231.30</ele>
        <time>2013-03-02T17:17:51Z</time>
      </trkpt>
      <trkpt lat="41.646353700" lon="2.515658400">
        <ele>229.90</ele>
        <time>2013-03-02T17:17:58Z</time>
      </trkpt>
      <trkpt lat="41.646326400" lon="2.515451800">
        <ele>228.40</ele>
        <time>2013-03-02T17:18:04Z</time>
      </trkpt>
      <trkpt lat="41.646445700" lon="2.515220400">
        <ele>228.40</ele>
        <time>2013-03-02T17:18:09Z</time>
      </trkpt>
      <trkpt lat="41.646659000" lon="2.514884200">
        <ele>228.40</ele>
        <time>2013-03-02T17:18:18Z</time>
      </trkpt>
      <trkpt lat="41.646895700" lon="2.514516500">
        <ele>228.00</ele>
        <time>2013-03-02T17:18:26Z</time>
      </trkpt>
      <trkpt lat="41.646971800" lon="2.514214200">
        <ele>228.40</ele>
        <time>2013-03-02T17:18:33Z</time>
      </trkpt>
      <trkpt lat="41.646992400" lon="2.513923500">
        <ele>228.90</ele>
        <time>2013-03-02T17:18:40Z</time>
      </trkpt>
      <trkpt lat="41.647014900" lon="2.513521800">
        <ele>228.90</ele>
        <time>2013-03-02T17:18:47Z</time>
      </trkpt>
      <trkpt lat="41.646971600" lon="2.513317400">
        <ele>228.40</ele>
        <time>2013-03-02T17:18:52Z</time>
      </trkpt>
      <trkpt lat="41.646961100" lon="2.513269400">
        <ele>228.90</ele>
        <time>2013-03-02T17:18:54Z</time>
      </trkpt>
      <trkpt lat="41.646952600" lon="2.513039600">
        <ele>226.50</ele>
        <time>2013-03-02T17:18:58Z</time>
      </trkpt>
      <trkpt lat="41.646877000" lon="2.512504100">
        <ele>224.10</ele>
        <time>2013-03-02T17:19:05Z</time>
      </trkpt>
      <trkpt lat="41.646847300" lon="2.511914200">
        <ele>222.20</ele>
        <time>2013-03-02T17:19:10Z</time>
      </trkpt>
      <trkpt lat="41.646910100" lon="2.511185000">
        <ele>222.20</ele>
        <time>2013-03-02T17:19:18Z</time>
      </trkpt>
      <trkpt lat="41.646982600" lon="2.510562600">
        <ele>220.80</ele>
        <time>2013-03-02T17:19:27Z</time>
      </trkpt>
      <trkpt lat="41.646998800" lon="2.510491000">
        <ele>220.80</ele>
        <time>2013-03-02T17:19:27Z</time>
      </trkpt>
      <trkpt lat="41.647169200" lon="2.510104900">
        <ele>221.20</ele>
        <time>2013-03-02T17:19:34Z</time>
      </trkpt>
      <trkpt lat="41.647191500" lon="2.510053200">
        <ele>221.20</ele>
        <time>2013-03-02T17:19:36Z</time>
      </trkpt>
      <trkpt lat="41.647314600" lon="2.509802300">
        <ele>220.80</ele>
        <time>2013-03-02T17:19:41Z</time>
      </trkpt>
      <trkpt lat="41.647315200" lon="2.509730800">
        <ele>220.80</ele>
        <time>2013-03-02T17:19:43Z</time>
      </trkpt>
      <trkpt lat="41.647232400" lon="2.509631000">
        <ele>220.80</ele>
        <time>2013-03-02T17:19:50Z</time>
      </trkpt>
      <trkpt lat="41.647118000" lon="2.509546400">
        <ele>220.80</ele>
        <time>2013-03-02T17:19:53Z</time>
      </trkpt>
      <trkpt lat="41.646896300" lon="2.509378200">
        <ele>221.20</ele>
        <time>2013-03-02T17:20:02Z</time>
      </trkpt>
      <trkpt lat="41.646701000" lon="2.509239400">
        <ele>221.20</ele>
        <time>2013-03-02T17:20:09Z</time>
      </trkpt>
      <trkpt lat="41.646469200" lon="2.509071900">
        <ele>222.70</ele>
        <time>2013-03-02T17:20:16Z</time>
      </trkpt>
      <trkpt lat="41.646296800" lon="2.508937100">
        <ele>224.10</ele>
        <time>2013-03-02T17:20:23Z</time>
      </trkpt>
      <trkpt lat="41.646087200" lon="2.508798200">
        <ele>225.10</ele>
        <time>2013-03-02T17:20:32Z</time>
      </trkpt>
      <trkpt lat="41.645782800" lon="2.508574300">
        <ele>224.60</ele>
        <time>2013-03-02T17:20:42Z</time>
      </trkpt>
      <trkpt lat="41.645652600" lon="2.508477600">
        <ele>224.10</ele>
        <time>2013-03-02T17:20:46Z</time>
      </trkpt>
      <trkpt lat="41.645464800" lon="2.508327700">
        <ele>223.60</ele>
        <time>2013-03-02T17:20:51Z</time>
      </trkpt>
      <trkpt lat="41.645269100" lon="2.508106600">
        <ele>222.70</ele>
        <time>2013-03-02T17:20:56Z</time>
      </trkpt>
      <trkpt lat="41.645269700" lon="2.507997300">
        <ele>222.70</ele>
        <time>2013-03-02T17:20:58Z</time>
      </trkpt>
      <trkpt lat="41.645295700" lon="2.507611200">
        <ele>222.70</ele>
        <time>2013-03-02T17:21:06Z</time>
      </trkpt>
      <trkpt lat="41.645307500" lon="2.507451800">
        <ele>223.60</ele>
        <time>2013-03-02T17:21:12Z</time>
      </trkpt>
      <trkpt lat="41.645311000" lon="2.507426800">
        <ele>224.10</ele>
        <time>2013-03-02T17:21:12Z</time>
      </trkpt>
      <trkpt lat="41.645315700" lon="2.507208100">
        <ele>226.10</ele>
        <time>2013-03-02T17:21:22Z</time>
      </trkpt>
      <trkpt lat="41.645307600" lon="2.507031100">
        <ele>227.50</ele>
        <time>2013-03-02T17:21:29Z</time>
      </trkpt>
      <trkpt lat="41.645287400" lon="2.506852700">
        <ele>228.90</ele>
        <time>2013-03-02T17:21:38Z</time>
      </trkpt>
      <trkpt lat="41.645281300" lon="2.506703800">
        <ele>230.40</ele>
        <time>2013-03-02T17:21:45Z</time>
      </trkpt>
      <trkpt lat="41.645264500" lon="2.506628400">
        <ele>231.30</ele>
        <time>2013-03-02T17:21:48Z</time>
      </trkpt>
      <trkpt lat="41.645238600" lon="2.506411100">
        <ele>233.30</ele>
        <time>2013-03-02T17:21:59Z</time>
      </trkpt>
      <trkpt lat="41.645213300" lon="2.506249500">
        <ele>235.20</ele>
        <time>2013-03-02T17:22:07Z</time>
      </trkpt>
      <trkpt lat="41.645198000" lon="2.506011100">
        <ele>237.60</ele>
        <time>2013-03-02T17:22:18Z</time>
      </trkpt>
      <trkpt lat="41.645201100" lon="2.505967200">
        <ele>237.60</ele>
        <time>2013-03-02T17:22:21Z</time>
      </trkpt>
      <trkpt lat="41.645245300" lon="2.505817600">
        <ele>239.00</ele>
        <time>2013-03-02T17:22:28Z</time>
      </trkpt>
      <trkpt lat="41.645268600" lon="2.505706000">
        <ele>240.50</ele>
        <time>2013-03-02T17:22:35Z</time>
      </trkpt>
      <trkpt lat="41.645262300" lon="2.505622200">
        <ele>241.90</ele>
        <time>2013-03-02T17:22:39Z</time>
      </trkpt>
      <trkpt lat="41.645212200" lon="2.505484600">
        <ele>243.40</ele>
        <time>2013-03-02T17:22:48Z</time>
      </trkpt>
      <trkpt lat="41.645158400" lon="2.505353300">
        <ele>245.30</ele>
        <time>2013-03-02T17:22:56Z</time>
      </trkpt>
      <trkpt lat="41.645137400" lon="2.505218100">
        <ele>246.20</ele>
        <time>2013-03-02T17:23:03Z</time>
      </trkpt>
      <trkpt lat="41.645121900" lon="2.505097500">
        <ele>247.70</ele>
        <time>2013-03-02T17:23:10Z</time>
      </trkpt>
      <trkpt lat="41.645098800" lon="2.504952500">
        <ele>248.60</ele>
        <time>2013-03-02T17:23:17Z</time>
      </trkpt>
      <trkpt lat="41.645063000" lon="2.504747100">
        <ele>250.60</ele>
        <time>2013-03-02T17:23:28Z</time>
      </trkpt>
      <trkpt lat="41.645084200" lon="2.504556900">
        <ele>252.00</ele>
        <time>2013-03-02T17:23:36Z</time>
      </trkpt>
      <trkpt lat="41.645137300" lon="2.504438200">
        <ele>253.90</ele>
        <time>2013-03-02T17:23:45Z</time>
      </trkpt>
      <trkpt lat="41.645171700" lon="2.504329100">
        <ele>254.90</ele>
        <time>2013-03-02T17:23:50Z</time>
      </trkpt>
      <trkpt lat="41.645132000" lon="2.504193500">
        <ele>256.30</ele>
        <time>2013-03-02T17:23:59Z</time>
      </trkpt>
      <trkpt lat="41.645060900" lon="2.504075300">
        <ele>257.80</ele>
        <time>2013-03-02T17:24:08Z</time>
      </trkpt>
      <trkpt lat="41.645044900" lon="2.504050300">
        <ele>258.20</ele>
        <time>2013-03-02T17:24:09Z</time>
      </trkpt>
      <trkpt lat="41.644987200" lon="2.503915500">
        <ele>259.70</ele>
        <time>2013-03-02T17:24:18Z</time>
      </trkpt>
      <trkpt lat="41.644915800" lon="2.503778200">
        <ele>261.10</ele>
        <time>2013-03-02T17:24:27Z</time>
      </trkpt>
      <trkpt lat="41.644909100" lon="2.503761300">
        <ele>261.10</ele>
        <time>2013-03-02T17:24:29Z</time>
      </trkpt>
      <trkpt lat="41.644864600" lon="2.503602300">
        <ele>262.60</ele>
        <time>2013-03-02T17:24:37Z</time>
      </trkpt>
      <trkpt lat="41.644814500" lon="2.503360300">
        <ele>264.50</ele>
        <time>2013-03-02T17:24:48Z</time>
      </trkpt>
      <trkpt lat="41.644801200" lon="2.503186600">
        <ele>265.50</ele>
        <time>2013-03-02T17:24:56Z</time>
      </trkpt>
      <trkpt lat="41.644770900" lon="2.503054300">
        <ele>265.90</ele>
        <time>2013-03-02T17:25:03Z</time>
      </trkpt>
      <trkpt lat="41.644727900" lon="2.502907800">
        <ele>267.40</ele>
        <time>2013-03-02T17:25:12Z</time>
      </trkpt>
      <trkpt lat="41.644645900" lon="2.502769600">
        <ele>268.80</ele>
        <time>2013-03-02T17:25:21Z</time>
      </trkpt>
      <trkpt lat="41.644546700" lon="2.502650100">
        <ele>269.80</ele>
        <time>2013-03-02T17:25:29Z</time>
      </trkpt>
      <trkpt lat="41.644487500" lon="2.502552200">
        <ele>270.80</ele>
        <time>2013-03-02T17:25:36Z</time>
      </trkpt>
      <trkpt lat="41.644370300" lon="2.502423200">
        <ele>271.70</ele>
        <time>2013-03-02T17:25:45Z</time>
      </trkpt>
      <trkpt lat="41.644342300" lon="2.502364200">
        <ele>272.20</ele>
        <time>2013-03-02T17:25:49Z</time>
      </trkpt>
      <trkpt lat="41.644272800" lon="2.502169500">
        <ele>273.60</ele>
        <time>2013-03-02T17:25:59Z</time>
      </trkpt>
      <trkpt lat="41.644203900" lon="2.502018900">
        <ele>273.60</ele>
        <time>2013-03-02T17:26:06Z</time>
      </trkpt>
      <trkpt lat="41.644132800" lon="2.501825600">
        <ele>274.60</ele>
        <time>2013-03-02T17:26:15Z</time>
      </trkpt>
      <trkpt lat="41.644038900" lon="2.501682900">
        <ele>275.60</ele>
        <time>2013-03-02T17:26:22Z</time>
      </trkpt>
      <trkpt lat="41.643933500" lon="2.501515700">
        <ele>276.50</ele>
        <time>2013-03-02T17:26:32Z</time>
      </trkpt>
      <trkpt lat="41.643863300" lon="2.501376600">
        <ele>277.50</ele>
        <time>2013-03-02T17:26:41Z</time>
      </trkpt>
      <trkpt lat="41.643796300" lon="2.501202500">
        <ele>279.40</ele>
        <time>2013-03-02T17:26:50Z</time>
      </trkpt>
      <trkpt lat="41.643760700" lon="2.501038800">
        <ele>280.80</ele>
        <time>2013-03-02T17:26:58Z</time>
      </trkpt>
      <trkpt lat="41.643755600" lon="2.500862800">
        <ele>281.80</ele>
        <time>2013-03-02T17:27:05Z</time>
      </trkpt>
      <trkpt lat="41.643763100" lon="2.500667900">
        <ele>283.70</ele>
        <time>2013-03-02T17:27:16Z</time>
      </trkpt>
      <trkpt lat="41.643792700" lon="2.500464600">
        <ele>285.60</ele>
        <time>2013-03-02T17:27:26Z</time>
      </trkpt>
      <trkpt lat="41.643807600" lon="2.500266900">
        <ele>287.10</ele>
        <time>2013-03-02T17:27:35Z</time>
      </trkpt>
      <trkpt lat="41.643771600" lon="2.500118300">
        <ele>289.00</ele>
        <time>2013-03-02T17:27:44Z</time>
      </trkpt>
      <trkpt lat="41.643763300" lon="2.500102900">
        <ele>289.00</ele>
        <time>2013-03-02T17:27:45Z</time>
      </trkpt>
      <trkpt lat="41.643634500" lon="2.500035400">
        <ele>290.90</ele>
        <time>2013-03-02T17:27:54Z</time>
      </trkpt>
      <trkpt lat="41.643525900" lon="2.499957200">
        <ele>291.90</ele>
        <time>2013-03-02T17:28:03Z</time>
      </trkpt>
      <trkpt lat="41.643432600" lon="2.499839500">
        <ele>292.90</ele>
        <time>2013-03-02T17:28:12Z</time>
      </trkpt>
      <trkpt lat="41.643367300" lon="2.499721500">
        <ele>293.80</ele>
        <time>2013-03-02T17:28:18Z</time>
      </trkpt>
      <trkpt lat="41.643319100" lon="2.499562300">
        <ele>295.30</ele>
        <time>2013-03-02T17:28:27Z</time>
      </trkpt>
      <trkpt lat="41.643347500" lon="2.499384600">
        <ele>296.70</ele>
        <time>2013-03-02T17:28:36Z</time>
      </trkpt>
      <trkpt lat="41.643371700" lon="2.499225800">
        <ele>298.10</ele>
        <time>2013-03-02T17:28:45Z</time>
      </trkpt>
      <trkpt lat="41.643406000" lon="2.499035700">
        <ele>299.60</ele>
        <time>2013-03-02T17:28:55Z</time>
      </trkpt>
      <trkpt lat="41.643441100" lon="2.498817700">
        <ele>301.50</ele>
        <time>2013-03-02T17:29:06Z</time>
      </trkpt>
      <trkpt lat="41.643453000" lon="2.498618800">
        <ele>302.50</ele>
        <time>2013-03-02T17:29:14Z</time>
      </trkpt>
      <trkpt lat="41.643391700" lon="2.498442500">
        <ele>303.40</ele>
        <time>2013-03-02T17:29:23Z</time>
      </trkpt>
      <trkpt lat="41.643275400" lon="2.498350500">
        <ele>304.40</ele>
        <time>2013-03-02T17:29:32Z</time>
      </trkpt>
      <trkpt lat="41.643125700" lon="2.498277400">
        <ele>305.40</ele>
        <time>2013-03-02T17:29:42Z</time>
      </trkpt>
      <trkpt lat="41.643032400" lon="2.498235300">
        <ele>306.30</ele>
        <time>2013-03-02T17:29:47Z</time>
      </trkpt>
      <trkpt lat="41.642925200" lon="2.498157100">
        <ele>307.30</ele>
        <time>2013-03-02T17:29:56Z</time>
      </trkpt>
      <trkpt lat="41.642888900" lon="2.497965100">
        <ele>307.80</ele>
        <time>2013-03-02T17:30:03Z</time>
      </trkpt>
      <trkpt lat="41.642822600" lon="2.497736000">
        <ele>308.70</ele>
        <time>2013-03-02T17:30:13Z</time>
      </trkpt>
      <trkpt lat="41.642780200" lon="2.497556200">
        <ele>309.20</ele>
        <time>2013-03-02T17:30:22Z</time>
      </trkpt>
      <trkpt lat="41.642780100" lon="2.497533900">
        <ele>309.20</ele>
        <time>2013-03-02T17:30:22Z</time>
      </trkpt>
      <trkpt lat="41.642854900" lon="2.497539100">
        <ele>310.60</ele>
        <time>2013-03-02T17:30:29Z</time>
      </trkpt>
      <trkpt lat="41.642899800" lon="2.497642200">
        <ele>311.60</ele>
        <time>2013-03-02T17:30:36Z</time>
      </trkpt>
      <trkpt lat="41.642943300" lon="2.497716300">
        <ele>312.60</ele>
        <time>2013-03-02T17:30:41Z</time>
      </trkpt>
      <trkpt lat="41.643038300" lon="2.497884600">
        <ele>314.00</ele>
        <time>2013-03-02T17:30:50Z</time>
      </trkpt>
      <trkpt lat="41.643161000" lon="2.497892200">
        <ele>315.00</ele>
        <time>2013-03-02T17:30:59Z</time>
      </trkpt>
      <trkpt lat="41.643301300" lon="2.497888100">
        <ele>316.40</ele>
        <time>2013-03-02T17:31:07Z</time>
      </trkpt>
      <trkpt lat="41.643422600" lon="2.497895600">
        <ele>317.40</ele>
        <time>2013-03-02T17:31:16Z</time>
      </trkpt>
      <trkpt lat="41.643572200" lon="2.497959300">
        <ele>317.90</ele>
        <time>2013-03-02T17:31:23Z</time>
      </trkpt>
      <trkpt lat="41.643665900" lon="2.498028100">
        <ele>317.90</ele>
        <time>2013-03-02T17:31:30Z</time>
      </trkpt>
      <trkpt lat="41.643765200" lon="2.498095600">
        <ele>318.30</ele>
        <time>2013-03-02T17:31:35Z</time>
      </trkpt>
      <trkpt lat="41.643835300" lon="2.497977600">
        <ele>318.80</ele>
        <time>2013-03-02T17:31:42Z</time>
      </trkpt>
      <trkpt lat="41.643763900" lon="2.497869700">
        <ele>319.80</ele>
        <time>2013-03-02T17:31:49Z</time>
      </trkpt>
      <trkpt lat="41.643645000" lon="2.497718300">
        <ele>320.70</ele>
        <time>2013-03-02T17:32:00Z</time>
      </trkpt>
      <trkpt lat="41.643615100" lon="2.497641900">
        <ele>321.70</ele>
        <time>2013-03-02T17:32:03Z</time>
      </trkpt>
      <trkpt lat="41.643597800" lon="2.497570600">
        <ele>322.20</ele>
        <time>2013-03-02T17:32:07Z</time>
      </trkpt>
      <trkpt lat="41.643535400" lon="2.497393600">
        <ele>324.60</ele>
        <time>2013-03-02T17:32:17Z</time>
      </trkpt>
      <trkpt lat="41.643515500" lon="2.497343100">
        <ele>325.10</ele>
        <time>2013-03-02T17:32:21Z</time>
      </trkpt>
      <trkpt lat="41.643449100" lon="2.497245300">
        <ele>327.00</ele>
        <time>2013-03-02T17:32:29Z</time>
      </trkpt>
      <trkpt lat="41.643330200" lon="2.497170500">
        <ele>329.40</ele>
        <time>2013-03-02T17:32:38Z</time>
      </trkpt>
      <trkpt lat="41.643232900" lon="2.497108000">
        <ele>330.80</ele>
        <time>2013-03-02T17:32:45Z</time>
      </trkpt>
      <trkpt lat="41.643151900" lon="2.497043600">
        <ele>332.30</ele>
        <time>2013-03-02T17:32:52Z</time>
      </trkpt>
      <trkpt lat="41.643123600" lon="2.497010300">
        <ele>332.80</ele>
        <time>2013-03-02T17:32:54Z</time>
      </trkpt>
      <trkpt lat="41.643038300" lon="2.496860200">
        <ele>333.70</ele>
        <time>2013-03-02T17:33:04Z</time>
      </trkpt>
      <trkpt lat="41.642929900" lon="2.496725500">
        <ele>333.70</ele>
        <time>2013-03-02T17:33:13Z</time>
      </trkpt>
      <trkpt lat="41.642852700" lon="2.496631400">
        <ele>334.70</ele>
        <time>2013-03-02T17:33:20Z</time>
      </trkpt>
      <trkpt lat="41.642744900" lon="2.496521700">
        <ele>336.10</ele>
        <time>2013-03-02T17:33:29Z</time>
      </trkpt>
      <trkpt lat="41.642704900" lon="2.496490300">
        <ele>336.60</ele>
        <time>2013-03-02T17:33:32Z</time>
      </trkpt>
      <trkpt lat="41.642578500" lon="2.496357500">
        <ele>338.00</ele>
        <time>2013-03-02T17:33:42Z</time>
      </trkpt>
      <trkpt lat="41.642502800" lon="2.496184900">
        <ele>338.50</ele>
        <time>2013-03-02T17:33:51Z</time>
      </trkpt>
      <trkpt lat="41.642460300" lon="2.496043600">
        <ele>339.00</ele>
        <time>2013-03-02T17:33:58Z</time>
      </trkpt>
      <trkpt lat="41.642432900" lon="2.495923000">
        <ele>340.00</ele>
        <time>2013-03-02T17:34:05Z</time>
      </trkpt>
      <trkpt lat="41.642394700" lon="2.495763200">
        <ele>340.90</ele>
        <time>2013-03-02T17:34:12Z</time>
      </trkpt>
      <trkpt lat="41.642357400" lon="2.495591300">
        <ele>342.90</ele>
        <time>2013-03-02T17:34:21Z</time>
      </trkpt>
      <trkpt lat="41.642382300" lon="2.495348600">
        <ele>343.30</ele>
        <time>2013-03-02T17:34:31Z</time>
      </trkpt>
      <trkpt lat="41.642410300" lon="2.495102900">
        <ele>342.90</ele>
        <time>2013-03-02T17:34:40Z</time>
      </trkpt>
      <trkpt lat="41.642466200" lon="2.494848200">
        <ele>342.40</ele>
        <time>2013-03-02T17:34:47Z</time>
      </trkpt>
      <trkpt lat="41.642536900" lon="2.494661000">
        <ele>341.40</ele>
        <time>2013-03-02T17:34:50Z</time>
      </trkpt>
      <trkpt lat="41.642711600" lon="2.494334300">
        <ele>340.00</ele>
        <time>2013-03-02T17:34:57Z</time>
      </trkpt>
      <trkpt lat="41.642726700" lon="2.494284100">
        <ele>340.00</ele>
        <time>2013-03-02T17:34:59Z</time>
      </trkpt>
      <trkpt lat="41.642807900" lon="2.494035300">
        <ele>340.40</ele>
        <time>2013-03-02T17:35:06Z</time>
      </trkpt>
      <trkpt lat="41.642881100" lon="2.493881500">
        <ele>340.90</ele>
        <time>2013-03-02T17:35:11Z</time>
      </trkpt>
      <trkpt lat="41.643015800" lon="2.493760700">
        <ele>341.90</ele>
        <time>2013-03-02T17:35:18Z</time>
      </trkpt>
      <trkpt lat="41.643117000" lon="2.493571200">
        <ele>342.90</ele>
        <time>2013-03-02T17:35:25Z</time>
      </trkpt>
      <trkpt lat="41.643128800" lon="2.493467200">
        <ele>343.30</ele>
        <time>2013-03-02T17:35:29Z</time>
      </trkpt>
      <trkpt lat="41.642946100" lon="2.493301800">
        <ele>341.90</ele>
        <time>2013-03-02T17:35:37Z</time>
      </trkpt>
      <trkpt lat="41.642872900" lon="2.493248500">
        <ele>341.90</ele>
        <time>2013-03-02T17:35:39Z</time>
      </trkpt>
      <trkpt lat="41.642695700" lon="2.492975900">
        <ele>339.50</ele>
        <time>2013-03-02T17:35:44Z</time>
      </trkpt>
      <trkpt lat="41.642650500" lon="2.492771800">
        <ele>338.50</ele>
        <time>2013-03-02T17:35:48Z</time>
      </trkpt>
      <trkpt lat="41.642698300" lon="2.492359000">
        <ele>337.10</ele>
        <time>2013-03-02T17:35:53Z</time>
      </trkpt>
      <trkpt lat="41.642661300" lon="2.492005300">
        <ele>335.20</ele>
        <time>2013-03-02T17:35:57Z</time>
      </trkpt>
      <trkpt lat="41.642484900" lon="2.491606800">
        <ele>335.20</ele>
        <time>2013-03-02T17:36:04Z</time>
      </trkpt>
      <trkpt lat="41.642369200" lon="2.491434100">
        <ele>336.60</ele>
        <time>2013-03-02T17:36:11Z</time>
      </trkpt>
      <trkpt lat="41.642350700" lon="2.491297400">
        <ele>337.60</ele>
        <time>2013-03-02T17:36:16Z</time>
      </trkpt>
      <trkpt lat="41.642311600" lon="2.491194400">
        <ele>339.00</ele>
        <time>2013-03-02T17:36:19Z</time>
      </trkpt>
      <trkpt lat="41.642260400" lon="2.491090800">
        <ele>340.90</ele>
        <time>2013-03-02T17:36:24Z</time>
      </trkpt>
      <trkpt lat="41.642207200" lon="2.490901100">
        <ele>342.40</ele>
        <time>2013-03-02T17:36:33Z</time>
      </trkpt>
      <trkpt lat="41.642139100" lon="2.490776500">
        <ele>342.90</ele>
        <time>2013-03-02T17:36:38Z</time>
      </trkpt>
      <trkpt lat="41.642096000" lon="2.490710200">
        <ele>343.80</ele>
        <time>2013-03-02T17:36:42Z</time>
      </trkpt>
      <trkpt lat="41.642120200" lon="2.490588500">
        <ele>343.80</ele>
        <time>2013-03-02T17:36:49Z</time>
      </trkpt>
      <trkpt lat="41.642134800" lon="2.490574500">
        <ele>343.80</ele>
        <time>2013-03-02T17:36:49Z</time>
      </trkpt>
      <trkpt lat="41.642296200" lon="2.490469100">
        <ele>342.40</ele>
        <time>2013-03-02T17:36:56Z</time>
      </trkpt>
      <trkpt lat="41.642359000" lon="2.490457800">
        <ele>342.90</ele>
        <time>2013-03-02T17:36:58Z</time>
      </trkpt>
      <trkpt lat="41.642547100" lon="2.490462300">
        <ele>342.90</ele>
        <time>2013-03-02T17:37:06Z</time>
      </trkpt>
      <trkpt lat="41.642670300" lon="2.490453000">
        <ele>343.30</ele>
        <time>2013-03-02T17:37:11Z</time>
      </trkpt>
      <trkpt lat="41.642796600" lon="2.490404800">
        <ele>345.20</ele>
        <time>2013-03-02T17:37:20Z</time>
      </trkpt>
      <trkpt lat="41.642869800" lon="2.490257400">
        <ele>345.70</ele>
        <time>2013-03-02T17:37:27Z</time>
      </trkpt>
      <trkpt lat="41.642960600" lon="2.489960200">
        <ele>346.20</ele>
        <time>2013-03-02T17:37:38Z</time>
      </trkpt>
      <trkpt lat="41.643067300" lon="2.489775100">
        <ele>345.70</ele>
        <time>2013-03-02T17:37:46Z</time>
      </trkpt>
      <trkpt lat="41.643215200" lon="2.489809800">
        <ele>345.20</ele>
        <time>2013-03-02T17:37:50Z</time>
      </trkpt>
      <trkpt lat="41.643440700" lon="2.489946500">
        <ele>345.20</ele>
        <time>2013-03-02T17:37:59Z</time>
      </trkpt>
      <trkpt lat="41.643564600" lon="2.490035600">
        <ele>345.70</ele>
        <time>2013-03-02T17:38:04Z</time>
      </trkpt>
      <trkpt lat="41.643597600" lon="2.490050500">
        <ele>345.20</ele>
        <time>2013-03-02T17:38:05Z</time>
      </trkpt>
      <trkpt lat="41.643722700" lon="2.490114400">
        <ele>343.80</ele>
        <time>2013-03-02T17:38:09Z</time>
      </trkpt>
      <trkpt lat="41.643771200" lon="2.490138700">
        <ele>343.30</ele>
        <time>2013-03-02T17:38:09Z</time>
      </trkpt>
      <trkpt lat="41.644057000" lon="2.490221200">
        <ele>340.90</ele>
        <time>2013-03-02T17:38:14Z</time>
      </trkpt>
      <trkpt lat="41.644173000" lon="2.490254400">
        <ele>339.00</ele>
        <time>2013-03-02T17:38:18Z</time>
      </trkpt>
      <trkpt lat="41.644326800" lon="2.490308700">
        <ele>338.50</ele>
        <time>2013-03-02T17:38:23Z</time>
      </trkpt>
      <trkpt lat="41.644508400" lon="2.490314600">
        <ele>337.60</ele>
        <time>2013-03-02T17:38:30Z</time>
      </trkpt>
      <trkpt lat="41.644739900" lon="2.490333100">
        <ele>334.70</ele>
        <time>2013-03-02T17:38:35Z</time>
      </trkpt>
      <trkpt lat="41.644801400" lon="2.490266800">
        <ele>333.70</ele>
        <time>2013-03-02T17:38:39Z</time>
      </trkpt>
      <trkpt lat="41.644741100" lon="2.490238800">
        <ele>333.70</ele>
        <time>2013-03-02T17:38:42Z</time>
      </trkpt>
      <trkpt lat="41.644607900" lon="2.490205700">
        <ele>335.20</ele>
        <time>2013-03-02T17:38:51Z</time>
      </trkpt>
      <trkpt lat="41.644434800" lon="2.490207200">
        <ele>336.60</ele>
        <time>2013-03-02T17:38:59Z</time>
      </trkpt>
      <trkpt lat="41.644278200" lon="2.490137600">
        <ele>337.10</ele>
        <time>2013-03-02T17:39:08Z</time>
      </trkpt>
      <trkpt lat="41.644090000" lon="2.489942500">
        <ele>336.60</ele>
        <time>2013-03-02T17:39:15Z</time>
      </trkpt>
      <trkpt lat="41.644035000" lon="2.489866500">
        <ele>335.60</ele>
        <time>2013-03-02T17:39:17Z</time>
      </trkpt>
      <trkpt lat="41.643766100" lon="2.489474700">
        <ele>333.70</ele>
        <time>2013-03-02T17:39:26Z</time>
      </trkpt>
      <trkpt lat="41.643535600" lon="2.489090500">
        <ele>331.30</ele>
        <time>2013-03-02T17:39:31Z</time>
      </trkpt>
      <trkpt lat="41.643472200" lon="2.488795200">
        <ele>329.90</ele>
        <time>2013-03-02T17:39:34Z</time>
      </trkpt>
      <trkpt lat="41.643527600" lon="2.488726700">
        <ele>329.90</ele>
        <time>2013-03-02T17:39:36Z</time>
      </trkpt>
      <trkpt lat="41.643727300" lon="2.488663400">
        <ele>331.30</ele>
        <time>2013-03-02T17:39:43Z</time>
      </trkpt>
      <trkpt lat="41.643856300" lon="2.488604200">
        <ele>332.80</ele>
        <time>2013-03-02T17:39:50Z</time>
      </trkpt>
      <trkpt lat="41.643965300" lon="2.488491500">
        <ele>335.20</ele>
        <time>2013-03-02T17:39:59Z</time>
      </trkpt>
      <trkpt lat="41.644065500" lon="2.488383300">
        <ele>336.10</ele>
        <time>2013-03-02T17:40:06Z</time>
      </trkpt>
      <trkpt lat="41.644077400" lon="2.488368800">
        <ele>336.60</ele>
        <time>2013-03-02T17:40:07Z</time>
      </trkpt>
      <trkpt lat="41.644078000" lon="2.488152500">
        <ele>338.00</ele>
        <time>2013-03-02T17:40:18Z</time>
      </trkpt>
      <trkpt lat="41.643999200" lon="2.488027000">
        <ele>339.50</ele>
        <time>2013-03-02T17:40:25Z</time>
      </trkpt>
      <trkpt lat="41.643907000" lon="2.487898400">
        <ele>341.90</ele>
        <time>2013-03-02T17:40:35Z</time>
      </trkpt>
      <trkpt lat="41.643826000" lon="2.487768300">
        <ele>343.30</ele>
        <time>2013-03-02T17:40:42Z</time>
      </trkpt>
      <trkpt lat="41.643735300" lon="2.487603000">
        <ele>345.70</ele>
        <time>2013-03-02T17:40:53Z</time>
      </trkpt>
      <trkpt lat="41.643656100" lon="2.487497300">
        <ele>347.60</ele>
        <time>2013-03-02T17:41:00Z</time>
      </trkpt>
      <trkpt lat="41.643566500" lon="2.487407400">
        <ele>349.10</ele>
        <time>2013-03-02T17:41:08Z</time>
      </trkpt>
      <trkpt lat="41.643509300" lon="2.487299800">
        <ele>350.50</ele>
        <time>2013-03-02T17:41:17Z</time>
      </trkpt>
      <trkpt lat="41.643479700" lon="2.487225500">
        <ele>351.00</ele>
        <time>2013-03-02T17:41:24Z</time>
      </trkpt>
      <trkpt lat="41.643462200" lon="2.487242300">
        <ele>351.00</ele>
        <time>2013-03-02T17:41:42Z</time>
      </trkpt>
      <trkpt lat="41.643445400" lon="2.487242300">
        <ele>350.50</ele>
        <time>2013-03-02T17:41:57Z</time>
      </trkpt>
      <trkpt lat="41.643439600" lon="2.487231900">
        <ele>351.00</ele>
        <time>2013-03-02T17:42:13Z</time>
      </trkpt>
      <trkpt lat="41.643433800" lon="2.487193700">
        <ele>351.00</ele>
        <time>2013-03-02T17:42:16Z</time>
      </trkpt>
      <trkpt lat="41.643373600" lon="2.487023400">
        <ele>352.90</ele>
        <time>2013-03-02T17:42:27Z</time>
      </trkpt>
      <trkpt lat="41.643361200" lon="2.486939500">
        <ele>354.40</ele>
        <time>2013-03-02T17:42:32Z</time>
      </trkpt>
      <trkpt lat="41.643432600" lon="2.486837100">
        <ele>355.80</ele>
        <time>2013-03-02T17:42:39Z</time>
      </trkpt>
      <trkpt lat="41.643533500" lon="2.486797300">
        <ele>357.30</ele>
        <time>2013-03-02T17:42:48Z</time>
      </trkpt>
      <trkpt lat="41.643624000" lon="2.486715800">
        <ele>358.70</ele>
        <time>2013-03-02T17:42:56Z</time>
      </trkpt>
      <trkpt lat="41.643648800" lon="2.486645800">
        <ele>359.20</ele>
        <time>2013-03-02T17:43:00Z</time>
      </trkpt>
      <trkpt lat="41.643668200" lon="2.486432300">
        <ele>361.60</ele>
        <time>2013-03-02T17:43:12Z</time>
      </trkpt>
      <trkpt lat="41.643659200" lon="2.486283700">
        <ele>363.50</ele>
        <time>2013-03-02T17:43:21Z</time>
      </trkpt>
      <trkpt lat="41.643630300" lon="2.486132000">
        <ele>365.00</ele>
        <time>2013-03-02T17:43:31Z</time>
      </trkpt>
      <trkpt lat="41.643614900" lon="2.485949500">
        <ele>366.40</ele>
        <time>2013-03-02T17:43:40Z</time>
      </trkpt>
      <trkpt lat="41.643590500" lon="2.485798800">
        <ele>367.80</ele>
        <time>2013-03-02T17:43:49Z</time>
      </trkpt>
      <trkpt lat="41.643545000" lon="2.485673600">
        <ele>369.80</ele>
        <time>2013-03-02T17:43:57Z</time>
      </trkpt>
      <trkpt lat="41.643493500" lon="2.485641800">
        <ele>370.20</ele>
        <time>2013-03-02T17:44:01Z</time>
      </trkpt>
      <trkpt lat="41.643363400" lon="2.485571700">
        <ele>372.20</ele>
        <time>2013-03-02T17:44:11Z</time>
      </trkpt>
      <trkpt lat="41.643270900" lon="2.485509000">
        <ele>373.60</ele>
        <time>2013-03-02T17:44:20Z</time>
      </trkpt>
      <trkpt lat="41.643193000" lon="2.485397200">
        <ele>374.60</ele>
        <time>2013-03-02T17:44:29Z</time>
      </trkpt>
      <trkpt lat="41.643164100" lon="2.485334200">
        <ele>375.50</ele>
        <time>2013-03-02T17:44:32Z</time>
      </trkpt>
      <trkpt lat="41.643084700" lon="2.485175400">
        <ele>377.50</ele>
        <time>2013-03-02T17:44:43Z</time>
      </trkpt>
      <trkpt lat="41.642985100" lon="2.485029700">
        <ele>379.40</ele>
        <time>2013-03-02T17:44:55Z</time>
      </trkpt>
      <trkpt lat="41.642892900" lon="2.484936600">
        <ele>381.30</ele>
        <time>2013-03-02T17:45:04Z</time>
      </trkpt>
      <trkpt lat="41.642757400" lon="2.484871200">
        <ele>382.70</ele>
        <time>2013-03-02T17:45:14Z</time>
      </trkpt>
      <trkpt lat="41.642627500" lon="2.484883600">
        <ele>383.70</ele>
        <time>2013-03-02T17:45:23Z</time>
      </trkpt>
      <trkpt lat="41.642489000" lon="2.484881200">
        <ele>384.70</ele>
        <time>2013-03-02T17:45:33Z</time>
      </trkpt>
      <trkpt lat="41.642476100" lon="2.484876000">
        <ele>384.70</ele>
        <time>2013-03-02T17:45:35Z</time>
      </trkpt>
      <trkpt lat="41.642399500" lon="2.484782200">
        <ele>385.60</ele>
        <time>2013-03-02T17:45:42Z</time>
      </trkpt>
      <trkpt lat="41.642294100" lon="2.484604500">
        <ele>386.10</ele>
        <time>2013-03-02T17:45:52Z</time>
      </trkpt>
      <trkpt lat="41.642311800" lon="2.484403600">
        <ele>386.60</ele>
        <time>2013-03-02T17:46:01Z</time>
      </trkpt>
      <trkpt lat="41.642386200" lon="2.484214500">
        <ele>388.00</ele>
        <time>2013-03-02T17:46:10Z</time>
      </trkpt>
      <trkpt lat="41.642454400" lon="2.484072300">
        <ele>388.50</ele>
        <time>2013-03-02T17:46:17Z</time>
      </trkpt>
      <trkpt lat="41.642437800" lon="2.483849800">
        <ele>389.00</ele>
        <time>2013-03-02T17:46:25Z</time>
      </trkpt>
      <trkpt lat="41.642394700" lon="2.483682200">
        <ele>390.00</ele>
        <time>2013-03-02T17:46:34Z</time>
      </trkpt>
      <trkpt lat="41.642388500" lon="2.483632100">
        <ele>390.40</ele>
        <time>2013-03-02T17:46:36Z</time>
      </trkpt>
      <trkpt lat="41.642446500" lon="2.483390800">
        <ele>390.90</ele>
        <time>2013-03-02T17:46:46Z</time>
      </trkpt>
      <trkpt lat="41.642521900" lon="2.483200900">
        <ele>391.90</ele>
        <time>2013-03-02T17:46:55Z</time>
      </trkpt>
      <trkpt lat="41.642624700" lon="2.483070700">
        <ele>392.80</ele>
        <time>2013-03-02T17:47:04Z</time>
      </trkpt>
      <trkpt lat="41.642755200" lon="2.483020700">
        <ele>393.30</ele>
        <time>2013-03-02T17:47:11Z</time>
      </trkpt>
      <trkpt lat="41.642896700" lon="2.483061500">
        <ele>393.30</ele>
        <time>2013-03-02T17:47:18Z</time>
      </trkpt>
      <trkpt lat="41.642995800" lon="2.482928000">
        <ele>392.80</ele>
        <time>2013-03-02T17:47:23Z</time>
      </trkpt>
      <trkpt lat="41.643000000" lon="2.482868800">
        <ele>392.40</ele>
        <time>2013-03-02T17:47:23Z</time>
      </trkpt>
      <trkpt lat="41.643002400" lon="2.482739900">
        <ele>391.90</ele>
        <time>2013-03-02T17:47:25Z</time>
      </trkpt>
      <trkpt lat="41.643110500" lon="2.482281100">
        <ele>389.00</ele>
        <time>2013-03-02T17:47:32Z</time>
      </trkpt>
      <trkpt lat="41.643132900" lon="2.482189400">
        <ele>388.50</ele>
        <time>2013-03-02T17:47:33Z</time>
      </trkpt>
      <trkpt lat="41.643325600" lon="2.481936100">
        <ele>386.60</ele>
        <time>2013-03-02T17:47:37Z</time>
      </trkpt>
      <trkpt lat="41.643492700" lon="2.481800400">
        <ele>388.00</ele>
        <time>2013-03-02T17:47:40Z</time>
      </trkpt>
      <trkpt lat="41.643512100" lon="2.481712900">
        <ele>388.00</ele>
        <time>2013-03-02T17:47:42Z</time>
      </trkpt>
      <trkpt lat="41.643499000" lon="2.481466400">
        <ele>390.00</ele>
        <time>2013-03-02T17:47:51Z</time>
      </trkpt>
      <trkpt lat="41.643472900" lon="2.481239000">
        <ele>392.40</ele>
        <time>2013-03-02T17:48:01Z</time>
      </trkpt>
      <trkpt lat="41.643422800" lon="2.481032700">
        <ele>393.80</ele>
        <time>2013-03-02T17:48:10Z</time>
      </trkpt>
      <trkpt lat="41.643360500" lon="2.480909700">
        <ele>394.80</ele>
        <time>2013-03-02T17:48:17Z</time>
      </trkpt>
      <trkpt lat="41.643307100" lon="2.480812300">
        <ele>395.70</ele>
        <time>2013-03-02T17:48:22Z</time>
      </trkpt>
      <trkpt lat="41.643253600" lon="2.480752800">
        <ele>397.20</ele>
        <time>2013-03-02T17:48:27Z</time>
      </trkpt>
      <trkpt lat="41.643199000" lon="2.480538800">
        <ele>399.60</ele>
        <time>2013-03-02T17:48:38Z</time>
      </trkpt>
      <trkpt lat="41.643219400" lon="2.480383500">
        <ele>400.50</ele>
        <time>2013-03-02T17:48:45Z</time>
      </trkpt>
      <trkpt lat="41.643222100" lon="2.480256900">
        <ele>401.50</ele>
        <time>2013-03-02T17:48:52Z</time>
      </trkpt>
      <trkpt lat="41.643195500" lon="2.480096400">
        <ele>402.90</ele>
        <time>2013-03-02T17:49:02Z</time>
      </trkpt>
      <trkpt lat="41.643191000" lon="2.480059900">
        <ele>403.40</ele>
        <time>2013-03-02T17:49:04Z</time>
      </trkpt>
      <trkpt lat="41.643174300" lon="2.479936800">
        <ele>404.40</ele>
        <time>2013-03-02T17:49:09Z</time>
      </trkpt>
      <trkpt lat="41.643140300" lon="2.479768600">
        <ele>405.80</ele>
        <time>2013-03-02T17:49:18Z</time>
      </trkpt>
      <trkpt lat="41.643124600" lon="2.479684000">
        <ele>406.80</ele>
        <time>2013-03-02T17:49:23Z</time>
      </trkpt>
      <trkpt lat="41.643082700" lon="2.479604300">
        <ele>407.70</ele>
        <time>2013-03-02T17:49:30Z</time>
      </trkpt>
      <trkpt lat="41.642978000" lon="2.479490600">
        <ele>409.70</ele>
        <time>2013-03-02T17:49:41Z</time>
      </trkpt>
      <trkpt lat="41.642923100" lon="2.479453800">
        <ele>410.60</ele>
        <time>2013-03-02T17:49:46Z</time>
      </trkpt>
      <trkpt lat="41.642841300" lon="2.479491600">
        <ele>412.10</ele>
        <time>2013-03-02T17:49:53Z</time>
      </trkpt>
      <trkpt lat="41.642813600" lon="2.479563800">
        <ele>413.00</ele>
        <time>2013-03-02T17:49:58Z</time>
      </trkpt>
      <trkpt lat="41.642884300" lon="2.479714100">
        <ele>415.00</ele>
        <time>2013-03-02T17:50:08Z</time>
      </trkpt>
      <trkpt lat="41.642901200" lon="2.479739800">
        <ele>415.00</ele>
        <time>2013-03-02T17:50:10Z</time>
      </trkpt>
      <trkpt lat="41.642955900" lon="2.479883900">
        <ele>415.90</ele>
        <time>2013-03-02T17:50:19Z</time>
      </trkpt>
      <trkpt lat="41.642968800" lon="2.479921900">
        <ele>415.90</ele>
        <time>2013-03-02T17:50:22Z</time>
      </trkpt>
      <trkpt lat="41.642946900" lon="2.480152200">
        <ele>416.40</ele>
        <time>2013-03-02T17:50:33Z</time>
      </trkpt>
      <trkpt lat="41.642910900" lon="2.480364700">
        <ele>417.40</ele>
        <time>2013-03-02T17:50:42Z</time>
      </trkpt>
      <trkpt lat="41.642851100" lon="2.480585800">
        <ele>417.80</ele>
        <time>2013-03-02T17:50:52Z</time>
      </trkpt>
      <trkpt lat="41.642854600" lon="2.480745800">
        <ele>418.30</ele>
        <time>2013-03-02T17:50:59Z</time>
      </trkpt>
      <trkpt lat="41.642880800" lon="2.480946000">
        <ele>418.80</ele>
        <time>2013-03-02T17:51:06Z</time>
      </trkpt>
      <trkpt lat="41.642783400" lon="2.481119800">
        <ele>418.80</ele>
        <time>2013-03-02T17:51:15Z</time>
      </trkpt>
      <trkpt lat="41.642654400" lon="2.481233700">
        <ele>418.80</ele>
        <time>2013-03-02T17:51:23Z</time>
      </trkpt>
      <trkpt lat="41.642500900" lon="2.481305800">
        <ele>419.30</ele>
        <time>2013-03-02T17:51:30Z</time>
      </trkpt>
      <trkpt lat="41.642326100" lon="2.481363200">
        <ele>419.30</ele>
        <time>2013-03-02T17:51:39Z</time>
      </trkpt>
      <trkpt lat="41.642194800" lon="2.481336800">
        <ele>419.80</ele>
        <time>2013-03-02T17:51:46Z</time>
      </trkpt>
      <trkpt lat="41.642119700" lon="2.481325300">
        <ele>419.30</ele>
        <time>2013-03-02T17:51:51Z</time>
      </trkpt>
      <trkpt lat="41.642092700" lon="2.481356200">
        <ele>419.80</ele>
        <time>2013-03-02T17:51:53Z</time>
      </trkpt>
      <trkpt lat="41.642105200" lon="2.481515600">
        <ele>419.80</ele>
        <time>2013-03-02T17:52:00Z</time>
      </trkpt>
      <trkpt lat="41.642210900" lon="2.481683700">
        <ele>420.20</ele>
        <time>2013-03-02T17:52:09Z</time>
      </trkpt>
      <trkpt lat="41.642332600" lon="2.481857500">
        <ele>420.70</ele>
        <time>2013-03-02T17:52:19Z</time>
      </trkpt>
      <trkpt lat="41.642291300" lon="2.482034300">
        <ele>420.70</ele>
        <time>2013-03-02T17:52:24Z</time>
      </trkpt>
      <trkpt lat="41.642145100" lon="2.482190000">
        <ele>420.20</ele>
        <time>2013-03-02T17:52:31Z</time>
      </trkpt>
      <trkpt lat="41.642002300" lon="2.482474400">
        <ele>419.80</ele>
        <time>2013-03-02T17:52:38Z</time>
      </trkpt>
      <trkpt lat="41.641993500" lon="2.482588300">
        <ele>419.30</ele>
        <time>2013-03-02T17:52:40Z</time>
      </trkpt>
      <trkpt lat="41.641931300" lon="2.482886500">
        <ele>418.30</ele>
        <time>2013-03-02T17:52:45Z</time>
      </trkpt>
      <trkpt lat="41.641775700" lon="2.483172400">
        <ele>418.30</ele>
        <time>2013-03-02T17:52:50Z</time>
      </trkpt>
      <trkpt lat="41.641545200" lon="2.483398500">
        <ele>418.80</ele>
        <time>2013-03-02T17:52:59Z</time>
      </trkpt>
      <trkpt lat="41.641411600" lon="2.483518000">
        <ele>419.80</ele>
        <time>2013-03-02T17:53:06Z</time>
      </trkpt>
      <trkpt lat="41.641391400" lon="2.483603900">
        <ele>420.20</ele>
        <time>2013-03-02T17:53:11Z</time>
      </trkpt>
      <trkpt lat="41.641481000" lon="2.483772000">
        <ele>422.20</ele>
        <time>2013-03-02T17:53:20Z</time>
      </trkpt>
      <trkpt lat="41.641512800" lon="2.483943600">
        <ele>423.60</ele>
        <time>2013-03-02T17:53:27Z</time>
      </trkpt>
      <trkpt lat="41.641469200" lon="2.484152000">
        <ele>425.00</ele>
        <time>2013-03-02T17:53:37Z</time>
      </trkpt>
      <trkpt lat="41.641345200" lon="2.484312700">
        <ele>427.40</ele>
        <time>2013-03-02T17:53:48Z</time>
      </trkpt>
      <trkpt lat="41.641222400" lon="2.484382900">
        <ele>428.90</ele>
        <time>2013-03-02T17:53:58Z</time>
      </trkpt>
      <trkpt lat="41.641140400" lon="2.484545300">
        <ele>431.30</ele>
        <time>2013-03-02T17:54:07Z</time>
      </trkpt>
      <trkpt lat="41.641075300" lon="2.484718200">
        <ele>433.70</ele>
        <time>2013-03-02T17:54:18Z</time>
      </trkpt>
      <trkpt lat="41.641061500" lon="2.484735500">
        <ele>434.20</ele>
        <time>2013-03-02T17:54:19Z</time>
      </trkpt>
      <trkpt lat="41.641016700" lon="2.484723000">
        <ele>434.60</ele>
        <time>2013-03-02T17:54:23Z</time>
      </trkpt>
      <trkpt lat="41.640970300" lon="2.484573300">
        <ele>436.60</ele>
        <time>2013-03-02T17:54:33Z</time>
      </trkpt>
      <trkpt lat="41.640961200" lon="2.484401600">
        <ele>437.50</ele>
        <time>2013-03-02T17:54:44Z</time>
      </trkpt>
      <trkpt lat="41.640956400" lon="2.484261000">
        <ele>438.50</ele>
        <time>2013-03-02T17:54:51Z</time>
      </trkpt>
      <trkpt lat="41.640941400" lon="2.484101200">
        <ele>439.50</ele>
        <time>2013-03-02T17:54:59Z</time>
      </trkpt>
      <trkpt lat="41.640901400" lon="2.483915400">
        <ele>440.40</ele>
        <time>2013-03-02T17:55:08Z</time>
      </trkpt>
      <trkpt lat="41.640882800" lon="2.483810900">
        <ele>441.90</ele>
        <time>2013-03-02T17:55:13Z</time>
      </trkpt>
      <trkpt lat="41.640866000" lon="2.483660700">
        <ele>443.80</ele>
        <time>2013-03-02T17:55:22Z</time>
      </trkpt>
      <trkpt lat="41.640820000" lon="2.483505900">
        <ele>445.20</ele>
        <time>2013-03-02T17:55:31Z</time>
      </trkpt>
      <trkpt lat="41.640792900" lon="2.483439700">
        <ele>445.70</ele>
        <time>2013-03-02T17:55:36Z</time>
      </trkpt>
      <trkpt lat="41.640724700" lon="2.483301700">
        <ele>447.60</ele>
        <time>2013-03-02T17:55:45Z</time>
      </trkpt>
      <trkpt lat="41.640661700" lon="2.483175900">
        <ele>449.10</ele>
        <time>2013-03-02T17:55:53Z</time>
      </trkpt>
      <trkpt lat="41.640580800" lon="2.483051300">
        <ele>451.00</ele>
        <time>2013-03-02T17:56:04Z</time>
      </trkpt>
      <trkpt lat="41.640559900" lon="2.483031300">
        <ele>451.50</ele>
        <time>2013-03-02T17:56:06Z</time>
      </trkpt>
      <trkpt lat="41.640471400" lon="2.482945300">
        <ele>453.40</ele>
        <time>2013-03-02T17:56:14Z</time>
      </trkpt>
      <trkpt lat="41.640389100" lon="2.482834000">
        <ele>454.80</ele>
        <time>2013-03-02T17:56:23Z</time>
      </trkpt>
      <trkpt lat="41.640363100" lon="2.482795000">
        <ele>455.30</ele>
        <time>2013-03-02T17:56:26Z</time>
      </trkpt>
      <trkpt lat="41.640328800" lon="2.482656500">
        <ele>456.30</ele>
        <time>2013-03-02T17:56:35Z</time>
      </trkpt>
      <trkpt lat="41.640302700" lon="2.482574100">
        <ele>457.20</ele>
        <time>2013-03-02T17:56:40Z</time>
      </trkpt>
      <trkpt lat="41.640274400" lon="2.482524900">
        <ele>457.70</ele>
        <time>2013-03-02T17:56:44Z</time>
      </trkpt>
      <trkpt lat="41.640234500" lon="2.482500800">
        <ele>458.20</ele>
        <time>2013-03-02T17:56:47Z</time>
      </trkpt>
      <trkpt lat="41.640178200" lon="2.482512700">
        <ele>459.20</ele>
        <time>2013-03-02T17:56:53Z</time>
      </trkpt>
      <trkpt lat="41.640109000" lon="2.482607900">
        <ele>460.60</ele>
        <time>2013-03-02T17:57:01Z</time>
      </trkpt>
      <trkpt lat="41.640059600" lon="2.482744800">
        <ele>462.00</ele>
        <time>2013-03-02T17:57:10Z</time>
      </trkpt>
      <trkpt lat="41.640020400" lon="2.482789000">
        <ele>462.50</ele>
        <time>2013-03-02T17:57:13Z</time>
      </trkpt>
      <trkpt lat="41.639878800" lon="2.482811900">
        <ele>464.00</ele>
        <time>2013-03-02T17:57:24Z</time>
      </trkpt>
      <trkpt lat="41.639736400" lon="2.482740200">
        <ele>464.50</ele>
        <time>2013-03-02T17:57:34Z</time>
      </trkpt>
      <trkpt lat="41.639702200" lon="2.482732300">
        <ele>464.90</ele>
        <time>2013-03-02T17:57:36Z</time>
      </trkpt>
      <trkpt lat="41.639547500" lon="2.482651800">
        <ele>464.90</ele>
        <time>2013-03-02T17:57:45Z</time>
      </trkpt>
      <trkpt lat="41.639421900" lon="2.482608300">
        <ele>465.90</ele>
        <time>2013-03-02T17:57:54Z</time>
      </trkpt>
      <trkpt lat="41.639384800" lon="2.482605600">
        <ele>466.40</ele>
        <time>2013-03-02T17:57:55Z</time>
      </trkpt>
      <trkpt lat="41.639313900" lon="2.482620900">
        <ele>466.40</ele>
        <time>2013-03-02T17:57:59Z</time>
      </trkpt>
      <trkpt lat="41.639168200" lon="2.482658800">
        <ele>466.90</ele>
        <time>2013-03-02T17:58:09Z</time>
      </trkpt>
      <trkpt lat="41.639040000" lon="2.482691400">
        <ele>467.80</ele>
        <time>2013-03-02T17:58:16Z</time>
      </trkpt>
      <trkpt lat="41.638936600" lon="2.482613600">
        <ele>469.30</ele>
        <time>2013-03-02T17:58:25Z</time>
      </trkpt>
      <trkpt lat="41.638915300" lon="2.482586300">
        <ele>469.70</ele>
        <time>2013-03-02T17:58:28Z</time>
      </trkpt>
      <trkpt lat="41.638860600" lon="2.482425200">
        <ele>470.70</ele>
        <time>2013-03-02T17:58:35Z</time>
      </trkpt>
      <trkpt lat="41.638805400" lon="2.482272900">
        <ele>472.10</ele>
        <time>2013-03-02T17:58:44Z</time>
      </trkpt>
      <trkpt lat="41.638765700" lon="2.482215800">
        <ele>473.10</ele>
        <time>2013-03-02T17:58:47Z</time>
      </trkpt>
      <trkpt lat="41.638699600" lon="2.482189800">
        <ele>474.50</ele>
        <time>2013-03-02T17:58:53Z</time>
      </trkpt>
      <trkpt lat="41.638596600" lon="2.482207600">
        <ele>475.50</ele>
        <time>2013-03-02T17:59:00Z</time>
      </trkpt>
      <trkpt lat="41.638465600" lon="2.482357500">
        <ele>477.90</ele>
        <time>2013-03-02T17:59:10Z</time>
      </trkpt>
      <trkpt lat="41.638351700" lon="2.482494300">
        <ele>479.40</ele>
        <time>2013-03-02T17:59:21Z</time>
      </trkpt>
      <trkpt lat="41.638281800" lon="2.482600700">
        <ele>480.30</ele>
        <time>2013-03-02T17:59:28Z</time>
      </trkpt>
      <trkpt lat="41.638201700" lon="2.482688000">
        <ele>481.80</ele>
        <time>2013-03-02T17:59:35Z</time>
      </trkpt>
      <trkpt lat="41.638099700" lon="2.482779000">
        <ele>483.20</ele>
        <time>2013-03-02T17:59:43Z</time>
      </trkpt>
      <trkpt lat="41.638027800" lon="2.482894200">
        <ele>484.60</ele>
        <time>2013-03-02T17:59:50Z</time>
      </trkpt>
      <trkpt lat="41.637988100" lon="2.483091000">
        <ele>487.00</ele>
        <time>2013-03-02T18:00:02Z</time>
      </trkpt>
      <trkpt lat="41.637979300" lon="2.483241200">
        <ele>489.00</ele>
        <time>2013-03-02T18:00:11Z</time>
      </trkpt>
      <trkpt lat="41.637976100" lon="2.483292300">
        <ele>489.90</ele>
        <time>2013-03-02T18:00:15Z</time>
      </trkpt>
      <trkpt lat="41.637967800" lon="2.483487800">
        <ele>491.90</ele>
        <time>2013-03-02T18:00:25Z</time>
      </trkpt>
      <trkpt lat="41.637982800" lon="2.483625900">
        <ele>492.80</ele>
        <time>2013-03-02T18:00:34Z</time>
      </trkpt>
      <trkpt lat="41.637990100" lon="2.483808200">
        <ele>494.30</ele>
        <time>2013-03-02T18:00:44Z</time>
      </trkpt>
      <trkpt lat="41.637957300" lon="2.483940000">
        <ele>495.20</ele>
        <time>2013-03-02T18:00:53Z</time>
      </trkpt>
      <trkpt lat="41.637906900" lon="2.484074900">
        <ele>495.70</ele>
        <time>2013-03-02T18:01:00Z</time>
      </trkpt>
      <trkpt lat="41.637866500" lon="2.484220000">
        <ele>496.20</ele>
        <time>2013-03-02T18:01:10Z</time>
      </trkpt>
      <trkpt lat="41.637858500" lon="2.484269900">
        <ele>496.70</ele>
        <time>2013-03-02T18:01:12Z</time>
      </trkpt>
      <trkpt lat="41.637855700" lon="2.484320800">
        <ele>497.10</ele>
        <time>2013-03-02T18:01:16Z</time>
      </trkpt>
      <trkpt lat="41.637856700" lon="2.484479300">
        <ele>498.10</ele>
        <time>2013-03-02T18:01:24Z</time>
      </trkpt>
      <trkpt lat="41.637853700" lon="2.484498500">
        <ele>498.10</ele>
        <time>2013-03-02T18:01:26Z</time>
      </trkpt>
      <trkpt lat="41.637812900" lon="2.484681200">
        <ele>499.50</ele>
        <time>2013-03-02T18:01:36Z</time>
      </trkpt>
      <trkpt lat="41.637742800" lon="2.484828200">
        <ele>501.00</ele>
        <time>2013-03-02T18:01:47Z</time>
      </trkpt>
      <trkpt lat="41.637719800" lon="2.485003200">
        <ele>502.40</ele>
        <time>2013-03-02T18:01:56Z</time>
      </trkpt>
      <trkpt lat="41.637730600" lon="2.485196000">
        <ele>502.90</ele>
        <time>2013-03-02T18:02:06Z</time>
      </trkpt>
      <trkpt lat="41.637767500" lon="2.485455400">
        <ele>502.90</ele>
        <time>2013-03-02T18:02:15Z</time>
      </trkpt>
      <trkpt lat="41.637737700" lon="2.485733300">
        <ele>502.00</ele>
        <time>2013-03-02T18:02:22Z</time>
      </trkpt>
      <trkpt lat="41.637719400" lon="2.486048800">
        <ele>501.50</ele>
        <time>2013-03-02T18:02:29Z</time>
      </trkpt>
      <trkpt lat="41.637705200" lon="2.486374400">
        <ele>501.00</ele>
        <time>2013-03-02T18:02:36Z</time>
      </trkpt>
      <trkpt lat="41.637738900" lon="2.486789900">
        <ele>501.00</ele>
        <time>2013-03-02T18:02:46Z</time>
      </trkpt>
      <trkpt lat="41.637694300" lon="2.487066000">
        <ele>501.00</ele>
        <time>2013-03-02T18:02:53Z</time>
      </trkpt>
      <trkpt lat="41.637551700" lon="2.487138200">
        <ele>502.00</ele>
        <time>2013-03-02T18:03:00Z</time>
      </trkpt>
      <trkpt lat="41.637389300" lon="2.487117300">
        <ele>502.90</ele>
        <time>2013-03-02T18:03:07Z</time>
      </trkpt>
      <trkpt lat="41.637193000" lon="2.487117300">
        <ele>503.90</ele>
        <time>2013-03-02T18:03:16Z</time>
      </trkpt>
      <trkpt lat="41.636976900" lon="2.487196500">
        <ele>503.40</ele>
        <time>2013-03-02T18:03:23Z</time>
      </trkpt>
      <trkpt lat="41.636632700" lon="2.487203400">
        <ele>502.90</ele>
        <time>2013-03-02T18:03:33Z</time>
      </trkpt>
      <trkpt lat="41.636429300" lon="2.487137800">
        <ele>503.90</ele>
        <time>2013-03-02T18:03:42Z</time>
      </trkpt>
      <trkpt lat="41.636132200" lon="2.487071300">
        <ele>504.40</ele>
        <time>2013-03-02T18:03:52Z</time>
      </trkpt>
      <trkpt lat="41.635926400" lon="2.487037700">
        <ele>504.80</ele>
        <time>2013-03-02T18:03:59Z</time>
      </trkpt>
      <trkpt lat="41.635735700" lon="2.486945300">
        <ele>505.30</ele>
        <time>2013-03-02T18:04:08Z</time>
      </trkpt>
      <trkpt lat="41.635592100" lon="2.486699400">
        <ele>505.30</ele>
        <time>2013-03-02T18:04:17Z</time>
      </trkpt>
      <trkpt lat="41.635531500" lon="2.486444100">
        <ele>505.80</ele>
        <time>2013-03-02T18:04:24Z</time>
      </trkpt>
      <trkpt lat="41.635405600" lon="2.486157000">
        <ele>506.30</ele>
        <time>2013-03-02T18:04:34Z</time>
      </trkpt>
      <trkpt lat="41.635284500" lon="2.486037200">
        <ele>507.70</ele>
        <time>2013-03-02T18:04:43Z</time>
      </trkpt>
      <trkpt lat="41.635167000" lon="2.485986900">
        <ele>510.10</ele>
        <time>2013-03-02T18:04:50Z</time>
      </trkpt>
      <trkpt lat="41.635036200" lon="2.485875100">
        <ele>512.00</ele>
        <time>2013-03-02T18:05:00Z</time>
      </trkpt>
      <trkpt lat="41.634925500" lon="2.485720600">
        <ele>513.50</ele>
        <time>2013-03-02T18:05:11Z</time>
      </trkpt>
      <trkpt lat="41.634865500" lon="2.485596200">
        <ele>514.90</ele>
        <time>2013-03-02T18:05:18Z</time>
      </trkpt>
      <trkpt lat="41.634789500" lon="2.485417200">
        <ele>516.40</ele>
        <time>2013-03-02T18:05:28Z</time>
      </trkpt>
      <trkpt lat="41.634725600" lon="2.485239700">
        <ele>517.80</ele>
        <time>2013-03-02T18:05:37Z</time>
      </trkpt>
      <trkpt lat="41.634668000" lon="2.485106900">
        <ele>519.20</ele>
        <time>2013-03-02T18:05:46Z</time>
      </trkpt>
      <trkpt lat="41.634646300" lon="2.485059600">
        <ele>519.70</ele>
        <time>2013-03-02T18:05:49Z</time>
      </trkpt>
      <trkpt lat="41.634561200" lon="2.484980500">
        <ele>521.20</ele>
        <time>2013-03-02T18:05:56Z</time>
      </trkpt>
      <trkpt lat="41.634549500" lon="2.484984900">
        <ele>521.20</ele>
        <time>2013-03-02T18:05:58Z</time>
      </trkpt>
      <trkpt lat="41.634504500" lon="2.485119800">
        <ele>523.10</ele>
        <time>2013-03-02T18:06:08Z</time>
      </trkpt>
      <trkpt lat="41.634502300" lon="2.485136500">
        <ele>523.10</ele>
        <time>2013-03-02T18:06:08Z</time>
      </trkpt>
      <trkpt lat="41.634501300" lon="2.485286600">
        <ele>524.50</ele>
        <time>2013-03-02T18:06:17Z</time>
      </trkpt>
      <trkpt lat="41.634505600" lon="2.485336400">
        <ele>525.00</ele>
        <time>2013-03-02T18:06:20Z</time>
      </trkpt>
      <trkpt lat="41.634534900" lon="2.485481700">
        <ele>526.50</ele>
        <time>2013-03-02T18:06:31Z</time>
      </trkpt>
      <trkpt lat="41.634551600" lon="2.485616600">
        <ele>527.90</ele>
        <time>2013-03-02T18:06:38Z</time>
      </trkpt>
      <trkpt lat="41.634547600" lon="2.485692000">
        <ele>528.90</ele>
        <time>2013-03-02T18:06:43Z</time>
      </trkpt>
      <trkpt lat="41.634512600" lon="2.485736300">
        <ele>529.80</ele>
        <time>2013-03-02T18:06:48Z</time>
      </trkpt>
      <trkpt lat="41.634495200" lon="2.485751200">
        <ele>529.80</ele>
        <time>2013-03-02T18:06:50Z</time>
      </trkpt>
      <trkpt lat="41.634422600" lon="2.485714500">
        <ele>531.30</ele>
        <time>2013-03-02T18:06:57Z</time>
      </trkpt>
      <trkpt lat="41.634416500" lon="2.485701100">
        <ele>531.30</ele>
        <time>2013-03-02T18:06:57Z</time>
      </trkpt>
      <trkpt lat="41.634364400" lon="2.485585000">
        <ele>532.70</ele>
        <time>2013-03-02T18:07:06Z</time>
      </trkpt>
      <trkpt lat="41.634328000" lon="2.485536500">
        <ele>533.70</ele>
        <time>2013-03-02T18:07:09Z</time>
      </trkpt>
      <trkpt lat="41.634240900" lon="2.485468200">
        <ele>534.60</ele>
        <time>2013-03-02T18:07:18Z</time>
      </trkpt>
      <trkpt lat="41.634097200" lon="2.485393000">
        <ele>536.10</ele>
        <time>2013-03-02T18:07:28Z</time>
      </trkpt>
      <trkpt lat="41.633994000" lon="2.485327800">
        <ele>537.00</ele>
        <time>2013-03-02T18:07:37Z</time>
      </trkpt>
      <trkpt lat="41.633873900" lon="2.485250000">
        <ele>539.00</ele>
        <time>2013-03-02T18:07:48Z</time>
      </trkpt>
      <trkpt lat="41.633753800" lon="2.485210900">
        <ele>540.40</ele>
        <time>2013-03-02T18:07:56Z</time>
      </trkpt>
      <trkpt lat="41.633640900" lon="2.485257700">
        <ele>542.30</ele>
        <time>2013-03-02T18:08:05Z</time>
      </trkpt>
      <trkpt lat="41.633526500" lon="2.485340600">
        <ele>543.30</ele>
        <time>2013-03-02T18:08:14Z</time>
      </trkpt>
      <trkpt lat="41.633382700" lon="2.485466700">
        <ele>544.70</ele>
        <time>2013-03-02T18:08:26Z</time>
      </trkpt>
      <trkpt lat="41.633268900" lon="2.485547800">
        <ele>545.20</ele>
        <time>2013-03-02T18:08:36Z</time>
      </trkpt>
      <trkpt lat="41.633155000" lon="2.485630600">
        <ele>546.20</ele>
        <time>2013-03-02T18:08:45Z</time>
      </trkpt>
      <trkpt lat="41.633035300" lon="2.485709200">
        <ele>547.10</ele>
        <time>2013-03-02T18:08:54Z</time>
      </trkpt>
      <trkpt lat="41.632897000" lon="2.485749300">
        <ele>548.60</ele>
        <time>2013-03-02T18:09:04Z</time>
      </trkpt>
      <trkpt lat="41.632770600" lon="2.485804700">
        <ele>549.50</ele>
        <time>2013-03-02T18:09:13Z</time>
      </trkpt>
      <trkpt lat="41.632657100" lon="2.485890300">
        <ele>551.50</ele>
        <time>2013-03-02T18:09:23Z</time>
      </trkpt>
      <trkpt lat="41.632606000" lon="2.485919900">
        <ele>551.90</ele>
        <time>2013-03-02T18:09:27Z</time>
      </trkpt>
      <trkpt lat="41.632476500" lon="2.486005200">
        <ele>553.40</ele>
        <time>2013-03-02T18:09:39Z</time>
      </trkpt>
      <trkpt lat="41.632346400" lon="2.486082300">
        <ele>555.30</ele>
        <time>2013-03-02T18:09:49Z</time>
      </trkpt>
      <trkpt lat="41.632334000" lon="2.486089200">
        <ele>555.80</ele>
        <time>2013-03-02T18:09:51Z</time>
      </trkpt>
      <trkpt lat="41.632229100" lon="2.486042400">
        <ele>556.70</ele>
        <time>2013-03-02T18:10:00Z</time>
      </trkpt>
      <trkpt lat="41.632136500" lon="2.485940700">
        <ele>558.70</ele>
        <time>2013-03-02T18:10:09Z</time>
      </trkpt>
      <trkpt lat="41.632081900" lon="2.485818700">
        <ele>560.10</ele>
        <time>2013-03-02T18:10:17Z</time>
      </trkpt>
      <trkpt lat="41.632048000" lon="2.485657400">
        <ele>561.50</ele>
        <time>2013-03-02T18:10:26Z</time>
      </trkpt>
      <trkpt lat="41.632023300" lon="2.485488900">
        <ele>563.50</ele>
        <time>2013-03-02T18:10:36Z</time>
      </trkpt>
      <trkpt lat="41.632017600" lon="2.485454800">
        <ele>563.50</ele>
        <time>2013-03-02T18:10:38Z</time>
      </trkpt>
      <trkpt lat="41.631998700" lon="2.485323100">
        <ele>564.40</ele>
        <time>2013-03-02T18:10:47Z</time>
      </trkpt>
      <trkpt lat="41.631980600" lon="2.485176600">
        <ele>565.40</ele>
        <time>2013-03-02T18:10:57Z</time>
      </trkpt>
      <trkpt lat="41.631952500" lon="2.485002400">
        <ele>566.30</ele>
        <time>2013-03-02T18:11:06Z</time>
      </trkpt>
      <trkpt lat="41.631939600" lon="2.484825100">
        <ele>567.80</ele>
        <time>2013-03-02T18:11:17Z</time>
      </trkpt>
      <trkpt lat="41.631852200" lon="2.484759300">
        <ele>568.80</ele>
        <time>2013-03-02T18:11:25Z</time>
      </trkpt>
      <trkpt lat="41.631747000" lon="2.484841200">
        <ele>570.20</ele>
        <time>2013-03-02T18:11:34Z</time>
      </trkpt>
      <trkpt lat="41.631680100" lon="2.485006700">
        <ele>571.20</ele>
        <time>2013-03-02T18:11:43Z</time>
      </trkpt>
      <trkpt lat="41.631532500" lon="2.485255800">
        <ele>572.10</ele>
        <time>2013-03-02T18:11:58Z</time>
      </trkpt>
      <trkpt lat="41.631428700" lon="2.485386900">
        <ele>572.10</ele>
        <time>2013-03-02T18:12:05Z</time>
      </trkpt>
      <trkpt lat="41.631300500" lon="2.485458100">
        <ele>572.60</ele>
        <time>2013-03-02T18:12:12Z</time>
      </trkpt>
      <trkpt lat="41.631282200" lon="2.485458600">
        <ele>572.60</ele>
        <time>2013-03-02T18:12:14Z</time>
      </trkpt>
      <trkpt lat="41.631121600" lon="2.485349400">
        <ele>572.60</ele>
        <time>2013-03-02T18:12:23Z</time>
      </trkpt>
      <trkpt lat="41.630981900" lon="2.485229500">
        <ele>572.60</ele>
        <time>2013-03-02T18:12:30Z</time>
      </trkpt>
      <trkpt lat="41.630844600" lon="2.485115900">
        <ele>572.60</ele>
        <time>2013-03-02T18:12:38Z</time>
      </trkpt>
      <trkpt lat="41.630719300" lon="2.484976800">
        <ele>573.10</ele>
        <time>2013-03-02T18:12:47Z</time>
      </trkpt>
      <trkpt lat="41.630594200" lon="2.484823500">
        <ele>573.60</ele>
        <time>2013-03-02T18:12:54Z</time>
      </trkpt>
      <trkpt lat="41.630473000" lon="2.484666200">
        <ele>574.00</ele>
        <time>2013-03-02T18:13:03Z</time>
      </trkpt>
      <trkpt lat="41.630410100" lon="2.484518400">
        <ele>575.00</ele>
        <time>2013-03-02T18:13:10Z</time>
      </trkpt>
      <trkpt lat="41.630299900" lon="2.484345700">
        <ele>576.00</ele>
        <time>2013-03-02T18:13:20Z</time>
      </trkpt>
      <trkpt lat="41.630151400" lon="2.484217000">
        <ele>577.40</ele>
        <time>2013-03-02T18:13:29Z</time>
      </trkpt>
      <trkpt lat="41.630008400" lon="2.484139100">
        <ele>578.80</ele>
        <time>2013-03-02T18:13:38Z</time>
      </trkpt>
      <trkpt lat="41.629797500" lon="2.484043500">
        <ele>580.30</ele>
        <time>2013-03-02T18:13:52Z</time>
      </trkpt>
      <trkpt lat="41.629640200" lon="2.484027800">
        <ele>580.30</ele>
        <time>2013-03-02T18:14:00Z</time>
      </trkpt>
      <trkpt lat="41.629444200" lon="2.484027300">
        <ele>580.80</ele>
        <time>2013-03-02T18:14:09Z</time>
      </trkpt>
      <trkpt lat="41.629277400" lon="2.483960700">
        <ele>580.80</ele>
        <time>2013-03-02T18:14:16Z</time>
      </trkpt>
      <trkpt lat="41.629084900" lon="2.483861000">
        <ele>581.20</ele>
        <time>2013-03-02T18:14:23Z</time>
      </trkpt>
      <trkpt lat="41.628938800" lon="2.483770500">
        <ele>582.20</ele>
        <time>2013-03-02T18:14:30Z</time>
      </trkpt>
      <trkpt lat="41.628816700" lon="2.483670700">
        <ele>582.70</ele>
        <time>2013-03-02T18:14:37Z</time>
      </trkpt>
      <trkpt lat="41.628765800" lon="2.483585000">
        <ele>582.70</ele>
        <time>2013-03-02T18:14:40Z</time>
      </trkpt>
      <trkpt lat="41.628741800" lon="2.483538600">
        <ele>583.20</ele>
        <time>2013-03-02T18:14:42Z</time>
      </trkpt>
      <trkpt lat="41.628666800" lon="2.483354900">
        <ele>584.10</ele>
        <time>2013-03-02T18:14:51Z</time>
      </trkpt>
      <trkpt lat="41.628640000" lon="2.483225300">
        <ele>585.10</ele>
        <time>2013-03-02T18:14:56Z</time>
      </trkpt>
      <trkpt lat="41.628606000" lon="2.483110100">
        <ele>586.10</ele>
        <time>2013-03-02T18:15:03Z</time>
      </trkpt>
      <trkpt lat="41.628561600" lon="2.483083000">
        <ele>586.50</ele>
        <time>2013-03-02T18:15:05Z</time>
      </trkpt>
      <trkpt lat="41.628466200" lon="2.483148000">
        <ele>588.00</ele>
        <time>2013-03-02T18:15:12Z</time>
      </trkpt>
      <trkpt lat="41.628402500" lon="2.483268500">
        <ele>588.50</ele>
        <time>2013-03-02T18:15:19Z</time>
      </trkpt>
      <trkpt lat="41.628359100" lon="2.483371600">
        <ele>589.00</ele>
        <time>2013-03-02T18:15:26Z</time>
      </trkpt>
      <trkpt lat="41.628289100" lon="2.483495900">
        <ele>589.40</ele>
        <time>2013-03-02T18:15:33Z</time>
      </trkpt>
      <trkpt lat="41.628153700" lon="2.483602900">
        <ele>590.40</ele>
        <time>2013-03-02T18:15:41Z</time>
      </trkpt>
      <trkpt lat="41.628032400" lon="2.483607200">
        <ele>591.30</ele>
        <time>2013-03-02T18:15:50Z</time>
      </trkpt>
      <trkpt lat="41.627942000" lon="2.483508800">
        <ele>592.30</ele>
        <time>2013-03-02T18:15:57Z</time>
      </trkpt>
      <trkpt lat="41.627856700" lon="2.483401900">
        <ele>593.30</ele>
        <time>2013-03-02T18:16:04Z</time>
      </trkpt>
      <trkpt lat="41.627806500" lon="2.483302800">
        <ele>594.70</ele>
        <time>2013-03-02T18:16:09Z</time>
      </trkpt>
      <trkpt lat="41.627754100" lon="2.483156600">
        <ele>594.70</ele>
        <time>2013-03-02T18:16:18Z</time>
      </trkpt>
      <trkpt lat="41.627731400" lon="2.483053500">
        <ele>595.20</ele>
        <time>2013-03-02T18:16:25Z</time>
      </trkpt>
      <trkpt lat="41.627717900" lon="2.483039200">
        <ele>595.20</ele>
        <time>2013-03-02T18:16:37Z</time>
      </trkpt>
      <trkpt lat="41.627712100" lon="2.483035400">
        <ele>595.20</ele>
        <time>2013-03-02T18:16:51Z</time>
      </trkpt>
      <trkpt lat="41.627686700" lon="2.483004000">
        <ele>595.20</ele>
        <time>2013-03-02T18:16:56Z</time>
      </trkpt>
      <trkpt lat="41.627615500" lon="2.482911400">
        <ele>594.70</ele>
        <time>2013-03-02T18:17:03Z</time>
      </trkpt>
      <trkpt lat="41.627516700" lon="2.482860100">
        <ele>593.30</ele>
        <time>2013-03-02T18:17:07Z</time>
      </trkpt>
      <trkpt lat="41.627321000" lon="2.482908200">
        <ele>590.40</ele>
        <time>2013-03-02T18:17:10Z</time>
      </trkpt>
      <trkpt lat="41.627207400" lon="2.482998100">
        <ele>588.00</ele>
        <time>2013-03-02T18:17:12Z</time>
      </trkpt>
      <trkpt lat="41.627114600" lon="2.483102600">
        <ele>586.10</ele>
        <time>2013-03-02T18:17:14Z</time>
      </trkpt>
      <trkpt lat="41.626910300" lon="2.483171900">
        <ele>582.70</ele>
        <time>2013-03-02T18:17:19Z</time>
      </trkpt>
      <trkpt lat="41.626686600" lon="2.483046900">
        <ele>580.30</ele>
        <time>2013-03-02T18:17:22Z</time>
      </trkpt>
      <trkpt lat="41.626643500" lon="2.483077100">
        <ele>579.80</ele>
        <time>2013-03-02T18:17:24Z</time>
      </trkpt>
      <trkpt lat="41.626600200" lon="2.483179300">
        <ele>579.30</ele>
        <time>2013-03-02T18:17:26Z</time>
      </trkpt>
      <trkpt lat="41.626518900" lon="2.483539800">
        <ele>580.80</ele>
        <time>2013-03-02T18:17:33Z</time>
      </trkpt>
      <trkpt lat="41.626414200" lon="2.483695600">
        <ele>581.70</ele>
        <time>2013-03-02T18:17:40Z</time>
      </trkpt>
      <trkpt lat="41.626354700" lon="2.483733100">
        <ele>581.70</ele>
        <time>2013-03-02T18:17:42Z</time>
      </trkpt>
      <trkpt lat="41.626123900" lon="2.483976100">
        <ele>577.90</ele>
        <time>2013-03-02T18:17:47Z</time>
      </trkpt>
      <trkpt lat="41.626002200" lon="2.484112500">
        <ele>576.00</ele>
        <time>2013-03-02T18:17:50Z</time>
      </trkpt>
      <trkpt lat="41.625652100" lon="2.484377000">
        <ele>571.60</ele>
        <time>2013-03-02T18:17:54Z</time>
      </trkpt>
      <trkpt lat="41.625412500" lon="2.484504800">
        <ele>567.30</ele>
        <time>2013-03-02T18:17:59Z</time>
      </trkpt>
      <trkpt lat="41.625243100" lon="2.484509500">
        <ele>564.90</ele>
        <time>2013-03-02T18:18:02Z</time>
      </trkpt>
      <trkpt lat="41.625255900" lon="2.484370500">
        <ele>564.00</ele>
        <time>2013-03-02T18:18:06Z</time>
      </trkpt>
      <trkpt lat="41.625411700" lon="2.484236600">
        <ele>562.00</ele>
        <time>2013-03-02T18:18:11Z</time>
      </trkpt>
      <trkpt lat="41.625427800" lon="2.484010800">
        <ele>561.50</ele>
        <time>2013-03-02T18:18:16Z</time>
      </trkpt>
      <trkpt lat="41.625351100" lon="2.483939800">
        <ele>561.10</ele>
        <time>2013-03-02T18:18:18Z</time>
      </trkpt>
      <trkpt lat="41.625195000" lon="2.483869900">
        <ele>558.20</ele>
        <time>2013-03-02T18:18:22Z</time>
      </trkpt>
      <trkpt lat="41.625102700" lon="2.483995800">
        <ele>556.30</ele>
        <time>2013-03-02T18:18:25Z</time>
      </trkpt>
      <trkpt lat="41.625030500" lon="2.484263400">
        <ele>554.80</ele>
        <time>2013-03-02T18:18:30Z</time>
      </trkpt>
      <trkpt lat="41.624995100" lon="2.484591600">
        <ele>553.40</ele>
        <time>2013-03-02T18:18:34Z</time>
      </trkpt>
      <trkpt lat="41.624995200" lon="2.484995600">
        <ele>552.90</ele>
        <time>2013-03-02T18:18:39Z</time>
      </trkpt>
      <trkpt lat="41.624911800" lon="2.485402200">
        <ele>551.00</ele>
        <time>2013-03-02T18:18:44Z</time>
      </trkpt>
      <trkpt lat="41.624879200" lon="2.485567900">
        <ele>549.00</ele>
        <time>2013-03-02T18:18:46Z</time>
      </trkpt>
      <trkpt lat="41.624871200" lon="2.485930600">
        <ele>544.70</ele>
        <time>2013-03-02T18:18:51Z</time>
      </trkpt>
      <trkpt lat="41.624866900" lon="2.486100700">
        <ele>542.30</ele>
        <time>2013-03-02T18:18:53Z</time>
      </trkpt>
      <trkpt lat="41.624846600" lon="2.486250400">
        <ele>540.40</ele>
        <time>2013-03-02T18:18:55Z</time>
      </trkpt>
      <trkpt lat="41.624838300" lon="2.486713800">
        <ele>535.10</ele>
        <time>2013-03-02T18:19:00Z</time>
      </trkpt>
      <trkpt lat="41.624839500" lon="2.486799500">
        <ele>534.60</ele>
        <time>2013-03-02T18:19:00Z</time>
      </trkpt>
      <trkpt lat="41.624953700" lon="2.487093800">
        <ele>531.30</ele>
        <time>2013-03-02T18:19:05Z</time>
      </trkpt>
      <trkpt lat="41.625374500" lon="2.487471100">
        <ele>530.30</ele>
        <time>2013-03-02T18:19:12Z</time>
      </trkpt>
      <trkpt lat="41.625501400" lon="2.487609800">
        <ele>529.80</ele>
        <time>2013-03-02T18:19:16Z</time>
      </trkpt>
      <trkpt lat="41.625705800" lon="2.487989600">
        <ele>527.90</ele>
        <time>2013-03-02T18:19:21Z</time>
      </trkpt>
      <trkpt lat="41.625681800" lon="2.488413800">
        <ele>522.60</ele>
        <time>2013-03-02T18:19:28Z</time>
      </trkpt>
      <trkpt lat="41.625550400" lon="2.488551800">
        <ele>521.70</ele>
        <time>2013-03-02T18:19:31Z</time>
      </trkpt>
      <trkpt lat="41.625457000" lon="2.488676800">
        <ele>520.20</ele>
        <time>2013-03-02T18:19:33Z</time>
      </trkpt>
      <trkpt lat="41.625416600" lon="2.488762300">
        <ele>519.20</ele>
        <time>2013-03-02T18:19:33Z</time>
      </trkpt>
      <trkpt lat="41.625305000" lon="2.489076100">
        <ele>516.80</ele>
        <time>2013-03-02T18:19:36Z</time>
      </trkpt>
      <trkpt lat="41.625222200" lon="2.489383900">
        <ele>514.90</ele>
        <time>2013-03-02T18:19:40Z</time>
      </trkpt>
      <trkpt lat="41.625109900" lon="2.489660700">
        <ele>513.50</ele>
        <time>2013-03-02T18:19:42Z</time>
      </trkpt>
      <trkpt lat="41.625006700" lon="2.489853400">
        <ele>512.00</ele>
        <time>2013-03-02T18:19:45Z</time>
      </trkpt>
      <trkpt lat="41.624812800" lon="2.490110100">
        <ele>510.10</ele>
        <time>2013-03-02T18:19:47Z</time>
      </trkpt>
      <trkpt lat="41.624699500" lon="2.490251000">
        <ele>509.60</ele>
        <time>2013-03-02T18:19:49Z</time>
      </trkpt>
      <trkpt lat="41.624485500" lon="2.490652400">
        <ele>509.20</ele>
        <time>2013-03-02T18:19:56Z</time>
      </trkpt>
      <trkpt lat="41.624440500" lon="2.490770400">
        <ele>509.60</ele>
        <time>2013-03-02T18:19:57Z</time>
      </trkpt>
      <trkpt lat="41.624315000" lon="2.491368400">
        <ele>507.20</ele>
        <time>2013-03-02T18:20:04Z</time>
      </trkpt>
      <trkpt lat="41.624309400" lon="2.491748600">
        <ele>506.80</ele>
        <time>2013-03-02T18:20:08Z</time>
      </trkpt>
      <trkpt lat="41.624205800" lon="2.492303200">
        <ele>505.30</ele>
        <time>2013-03-02T18:20:15Z</time>
      </trkpt>
      <trkpt lat="41.624047600" lon="2.492707200">
        <ele>505.30</ele>
        <time>2013-03-02T18:20:22Z</time>
      </trkpt>
      <trkpt lat="41.624036200" lon="2.492888500">
        <ele>505.30</ele>
        <time>2013-03-02T18:20:25Z</time>
      </trkpt>
      <trkpt lat="41.624060900" lon="2.493249500">
        <ele>506.30</ele>
        <time>2013-03-02T18:20:32Z</time>
      </trkpt>
      <trkpt lat="41.624069700" lon="2.493366700">
        <ele>505.80</ele>
        <time>2013-03-02T18:20:34Z</time>
      </trkpt>
      <trkpt lat="41.624145900" lon="2.493852200">
        <ele>505.30</ele>
        <time>2013-03-02T18:20:41Z</time>
      </trkpt>
      <trkpt lat="41.624209600" lon="2.494158000">
        <ele>504.80</ele>
        <time>2013-03-02T18:20:48Z</time>
      </trkpt>
      <trkpt lat="41.624229800" lon="2.494206000">
        <ele>505.30</ele>
        <time>2013-03-02T18:20:48Z</time>
      </trkpt>
      <trkpt lat="41.624265300" lon="2.494512100">
        <ele>505.30</ele>
        <time>2013-03-02T18:20:55Z</time>
      </trkpt>
      <trkpt lat="41.624191200" lon="2.494866700">
        <ele>506.30</ele>
        <time>2013-03-02T18:21:02Z</time>
      </trkpt>
      <trkpt lat="41.624239900" lon="2.495178200">
        <ele>506.80</ele>
        <time>2013-03-02T18:21:09Z</time>
      </trkpt>
      <trkpt lat="41.624259900" lon="2.495519100">
        <ele>508.20</ele>
        <time>2013-03-02T18:21:17Z</time>
      </trkpt>
      <trkpt lat="41.624226100" lon="2.495908400">
        <ele>509.20</ele>
        <time>2013-03-02T18:21:26Z</time>
      </trkpt>
      <trkpt lat="41.624102700" lon="2.496196600">
        <ele>509.60</ele>
        <time>2013-03-02T18:21:35Z</time>
      </trkpt>
      <trkpt lat="41.623943900" lon="2.496354000">
        <ele>511.60</ele>
        <time>2013-03-02T18:21:42Z</time>
      </trkpt>
      <trkpt lat="41.623733600" lon="2.496420000">
        <ele>513.00</ele>
        <time>2013-03-02T18:21:49Z</time>
      </trkpt>
      <trkpt lat="41.623550600" lon="2.496364700">
        <ele>512.50</ele>
        <time>2013-03-02T18:21:56Z</time>
      </trkpt>
      <trkpt lat="41.623419100" lon="2.496205000">
        <ele>512.50</ele>
        <time>2013-03-02T18:22:01Z</time>
      </trkpt>
      <trkpt lat="41.623394500" lon="2.496158400">
        <ele>512.00</ele>
        <time>2013-03-02T18:22:01Z</time>
      </trkpt>
      <trkpt lat="41.623267300" lon="2.495890900">
        <ele>511.60</ele>
        <time>2013-03-02T18:22:06Z</time>
      </trkpt>
      <trkpt lat="41.623099000" lon="2.495627900">
        <ele>509.60</ele>
        <time>2013-03-02T18:22:11Z</time>
      </trkpt>
      <trkpt lat="41.623124300" lon="2.495490100">
        <ele>509.20</ele>
        <time>2013-03-02T18:22:13Z</time>
      </trkpt>
      <trkpt lat="41.623194500" lon="2.495145600">
        <ele>508.70</ele>
        <time>2013-03-02T18:22:18Z</time>
      </trkpt>
      <trkpt lat="41.623174500" lon="2.494925600">
        <ele>508.20</ele>
        <time>2013-03-02T18:22:22Z</time>
      </trkpt>
      <trkpt lat="41.623064200" lon="2.494510800">
        <ele>508.70</ele>
        <time>2013-03-02T18:22:29Z</time>
      </trkpt>
      <trkpt lat="41.622845300" lon="2.494158100">
        <ele>508.20</ele>
        <time>2013-03-02T18:22:36Z</time>
      </trkpt>
      <trkpt lat="41.622579400" lon="2.493964200">
        <ele>508.70</ele>
        <time>2013-03-02T18:22:43Z</time>
      </trkpt>
      <trkpt lat="41.622345100" lon="2.493957200">
        <ele>507.70</ele>
        <time>2013-03-02T18:22:50Z</time>
      </trkpt>
      <trkpt lat="41.622193300" lon="2.493870600">
        <ele>508.20</ele>
        <time>2013-03-02T18:22:57Z</time>
      </trkpt>
      <trkpt lat="41.622177100" lon="2.493849800">
        <ele>508.20</ele>
        <time>2013-03-02T18:22:57Z</time>
      </trkpt>
      <trkpt lat="41.622061400" lon="2.493625200">
        <ele>508.70</ele>
        <time>2013-03-02T18:23:05Z</time>
      </trkpt>
      <trkpt lat="41.621971800" lon="2.493559400">
        <ele>508.70</ele>
        <time>2013-03-02T18:23:09Z</time>
      </trkpt>
      <trkpt lat="41.621825800" lon="2.493616800">
        <ele>509.60</ele>
        <time>2013-03-02T18:23:16Z</time>
      </trkpt>
      <trkpt lat="41.621688200" lon="2.493752100">
        <ele>510.10</ele>
        <time>2013-03-02T18:23:21Z</time>
      </trkpt>
      <trkpt lat="41.621488800" lon="2.493900300">
        <ele>511.10</ele>
        <time>2013-03-02T18:23:28Z</time>
      </trkpt>
      <trkpt lat="41.621410600" lon="2.494056700">
        <ele>511.10</ele>
        <time>2013-03-02T18:23:33Z</time>
      </trkpt>
      <trkpt lat="41.621394900" lon="2.494282500">
        <ele>510.60</ele>
        <time>2013-03-02T18:23:37Z</time>
      </trkpt>
      <trkpt lat="41.621417900" lon="2.494541400">
        <ele>511.10</ele>
        <time>2013-03-02T18:23:42Z</time>
      </trkpt>
      <trkpt lat="41.621371800" lon="2.494742900">
        <ele>511.10</ele>
        <time>2013-03-02T18:23:46Z</time>
      </trkpt>
      <trkpt lat="41.621340100" lon="2.494778900">
        <ele>510.60</ele>
        <time>2013-03-02T18:23:47Z</time>
      </trkpt>
      <trkpt lat="41.621210500" lon="2.495001100">
        <ele>510.60</ele>
        <time>2013-03-02T18:23:51Z</time>
      </trkpt>
      <trkpt lat="41.621058200" lon="2.495242000">
        <ele>509.20</ele>
        <time>2013-03-02T18:23:56Z</time>
      </trkpt>
      <trkpt lat="41.620898700" lon="2.495181500">
        <ele>508.20</ele>
        <time>2013-03-02T18:23:59Z</time>
      </trkpt>
      <trkpt lat="41.620802100" lon="2.495098000">
        <ele>507.70</ele>
        <time>2013-03-02T18:24:01Z</time>
      </trkpt>
      <trkpt lat="41.620491200" lon="2.494798300">
        <ele>503.90</ele>
        <time>2013-03-02T18:24:08Z</time>
      </trkpt>
      <trkpt lat="41.620290700" lon="2.494862100">
        <ele>501.50</ele>
        <time>2013-03-02T18:24:12Z</time>
      </trkpt>
      <trkpt lat="41.620138400" lon="2.495068000">
        <ele>500.00</ele>
        <time>2013-03-02T18:24:15Z</time>
      </trkpt>
      <trkpt lat="41.619936900" lon="2.495253700">
        <ele>498.10</ele>
        <time>2013-03-02T18:24:17Z</time>
      </trkpt>
      <trkpt lat="41.619751900" lon="2.495339700">
        <ele>496.20</ele>
        <time>2013-03-02T18:24:20Z</time>
      </trkpt>
      <trkpt lat="41.619688900" lon="2.495307600">
        <ele>496.20</ele>
        <time>2013-03-02T18:24:22Z</time>
      </trkpt>
      <trkpt lat="41.619322000" lon="2.495077700">
        <ele>494.70</ele>
        <time>2013-03-02T18:24:27Z</time>
      </trkpt>
      <trkpt lat="41.618993400" lon="2.495063600">
        <ele>493.30</ele>
        <time>2013-03-02T18:24:33Z</time>
      </trkpt>
      <trkpt lat="41.618888400" lon="2.495155300">
        <ele>492.80</ele>
        <time>2013-03-02T18:24:34Z</time>
      </trkpt>
      <trkpt lat="41.618597400" lon="2.495581600">
        <ele>490.90</ele>
        <time>2013-03-02T18:24:41Z</time>
      </trkpt>
      <trkpt lat="41.618500900" lon="2.495703000">
        <ele>490.90</ele>
        <time>2013-03-02T18:24:45Z</time>
      </trkpt>
      <trkpt lat="41.618466500" lon="2.495992200">
        <ele>486.60</ele>
        <time>2013-03-02T18:24:52Z</time>
      </trkpt>
      <trkpt lat="41.618439000" lon="2.496226500">
        <ele>485.10</ele>
        <time>2013-03-02T18:24:57Z</time>
      </trkpt>
      <trkpt lat="41.618387600" lon="2.496515400">
        <ele>483.20</ele>
        <time>2013-03-02T18:25:02Z</time>
      </trkpt>
      <trkpt lat="41.618271700" lon="2.496689500">
        <ele>482.70</ele>
        <time>2013-03-02T18:25:07Z</time>
      </trkpt>
      <trkpt lat="41.618281500" lon="2.496927500">
        <ele>481.30</ele>
        <time>2013-03-02T18:25:13Z</time>
      </trkpt>
      <trkpt lat="41.618292300" lon="2.496957800">
        <ele>480.80</ele>
        <time>2013-03-02T18:25:13Z</time>
      </trkpt>
      <trkpt lat="41.618302300" lon="2.497023500">
        <ele>479.80</ele>
        <time>2013-03-02T18:25:16Z</time>
      </trkpt>
      <trkpt lat="41.618306800" lon="2.497147700">
        <ele>479.40</ele>
        <time>2013-03-02T18:25:18Z</time>
      </trkpt>
      <trkpt lat="41.618331800" lon="2.497388800">
        <ele>477.40</ele>
        <time>2013-03-02T18:25:25Z</time>
      </trkpt>
      <trkpt lat="41.618321600" lon="2.497504600">
        <ele>476.00</ele>
        <time>2013-03-02T18:25:28Z</time>
      </trkpt>
      <trkpt lat="41.618295800" lon="2.497659200">
        <ele>474.10</ele>
        <time>2013-03-02T18:25:35Z</time>
      </trkpt>
      <trkpt lat="41.618300000" lon="2.497849400">
        <ele>472.10</ele>
        <time>2013-03-02T18:25:39Z</time>
      </trkpt>
      <trkpt lat="41.618297400" lon="2.498026400">
        <ele>469.70</ele>
        <time>2013-03-02T18:25:44Z</time>
      </trkpt>
      <trkpt lat="41.618289100" lon="2.498094500">
        <ele>469.30</ele>
        <time>2013-03-02T18:25:46Z</time>
      </trkpt>
      <trkpt lat="41.618279800" lon="2.498180400">
        <ele>467.80</ele>
        <time>2013-03-02T18:25:49Z</time>
      </trkpt>
      <trkpt lat="41.618208000" lon="2.498288100">
        <ele>466.40</ele>
        <time>2013-03-02T18:25:56Z</time>
      </trkpt>
      <trkpt lat="41.618136800" lon="2.498332200">
        <ele>465.40</ele>
        <time>2013-03-02T18:25:58Z</time>
      </trkpt>
      <trkpt lat="41.618004100" lon="2.498454100">
        <ele>465.90</ele>
        <time>2013-03-02T18:26:05Z</time>
      </trkpt>
      <trkpt lat="41.617916200" lon="2.498600500">
        <ele>465.90</ele>
        <time>2013-03-02T18:26:10Z</time>
      </trkpt>
      <trkpt lat="41.617872200" lon="2.498669700">
        <ele>465.90</ele>
        <time>2013-03-02T18:26:12Z</time>
      </trkpt>
      <trkpt lat="41.617590800" lon="2.498916000">
        <ele>462.00</ele>
        <time>2013-03-02T18:26:19Z</time>
      </trkpt>
      <trkpt lat="41.617488400" lon="2.498960300">
        <ele>460.60</ele>
        <time>2013-03-02T18:26:21Z</time>
      </trkpt>
      <trkpt lat="41.617395600" lon="2.499007400">
        <ele>458.70</ele>
        <time>2013-03-02T18:26:22Z</time>
      </trkpt>
      <trkpt lat="41.617272800" lon="2.499041900">
        <ele>457.20</ele>
        <time>2013-03-02T18:26:26Z</time>
      </trkpt>
      <trkpt lat="41.617173900" lon="2.498984300">
        <ele>455.80</ele>
        <time>2013-03-02T18:26:29Z</time>
      </trkpt>
      <trkpt lat="41.617144100" lon="2.498877100">
        <ele>454.80</ele>
        <time>2013-03-02T18:26:31Z</time>
      </trkpt>
      <trkpt lat="41.617095900" lon="2.498763600">
        <ele>453.90</ele>
        <time>2013-03-02T18:26:33Z</time>
      </trkpt>
      <trkpt lat="41.616983400" lon="2.498498000">
        <ele>452.40</ele>
        <time>2013-03-02T18:26:38Z</time>
      </trkpt>
      <trkpt lat="41.616876300" lon="2.498264000">
        <ele>448.60</ele>
        <time>2013-03-02T18:26:43Z</time>
      </trkpt>
      <trkpt lat="41.616760000" lon="2.498016100">
        <ele>444.80</ele>
        <time>2013-03-02T18:26:48Z</time>
      </trkpt>
      <trkpt lat="41.616640600" lon="2.497884600">
        <ele>441.90</ele>
        <time>2013-03-02T18:26:52Z</time>
      </trkpt>
      <trkpt lat="41.616482300" lon="2.497833900">
        <ele>439.00</ele>
        <time>2013-03-02T18:26:57Z</time>
      </trkpt>
      <trkpt lat="41.616464700" lon="2.497630800">
        <ele>438.00</ele>
        <time>2013-03-02T18:27:01Z</time>
      </trkpt>
      <trkpt lat="41.616449900" lon="2.497516200">
        <ele>437.10</ele>
        <time>2013-03-02T18:27:04Z</time>
      </trkpt>
      <trkpt lat="41.616333100" lon="2.497463600">
        <ele>436.10</ele>
        <time>2013-03-02T18:27:08Z</time>
      </trkpt>
      <trkpt lat="41.616264400" lon="2.497641200">
        <ele>435.60</ele>
        <time>2013-03-02T18:27:11Z</time>
      </trkpt>
      <trkpt lat="41.616195100" lon="2.497794600">
        <ele>434.60</ele>
        <time>2013-03-02T18:27:15Z</time>
      </trkpt>
      <trkpt lat="41.615964800" lon="2.498011900">
        <ele>432.20</ele>
        <time>2013-03-02T18:27:20Z</time>
      </trkpt>
      <trkpt lat="41.615874500" lon="2.498131900">
        <ele>431.30</ele>
        <time>2013-03-02T18:27:22Z</time>
      </trkpt>
      <trkpt lat="41.615801300" lon="2.498256300">
        <ele>429.90</ele>
        <time>2013-03-02T18:27:23Z</time>
      </trkpt>
      <trkpt lat="41.615529800" lon="2.498435200">
        <ele>427.00</ele>
        <time>2013-03-02T18:27:29Z</time>
      </trkpt>
      <trkpt lat="41.615329900" lon="2.498436800">
        <ele>425.00</ele>
        <time>2013-03-02T18:27:32Z</time>
      </trkpt>
      <trkpt lat="41.615146000" lon="2.498289100">
        <ele>422.60</ele>
        <time>2013-03-02T18:27:36Z</time>
      </trkpt>
      <trkpt lat="41.614975100" lon="2.497934800">
        <ele>419.30</ele>
        <time>2013-03-02T18:27:41Z</time>
      </trkpt>
      <trkpt lat="41.614847200" lon="2.497619300">
        <ele>415.90</ele>
        <time>2013-03-02T18:27:44Z</time>
      </trkpt>
      <trkpt lat="41.614793700" lon="2.497464200">
        <ele>414.50</ele>
        <time>2013-03-02T18:27:46Z</time>
      </trkpt>
      <trkpt lat="41.614666700" lon="2.497145700">
        <ele>412.50</ele>
        <time>2013-03-02T18:27:51Z</time>
      </trkpt>
      <trkpt lat="41.614425300" lon="2.496933300">
        <ele>411.60</ele>
        <time>2013-03-02T18:27:56Z</time>
      </trkpt>
      <trkpt lat="41.614337800" lon="2.496843600">
        <ele>412.10</ele>
        <time>2013-03-02T18:28:00Z</time>
      </trkpt>
      <trkpt lat="41.614249000" lon="2.496765500">
        <ele>412.50</ele>
        <time>2013-03-02T18:28:02Z</time>
      </trkpt>
      <trkpt lat="41.614156000" lon="2.496827500">
        <ele>413.00</ele>
        <time>2013-03-02T18:28:07Z</time>
      </trkpt>
      <trkpt lat="41.614147500" lon="2.496895000">
        <ele>413.50</ele>
        <time>2013-03-02T18:28:09Z</time>
      </trkpt>
      <trkpt lat="41.614150600" lon="2.497223000">
        <ele>415.00</ele>
        <time>2013-03-02T18:28:17Z</time>
      </trkpt>
      <trkpt lat="41.613989900" lon="2.497390300">
        <ele>414.00</ele>
        <time>2013-03-02T18:28:21Z</time>
      </trkpt>
      <trkpt lat="41.613790800" lon="2.497436600">
        <ele>414.50</ele>
        <time>2013-03-02T18:28:28Z</time>
      </trkpt>
      <trkpt lat="41.613603600" lon="2.497314300">
        <ele>414.50</ele>
        <time>2013-03-02T18:28:33Z</time>
      </trkpt>
      <trkpt lat="41.613498300" lon="2.497233400">
        <ele>413.00</ele>
        <time>2013-03-02T18:28:36Z</time>
      </trkpt>
      <trkpt lat="41.613428700" lon="2.497220300">
        <ele>412.10</ele>
        <time>2013-03-02T18:28:38Z</time>
      </trkpt>
      <trkpt lat="41.613389100" lon="2.497310700">
        <ele>410.60</ele>
        <time>2013-03-02T18:28:42Z</time>
      </trkpt>
      <trkpt lat="41.613415200" lon="2.497322600">
        <ele>410.60</ele>
        <time>2013-03-02T18:28:43Z</time>
      </trkpt>
      <trkpt lat="41.613635200" lon="2.497521000">
        <ele>408.70</ele>
        <time>2013-03-02T18:28:49Z</time>
      </trkpt>
      <trkpt lat="41.613889700" lon="2.497806300">
        <ele>405.80</ele>
        <time>2013-03-02T18:28:56Z</time>
      </trkpt>
      <trkpt lat="41.614097600" lon="2.497709700">
        <ele>403.40</ele>
        <time>2013-03-02T18:28:59Z</time>
      </trkpt>
      <trkpt lat="41.614230000" lon="2.497530500">
        <ele>400.00</ele>
        <time>2013-03-02T18:29:04Z</time>
      </trkpt>
      <trkpt lat="41.614311900" lon="2.497561100">
        <ele>397.60</ele>
        <time>2013-03-02T18:29:08Z</time>
      </trkpt>
      <trkpt lat="41.614272300" lon="2.497624000">
        <ele>396.20</ele>
        <time>2013-03-02T18:29:11Z</time>
      </trkpt>
      <trkpt lat="41.614229000" lon="2.497693300">
        <ele>395.20</ele>
        <time>2013-03-02T18:29:13Z</time>
      </trkpt>
      <trkpt lat="41.614192500" lon="2.497763600">
        <ele>394.30</ele>
        <time>2013-03-02T18:29:15Z</time>
      </trkpt>
      <trkpt lat="41.614136400" lon="2.497924500">
        <ele>391.90</ele>
        <time>2013-03-02T18:29:18Z</time>
      </trkpt>
      <trkpt lat="41.614040400" lon="2.498083800">
        <ele>388.50</ele>
        <time>2013-03-02T18:29:22Z</time>
      </trkpt>
      <trkpt lat="41.613897100" lon="2.498260300">
        <ele>385.60</ele>
        <time>2013-03-02T18:29:25Z</time>
      </trkpt>
      <trkpt lat="41.613741800" lon="2.498541400">
        <ele>380.80</ele>
        <time>2013-03-02T18:29:30Z</time>
      </trkpt>
      <trkpt lat="41.613602200" lon="2.498628300">
        <ele>377.90</ele>
        <time>2013-03-02T18:29:34Z</time>
      </trkpt>
      <trkpt lat="41.613376300" lon="2.498545900">
        <ele>374.10</ele>
        <time>2013-03-02T18:29:39Z</time>
      </trkpt>
      <trkpt lat="41.613269000" lon="2.498553400">
        <ele>370.70</ele>
        <time>2013-03-02T18:29:41Z</time>
      </trkpt>
      <trkpt lat="41.613182500" lon="2.498586000">
        <ele>368.80</ele>
        <time>2013-03-02T18:29:43Z</time>
      </trkpt>
      <trkpt lat="41.613184600" lon="2.498798000">
        <ele>364.50</ele>
        <time>2013-03-02T18:29:48Z</time>
      </trkpt>
      <trkpt lat="41.613243300" lon="2.498885400">
        <ele>363.00</ele>
        <time>2013-03-02T18:29:50Z</time>
      </trkpt>
      <trkpt lat="41.613318100" lon="2.499105400">
        <ele>359.20</ele>
        <time>2013-03-02T18:29:55Z</time>
      </trkpt>
      <trkpt lat="41.613349500" lon="2.499266800">
        <ele>357.30</ele>
        <time>2013-03-02T18:30:00Z</time>
      </trkpt>
      <trkpt lat="41.613448700" lon="2.499429400">
        <ele>353.40</ele>
        <time>2013-03-02T18:30:05Z</time>
      </trkpt>
      <trkpt lat="41.613563400" lon="2.499482400">
        <ele>351.50</ele>
        <time>2013-03-02T18:30:12Z</time>
      </trkpt>
      <trkpt lat="41.613630200" lon="2.499556700">
        <ele>348.60</ele>
        <time>2013-03-02T18:30:18Z</time>
      </trkpt>
      <trkpt lat="41.613655300" lon="2.499690100">
        <ele>346.20</ele>
        <time>2013-03-02T18:30:24Z</time>
      </trkpt>
      <trkpt lat="41.613701700" lon="2.499751000">
        <ele>345.70</ele>
        <time>2013-03-02T18:30:28Z</time>
      </trkpt>
      <trkpt lat="41.613804300" lon="2.499944900">
        <ele>341.40</ele>
        <time>2013-03-02T18:30:33Z</time>
      </trkpt>
      <trkpt lat="41.613879700" lon="2.500170600">
        <ele>339.00</ele>
        <time>2013-03-02T18:30:37Z</time>
      </trkpt>
      <trkpt lat="41.614012000" lon="2.500418100">
        <ele>334.70</ele>
        <time>2013-03-02T18:30:40Z</time>
      </trkpt>
      <trkpt lat="41.614095600" lon="2.500558300">
        <ele>332.30</ele>
        <time>2013-03-02T18:30:42Z</time>
      </trkpt>
      <trkpt lat="41.614232800" lon="2.500892200">
        <ele>327.00</ele>
        <time>2013-03-02T18:30:47Z</time>
      </trkpt>
      <trkpt lat="41.614385400" lon="2.501195200">
        <ele>324.10</ele>
        <time>2013-03-02T18:30:51Z</time>
      </trkpt>
      <trkpt lat="41.614453500" lon="2.501242500">
        <ele>323.10</ele>
        <time>2013-03-02T18:30:52Z</time>
      </trkpt>
      <trkpt lat="41.614600700" lon="2.501337200">
        <ele>322.20</ele>
        <time>2013-03-02T18:30:54Z</time>
      </trkpt>
      <trkpt lat="41.614819000" lon="2.501411200">
        <ele>320.70</ele>
        <time>2013-03-02T18:30:56Z</time>
      </trkpt>
      <trkpt lat="41.614940000" lon="2.501484900">
        <ele>319.80</ele>
        <time>2013-03-02T18:30:59Z</time>
      </trkpt>
      <trkpt lat="41.614928600" lon="2.501589300">
        <ele>319.80</ele>
        <time>2013-03-02T18:31:01Z</time>
      </trkpt>
      <trkpt lat="41.614939600" lon="2.501967400">
        <ele>319.80</ele>
        <time>2013-03-02T18:31:08Z</time>
      </trkpt>
      <trkpt lat="41.615057300" lon="2.502377000">
        <ele>317.40</ele>
        <time>2013-03-02T18:31:13Z</time>
      </trkpt>
      <trkpt lat="41.615116800" lon="2.502666600">
        <ele>316.90</ele>
        <time>2013-03-02T18:31:17Z</time>
      </trkpt>
      <trkpt lat="41.615251800" lon="2.502982000">
        <ele>316.40</ele>
        <time>2013-03-02T18:31:20Z</time>
      </trkpt>
      <trkpt lat="41.615362000" lon="2.503266500">
        <ele>316.40</ele>
        <time>2013-03-02T18:31:24Z</time>
      </trkpt>
      <trkpt lat="41.615410700" lon="2.503704400">
        <ele>314.50</ele>
        <time>2013-03-02T18:31:31Z</time>
      </trkpt>
      <trkpt lat="41.615383800" lon="2.504060200">
        <ele>309.70</ele>
        <time>2013-03-02T18:31:36Z</time>
      </trkpt>
      <trkpt lat="41.615358900" lon="2.504218900">
        <ele>306.30</ele>
        <time>2013-03-02T18:31:38Z</time>
      </trkpt>
      <trkpt lat="41.615347400" lon="2.504252900">
        <ele>305.80</ele>
        <time>2013-03-02T18:31:39Z</time>
      </trkpt>
      <trkpt lat="41.615245000" lon="2.504252500">
        <ele>303.40</ele>
        <time>2013-03-02T18:31:45Z</time>
      </trkpt>
      <trkpt lat="41.615230800" lon="2.504202500">
        <ele>303.00</ele>
        <time>2013-03-02T18:31:46Z</time>
      </trkpt>
      <trkpt lat="41.615138900" lon="2.503921500">
        <ele>298.10</ele>
        <time>2013-03-02T18:31:50Z</time>
      </trkpt>
      <trkpt lat="41.614952500" lon="2.503651600">
        <ele>293.80</ele>
        <time>2013-03-02T18:31:55Z</time>
      </trkpt>
      <trkpt lat="41.614876200" lon="2.503470400">
        <ele>290.90</ele>
        <time>2013-03-02T18:31:59Z</time>
      </trkpt>
      <trkpt lat="41.614799800" lon="2.503213800">
        <ele>287.10</ele>
        <time>2013-03-02T18:32:02Z</time>
      </trkpt>
      <trkpt lat="41.614747500" lon="2.503122700">
        <ele>286.10</ele>
        <time>2013-03-02T18:32:04Z</time>
      </trkpt>
      <trkpt lat="41.614602800" lon="2.502919300">
        <ele>281.30</ele>
        <time>2013-03-02T18:32:09Z</time>
      </trkpt>
      <trkpt lat="41.614575900" lon="2.502902600">
        <ele>280.40</ele>
        <time>2013-03-02T18:32:11Z</time>
      </trkpt>
      <trkpt lat="41.614512300" lon="2.502931600">
        <ele>279.40</ele>
        <time>2013-03-02T18:32:12Z</time>
      </trkpt>
      <trkpt lat="41.614541600" lon="2.503048700">
        <ele>278.40</ele>
        <time>2013-03-02T18:32:16Z</time>
      </trkpt>
      <trkpt lat="41.614638700" lon="2.503224300">
        <ele>276.50</ele>
        <time>2013-03-02T18:32:19Z</time>
      </trkpt>
      <trkpt lat="41.614590500" lon="2.503449200">
        <ele>274.10</ele>
        <time>2013-03-02T18:32:23Z</time>
      </trkpt>
      <trkpt lat="41.614554800" lon="2.503540200">
        <ele>273.10</ele>
        <time>2013-03-02T18:32:25Z</time>
      </trkpt>
      <trkpt lat="41.614517800" lon="2.503632800">
        <ele>271.70</ele>
        <time>2013-03-02T18:32:28Z</time>
      </trkpt>
      <trkpt lat="41.614519200" lon="2.503826400">
        <ele>269.30</ele>
        <time>2013-03-02T18:32:32Z</time>
      </trkpt>
      <trkpt lat="41.614489400" lon="2.504068100">
        <ele>266.40</ele>
        <time>2013-03-02T18:32:37Z</time>
      </trkpt>
      <trkpt lat="41.614447000" lon="2.504222300">
        <ele>265.50</ele>
        <time>2013-03-02T18:32:42Z</time>
      </trkpt>
      <trkpt lat="41.614416700" lon="2.504317200">
        <ele>264.00</ele>
        <time>2013-03-02T18:32:44Z</time>
      </trkpt>
      <trkpt lat="41.614457800" lon="2.504498100">
        <ele>260.60</ele>
        <time>2013-03-02T18:32:49Z</time>
      </trkpt>
      <trkpt lat="41.614538100" lon="2.504783300">
        <ele>257.80</ele>
        <time>2013-03-02T18:32:54Z</time>
      </trkpt>
      <trkpt lat="41.614534200" lon="2.504935300">
        <ele>257.30</ele>
        <time>2013-03-02T18:32:56Z</time>
      </trkpt>
      <trkpt lat="41.614539300" lon="2.505035800">
        <ele>256.30</ele>
        <time>2013-03-02T18:32:58Z</time>
      </trkpt>
      <trkpt lat="41.614529900" lon="2.505144800">
        <ele>254.90</ele>
        <time>2013-03-02T18:33:01Z</time>
      </trkpt>
      <trkpt lat="41.614600500" lon="2.505497500">
        <ele>250.60</ele>
        <time>2013-03-02T18:33:05Z</time>
      </trkpt>
      <trkpt lat="41.614627600" lon="2.505565400">
        <ele>249.60</ele>
        <time>2013-03-02T18:33:06Z</time>
      </trkpt>
      <trkpt lat="41.614669800" lon="2.505695200">
        <ele>248.60</ele>
        <time>2013-03-02T18:33:08Z</time>
      </trkpt>
      <trkpt lat="41.614778200" lon="2.505882000">
        <ele>245.80</ele>
        <time>2013-03-02T18:33:12Z</time>
      </trkpt>
      <trkpt lat="41.614861600" lon="2.506097000">
        <ele>244.80</ele>
        <time>2013-03-02T18:33:19Z</time>
      </trkpt>
      <trkpt lat="41.614882700" lon="2.506290500">
        <ele>243.80</ele>
        <time>2013-03-02T18:33:24Z</time>
      </trkpt>
      <trkpt lat="41.614893000" lon="2.506515500">
        <ele>241.40</ele>
        <time>2013-03-02T18:33:27Z</time>
      </trkpt>
      <trkpt lat="41.614960400" lon="2.506824700">
        <ele>238.10</ele>
        <time>2013-03-02T18:33:33Z</time>
      </trkpt>
      <trkpt lat="41.615010700" lon="2.506948000">
        <ele>236.60</ele>
        <time>2013-03-02T18:33:34Z</time>
      </trkpt>
      <trkpt lat="41.615073800" lon="2.507144100">
        <ele>234.20</ele>
        <time>2013-03-02T18:33:38Z</time>
      </trkpt>
      <trkpt lat="41.615124100" lon="2.507278600">
        <ele>233.30</ele>
        <time>2013-03-02T18:33:40Z</time>
      </trkpt>
      <trkpt lat="41.615150100" lon="2.507484100">
        <ele>231.80</ele>
        <time>2013-03-02T18:33:43Z</time>
      </trkpt>
      <trkpt lat="41.615178000" lon="2.507591100">
        <ele>230.90</ele>
        <time>2013-03-02T18:33:47Z</time>
      </trkpt>
      <trkpt lat="41.615417200" lon="2.507837000">
        <ele>226.10</ele>
        <time>2013-03-02T18:33:53Z</time>
      </trkpt>
      <trkpt lat="41.615429100" lon="2.507970500">
        <ele>225.10</ele>
        <time>2013-03-02T18:33:55Z</time>
      </trkpt>
      <trkpt lat="41.615401300" lon="2.508256600">
        <ele>224.60</ele>
        <time>2013-03-02T18:33:59Z</time>
      </trkpt>
      <trkpt lat="41.615443100" lon="2.508596800">
        <ele>224.10</ele>
        <time>2013-03-02T18:34:06Z</time>
      </trkpt>
      <trkpt lat="41.615483000" lon="2.508690800">
        <ele>223.60</ele>
        <time>2013-03-02T18:34:07Z</time>
      </trkpt>
      <trkpt lat="41.615479900" lon="2.509120500">
        <ele>222.70</ele>
        <time>2013-03-02T18:34:16Z</time>
      </trkpt>
      <trkpt lat="41.615468600" lon="2.509375400">
        <ele>222.20</ele>
        <time>2013-03-02T18:34:21Z</time>
      </trkpt>
      <trkpt lat="41.615579700" lon="2.509612800">
        <ele>221.20</ele>
        <time>2013-03-02T18:34:25Z</time>
      </trkpt>
      <trkpt lat="41.615691300" lon="2.509860400">
        <ele>220.30</ele>
        <time>2013-03-02T18:34:30Z</time>
      </trkpt>
      <trkpt lat="41.615738000" lon="2.510125400">
        <ele>219.30</ele>
        <time>2013-03-02T18:34:35Z</time>
      </trkpt>
      <trkpt lat="41.615808900" lon="2.510308100">
        <ele>218.80</ele>
        <time>2013-03-02T18:34:39Z</time>
      </trkpt>
      <trkpt lat="41.615924900" lon="2.510615500">
        <ele>217.90</ele>
        <time>2013-03-02T18:34:46Z</time>
      </trkpt>
      <trkpt lat="41.616039500" lon="2.510948400">
        <ele>216.90</ele>
        <time>2013-03-02T18:34:53Z</time>
      </trkpt>
      <trkpt lat="41.616137800" lon="2.511166700">
        <ele>215.90</ele>
        <time>2013-03-02T18:34:58Z</time>
      </trkpt>
      <trkpt lat="41.616280300" lon="2.511504200">
        <ele>215.50</ele>
        <time>2013-03-02T18:35:05Z</time>
      </trkpt>
      <trkpt lat="41.616429900" lon="2.511782800">
        <ele>215.00</ele>
        <time>2013-03-02T18:35:12Z</time>
      </trkpt>
      <trkpt lat="41.616491200" lon="2.511881300">
        <ele>214.00</ele>
        <time>2013-03-02T18:35:14Z</time>
      </trkpt>
      <trkpt lat="41.616624000" lon="2.512115900">
        <ele>213.60</ele>
        <time>2013-03-02T18:35:17Z</time>
      </trkpt>
      <trkpt lat="41.616720100" lon="2.512304400">
        <ele>213.10</ele>
        <time>2013-03-02T18:35:21Z</time>
      </trkpt>
      <trkpt lat="41.616843000" lon="2.512959600">
        <ele>211.10</ele>
        <time>2013-03-02T18:35:29Z</time>
      </trkpt>
      <trkpt lat="41.616848600" lon="2.513047300">
        <ele>211.10</ele>
        <time>2013-03-02T18:35:29Z</time>
      </trkpt>
      <trkpt lat="41.616862600" lon="2.513823100">
        <ele>208.30</ele>
        <time>2013-03-02T18:35:38Z</time>
      </trkpt>
      <trkpt lat="41.616856100" lon="2.514562000">
        <ele>206.30</ele>
        <time>2013-03-02T18:35:47Z</time>
      </trkpt>
      <trkpt lat="41.616853900" lon="2.515146000">
        <ele>204.40</ele>
        <time>2013-03-02T18:35:52Z</time>
      </trkpt>
      <trkpt lat="41.616825200" lon="2.515845000">
        <ele>202.00</ele>
        <time>2013-03-02T18:35:59Z</time>
      </trkpt>
      <trkpt lat="41.616791200" lon="2.516508700">
        <ele>199.60</ele>
        <time>2013-03-02T18:36:06Z</time>
      </trkpt>
      <trkpt lat="41.616768300" lon="2.516832500">
        <ele>198.20</ele>
        <time>2013-03-02T18:36:11Z</time>
      </trkpt>
      <trkpt lat="41.616751100" lon="2.516995300">
        <ele>198.20</ele>
        <time>2013-03-02T18:36:13Z</time>
      </trkpt>
      <trkpt lat="41.616741600" lon="2.517163400">
        <ele>197.70</ele>
        <time>2013-03-02T18:36:15Z</time>
      </trkpt>
      <trkpt lat="41.616721000" lon="2.517326400">
        <ele>197.20</ele>
        <time>2013-03-02T18:36:16Z</time>
      </trkpt>
      <trkpt lat="41.616700900" lon="2.517598000">
        <ele>195.80</ele>
        <time>2013-03-02T18:36:20Z</time>
      </trkpt>
      <trkpt lat="41.616690800" lon="2.517779300">
        <ele>195.30</ele>
        <time>2013-03-02T18:36:22Z</time>
      </trkpt>
      <trkpt lat="41.616666100" lon="2.518413400">
        <ele>193.80</ele>
        <time>2013-03-02T18:36:29Z</time>
      </trkpt>
      <trkpt lat="41.616651800" lon="2.518493700">
        <ele>193.40</ele>
        <time>2013-03-02T18:36:30Z</time>
      </trkpt>
      <trkpt lat="41.616570200" lon="2.518756000">
        <ele>192.90</ele>
        <time>2013-03-02T18:36:34Z</time>
      </trkpt>
      <trkpt lat="41.616498000" lon="2.518958700">
        <ele>192.90</ele>
        <time>2013-03-02T18:36:39Z</time>
      </trkpt>
      <trkpt lat="41.616413700" lon="2.519397500">
        <ele>191.90</ele>
        <time>2013-03-02T18:36:46Z</time>
      </trkpt>
      <trkpt lat="41.616307000" lon="2.519818400">
        <ele>190.50</ele>
        <time>2013-03-02T18:36:53Z</time>
      </trkpt>
      <trkpt lat="41.616133300" lon="2.520333800">
        <ele>189.00</ele>
        <time>2013-03-02T18:37:00Z</time>
      </trkpt>
      <trkpt lat="41.616104800" lon="2.520411900">
        <ele>189.00</ele>
        <time>2013-03-02T18:37:00Z</time>
      </trkpt>
      <trkpt lat="41.615925600" lon="2.521138000">
        <ele>187.10</ele>
        <time>2013-03-02T18:37:10Z</time>
      </trkpt>
      <trkpt lat="41.615848500" lon="2.521701700">
        <ele>186.10</ele>
        <time>2013-03-02T18:37:17Z</time>
      </trkpt>
      <trkpt lat="41.615793400" lon="2.522140300">
        <ele>184.70</ele>
        <time>2013-03-02T18:37:23Z</time>
      </trkpt>
      <trkpt lat="41.615710800" lon="2.522815200">
        <ele>182.30</ele>
        <time>2013-03-02T18:37:30Z</time>
      </trkpt>
      <trkpt lat="41.615694400" lon="2.522920400">
        <ele>181.80</ele>
        <time>2013-03-02T18:37:31Z</time>
      </trkpt>
      <trkpt lat="41.615596900" lon="2.523847800">
        <ele>178.90</ele>
        <time>2013-03-02T18:37:40Z</time>
      </trkpt>
      <trkpt lat="41.615551000" lon="2.524283100">
        <ele>177.00</ele>
        <time>2013-03-02T18:37:43Z</time>
      </trkpt>
      <trkpt lat="41.615493900" lon="2.524988000">
        <ele>174.10</ele>
        <time>2013-03-02T18:37:49Z</time>
      </trkpt>
      <trkpt lat="41.615475500" lon="2.525698500">
        <ele>171.70</ele>
        <time>2013-03-02T18:37:56Z</time>
      </trkpt>
      <trkpt lat="41.615533100" lon="2.526488200">
        <ele>169.80</ele>
        <time>2013-03-02T18:38:03Z</time>
      </trkpt>
      <trkpt lat="41.615532500" lon="2.527051500">
        <ele>166.90</ele>
        <time>2013-03-02T18:38:08Z</time>
      </trkpt>
      <trkpt lat="41.615518200" lon="2.527167900">
        <ele>166.90</ele>
        <time>2013-03-02T18:38:08Z</time>
      </trkpt>
      <trkpt lat="41.615386800" lon="2.527850000">
        <ele>164.00</ele>
        <time>2013-03-02T18:38:15Z</time>
      </trkpt>
      <trkpt lat="41.615209100" lon="2.528736800">
        <ele>161.60</ele>
        <time>2013-03-02T18:38:22Z</time>
      </trkpt>
      <trkpt lat="41.615190900" lon="2.528843800">
        <ele>161.60</ele>
        <time>2013-03-02T18:38:24Z</time>
      </trkpt>
      <trkpt lat="41.615141700" lon="2.529571400">
        <ele>159.20</ele>
        <time>2013-03-02T18:38:30Z</time>
      </trkpt>
      <trkpt lat="41.615145900" lon="2.530294800">
        <ele>157.30</ele>
        <time>2013-03-02T18:38:37Z</time>
      </trkpt>
      <trkpt lat="41.615151000" lon="2.530508000">
        <ele>156.40</ele>
        <time>2013-03-02T18:38:39Z</time>
      </trkpt>
      <trkpt lat="41.615140400" lon="2.530708600">
        <ele>155.40</ele>
        <time>2013-03-02T18:38:41Z</time>
      </trkpt>
      <trkpt lat="41.615094600" lon="2.531214600">
        <ele>153.50</ele>
        <time>2013-03-02T18:38:48Z</time>
      </trkpt>
      <trkpt lat="41.615091700" lon="2.531365600">
        <ele>153.00</ele>
        <time>2013-03-02T18:38:50Z</time>
      </trkpt>
      <trkpt lat="41.615170800" lon="2.531669800">
        <ele>151.50</ele>
        <time>2013-03-02T18:38:55Z</time>
      </trkpt>
      <trkpt lat="41.615196000" lon="2.531805800">
        <ele>150.60</ele>
        <time>2013-03-02T18:38:57Z</time>
      </trkpt>
      <trkpt lat="41.615192800" lon="2.531950100">
        <ele>150.10</ele>
        <time>2013-03-02T18:38:58Z</time>
      </trkpt>
      <trkpt lat="41.615176500" lon="2.532092800">
        <ele>149.60</ele>
        <time>2013-03-02T18:39:00Z</time>
      </trkpt>
      <trkpt lat="41.615117000" lon="2.532301000">
        <ele>149.10</ele>
        <time>2013-03-02T18:39:04Z</time>
      </trkpt>
      <trkpt lat="41.615053100" lon="2.532592100">
        <ele>148.70</ele>
        <time>2013-03-02T18:39:07Z</time>
      </trkpt>
      <trkpt lat="41.614904700" lon="2.533117700">
        <ele>147.20</ele>
        <time>2013-03-02T18:39:14Z</time>
      </trkpt>
      <trkpt lat="41.614707000" lon="2.533795500">
        <ele>144.80</ele>
        <time>2013-03-02T18:39:23Z</time>
      </trkpt>
      <trkpt lat="41.614515700" lon="2.534422000">
        <ele>143.40</ele>
        <time>2013-03-02T18:39:30Z</time>
      </trkpt>
      <trkpt lat="41.614287000" lon="2.535061000">
        <ele>141.00</ele>
        <time>2013-03-02T18:39:37Z</time>
      </trkpt>
      <trkpt lat="41.614144000" lon="2.535585500">
        <ele>139.50</ele>
        <time>2013-03-02T18:39:42Z</time>
      </trkpt>
      <trkpt lat="41.613871000" lon="2.536268900">
        <ele>137.10</ele>
        <time>2013-03-02T18:39:52Z</time>
      </trkpt>
      <trkpt lat="41.613761700" lon="2.536524000">
        <ele>136.20</ele>
        <time>2013-03-02T18:39:56Z</time>
      </trkpt>
      <trkpt lat="41.613735000" lon="2.536574100">
        <ele>135.70</ele>
        <time>2013-03-02T18:39:59Z</time>
      </trkpt>
      <trkpt lat="41.613655500" lon="2.536558400">
        <ele>135.20</ele>
        <time>2013-03-02T18:40:03Z</time>
      </trkpt>
      <trkpt lat="41.613569100" lon="2.536665100">
        <ele>135.70</ele>
        <time>2013-03-02T18:40:08Z</time>
      </trkpt>
      <trkpt lat="41.613526600" lon="2.536840900">
        <ele>134.70</ele>
        <time>2013-03-02T18:40:12Z</time>
      </trkpt>
      <trkpt lat="41.613386400" lon="2.537096700">
        <ele>134.20</ele>
        <time>2013-03-02T18:40:17Z</time>
      </trkpt>
      <trkpt lat="41.613006300" lon="2.537548700">
        <ele>132.30</ele>
        <time>2013-03-02T18:40:25Z</time>
      </trkpt>
      <trkpt lat="41.612638400" lon="2.537965300">
        <ele>131.40</ele>
        <time>2013-03-02T18:40:34Z</time>
      </trkpt>
      <trkpt lat="41.612404600" lon="2.538232800">
        <ele>129.90</ele>
        <time>2013-03-02T18:40:39Z</time>
      </trkpt>
      <trkpt lat="41.612328800" lon="2.538330800">
        <ele>129.40</ele>
        <time>2013-03-02T18:40:41Z</time>
      </trkpt>
      <trkpt lat="41.612201500" lon="2.538556800">
        <ele>128.50</ele>
        <time>2013-03-02T18:40:46Z</time>
      </trkpt>
      <trkpt lat="41.612041200" lon="2.538882800">
        <ele>127.50</ele>
        <time>2013-03-02T18:40:53Z</time>
      </trkpt>
      <trkpt lat="41.611929100" lon="2.539048600">
        <ele>126.60</ele>
        <time>2013-03-02T18:40:57Z</time>
      </trkpt>
      <trkpt lat="41.611835900" lon="2.539005600">
        <ele>126.60</ele>
        <time>2013-03-02T18:41:02Z</time>
      </trkpt>
      <trkpt lat="41.611754500" lon="2.538761500">
        <ele>128.00</ele>
        <time>2013-03-02T18:41:09Z</time>
      </trkpt>
      <trkpt lat="41.611657600" lon="2.538717100">
        <ele>128.90</ele>
        <time>2013-03-02T18:41:16Z</time>
      </trkpt>
      <trkpt lat="41.611608400" lon="2.538700000">
        <ele>128.50</ele>
        <time>2013-03-02T18:41:18Z</time>
      </trkpt>
      <trkpt lat="41.611364900" lon="2.538739200">
        <ele>127.00</ele>
        <time>2013-03-02T18:41:25Z</time>
      </trkpt>
      <trkpt lat="41.611111600" lon="2.538797600">
        <ele>126.10</ele>
        <time>2013-03-02T18:41:30Z</time>
      </trkpt>
      <trkpt lat="41.610738300" lon="2.538973700">
        <ele>124.60</ele>
        <time>2013-03-02T18:41:37Z</time>
      </trkpt>
      <trkpt lat="41.610411300" lon="2.539163100">
        <ele>122.70</ele>
        <time>2013-03-02T18:41:44Z</time>
      </trkpt>
      <trkpt lat="41.610154900" lon="2.539316300">
        <ele>121.70</ele>
        <time>2013-03-02T18:41:49Z</time>
      </trkpt>
      <trkpt lat="41.609750300" lon="2.539551700">
        <ele>119.80</ele>
        <time>2013-03-02T18:41:56Z</time>
      </trkpt>
      <trkpt lat="41.609502500" lon="2.539702500">
        <ele>118.40</ele>
        <time>2013-03-02T18:42:03Z</time>
      </trkpt>
      <trkpt lat="41.609331200" lon="2.539800000">
        <ele>117.90</ele>
        <time>2013-03-02T18:42:08Z</time>
      </trkpt>
      <trkpt lat="41.609152200" lon="2.540052800">
        <ele>116.00</ele>
        <time>2013-03-02T18:42:15Z</time>
      </trkpt>
      <trkpt lat="41.609133600" lon="2.540151900">
        <ele>116.00</ele>
        <time>2013-03-02T18:42:19Z</time>
      </trkpt>
      <trkpt lat="41.609019800" lon="2.540247300">
        <ele>115.50</ele>
        <time>2013-03-02T18:42:24Z</time>
      </trkpt>
      <trkpt lat="41.608878200" lon="2.540428800">
        <ele>115.50</ele>
        <time>2013-03-02T18:42:31Z</time>
      </trkpt>
      <trkpt lat="41.608861700" lon="2.540443900">
        <ele>115.50</ele>
        <time>2013-03-02T18:42:33Z</time>
      </trkpt>
      <trkpt lat="41.608794300" lon="2.540334600">
        <ele>114.50</ele>
        <time>2013-03-02T18:42:38Z</time>
      </trkpt>
      <trkpt lat="41.608713700" lon="2.540281400">
        <ele>114.10</ele>
        <time>2013-03-02T18:42:41Z</time>
      </trkpt>
      <trkpt lat="41.608491500" lon="2.540304500">
        <ele>113.60</ele>
        <time>2013-03-02T18:42:48Z</time>
      </trkpt>
      <trkpt lat="41.608227800" lon="2.540362500">
        <ele>112.60</ele>
        <time>2013-03-02T18:42:54Z</time>
      </trkpt>
      <trkpt lat="41.607902200" lon="2.540407500">
        <ele>112.10</ele>
        <time>2013-03-02T18:43:02Z</time>
      </trkpt>
      <trkpt lat="41.607672900" lon="2.540456200">
        <ele>111.70</ele>
        <time>2013-03-02T18:43:09Z</time>
      </trkpt>
      <trkpt lat="41.607535000" lon="2.540656400">
        <ele>111.20</ele>
        <time>2013-03-02T18:43:14Z</time>
      </trkpt>
      <trkpt lat="41.607480500" lon="2.540738900">
        <ele>111.70</ele>
        <time>2013-03-02T18:43:18Z</time>
      </trkpt>
      <trkpt lat="41.607232800" lon="2.540755000">
        <ele>110.70</ele>
        <time>2013-03-02T18:43:25Z</time>
      </trkpt>
      <trkpt lat="41.606911700" lon="2.540676200">
        <ele>109.20</ele>
        <time>2013-03-02T18:43:32Z</time>
      </trkpt>
      <trkpt lat="41.606829500" lon="2.540643500">
        <ele>109.20</ele>
        <time>2013-03-02T18:43:35Z</time>
      </trkpt>
      <trkpt lat="41.606751000" lon="2.540594200">
        <ele>109.20</ele>
        <time>2013-03-02T18:43:37Z</time>
      </trkpt>
      <trkpt lat="41.606632700" lon="2.540517200">
        <ele>108.80</ele>
        <time>2013-03-02T18:43:39Z</time>
      </trkpt>
      <trkpt lat="41.606244700" lon="2.540326000">
        <ele>107.80</ele>
        <time>2013-03-02T18:43:49Z</time>
      </trkpt>
      <trkpt lat="41.606110700" lon="2.540304000">
        <ele>106.80</ele>
        <time>2013-03-02T18:43:51Z</time>
      </trkpt>
      <trkpt lat="41.605929700" lon="2.540325500">
        <ele>106.80</ele>
        <time>2013-03-02T18:43:56Z</time>
      </trkpt>
      <trkpt lat="41.605919000" lon="2.540394000">
        <ele>107.30</ele>
        <time>2013-03-02T18:44:00Z</time>
      </trkpt>
      <trkpt lat="41.605941400" lon="2.540521500">
        <ele>107.30</ele>
        <time>2013-03-02T18:44:07Z</time>
      </trkpt>
      <trkpt lat="41.605868800" lon="2.540512400">
        <ele>106.80</ele>
        <time>2013-03-02T18:44:14Z</time>
      </trkpt>
      <trkpt lat="41.605846400" lon="2.540527200">
        <ele>106.80</ele>
        <time>2013-03-02T18:44:22Z</time>
      </trkpt>
      <trkpt lat="41.605860300" lon="2.540556000">
        <ele>106.80</ele>
        <time>2013-03-02T18:44:29Z</time>
      </trkpt>
      <trkpt lat="41.605863800" lon="2.540550100">
        <ele>106.80</ele>
        <time>2013-03-02T18:44:38Z</time>
      </trkpt>
      <trkpt lat="41.605842200" lon="2.540559900">
        <ele>106.80</ele>
        <time>2013-03-02T18:44:47Z</time>
      </trkpt>
      <trkpt lat="41.605802700" lon="2.540510800">
        <ele>106.80</ele>
        <time>2013-03-02T18:45:02Z</time>
      </trkpt>
      <trkpt lat="41.605812900" lon="2.540454800">
        <ele>106.80</ele>
        <time>2013-03-02T18:45:20Z</time>
      </trkpt>
      <trkpt lat="41.605823400" lon="2.540428000">
        <ele>106.80</ele>
        <time>2013-03-02T18:45:32Z</time>
      </trkpt>
      <trkpt lat="41.605836400" lon="2.540423700">
        <ele>107.30</ele>
        <time>2013-03-02T18:45:41Z</time>
      </trkpt>
      <trkpt lat="41.605856000" lon="2.540436400">
        <ele>107.30</ele>
        <time>2013-03-02T18:45:48Z</time>
      </trkpt>
      <trkpt lat="41.605856800" lon="2.540432800">
        <ele>107.30</ele>
        <time>2013-03-02T18:45:51Z</time>
      </trkpt>
      <trkpt lat="41.605884400" lon="2.540443800">
        <ele>107.30</ele>
        <time>2013-03-02T18:45:53Z</time>
      </trkpt>
      <trkpt lat="41.605904000" lon="2.540464800">
        <ele>107.30</ele>
        <time>2013-03-02T18:45:55Z</time>
      </trkpt>
      <trkpt lat="41.605969200" lon="2.540498000">
        <ele>107.80</ele>
        <time>2013-03-02T18:46:00Z</time>
      </trkpt>
      <trkpt lat="41.606171300" lon="2.540623400">
        <ele>108.80</ele>
        <time>2013-03-02T18:46:09Z</time>
      </trkpt>
      <trkpt lat="41.606352300" lon="2.540672200">
        <ele>109.20</ele>
        <time>2013-03-02T18:46:17Z</time>
      </trkpt>
      <trkpt lat="41.606497300" lon="2.540777600">
        <ele>110.20</ele>
        <time>2013-03-02T18:46:24Z</time>
      </trkpt>
      <trkpt lat="41.606516400" lon="2.540831900">
        <ele>110.20</ele>
        <time>2013-03-02T18:46:26Z</time>
      </trkpt>
      <trkpt lat="41.606592700" lon="2.540951000">
        <ele>110.70</ele>
        <time>2013-03-02T18:46:33Z</time>
      </trkpt>
      <trkpt lat="41.606640200" lon="2.541077100">
        <ele>111.70</ele>
        <time>2013-03-02T18:46:38Z</time>
      </trkpt>
      <trkpt lat="41.606676600" lon="2.541250800">
        <ele>112.60</ele>
        <time>2013-03-02T18:46:45Z</time>
      </trkpt>
      <trkpt lat="41.606751200" lon="2.541510400">
        <ele>114.50</ele>
        <time>2013-03-02T18:46:54Z</time>
      </trkpt>
      <trkpt lat="41.606848200" lon="2.541796300">
        <ele>116.50</ele>
        <time>2013-03-02T18:47:04Z</time>
      </trkpt>
      <trkpt lat="41.606858500" lon="2.541824400">
        <ele>116.50</ele>
        <time>2013-03-02T18:47:04Z</time>
      </trkpt>
      <trkpt lat="41.606933300" lon="2.542041500">
        <ele>117.90</ele>
        <time>2013-03-02T18:47:13Z</time>
      </trkpt>
      <trkpt lat="41.606968300" lon="2.542113000">
        <ele>118.40</ele>
        <time>2013-03-02T18:47:15Z</time>
      </trkpt>
      <trkpt lat="41.607049400" lon="2.542303700">
        <ele>119.80</ele>
        <time>2013-03-02T18:47:25Z</time>
      </trkpt>
      <trkpt lat="41.607061400" lon="2.542329600">
        <ele>119.80</ele>
        <time>2013-03-02T18:47:29Z</time>
      </trkpt>
      <trkpt lat="41.607085400" lon="2.542330500">
        <ele>120.30</ele>
        <time>2013-03-02T18:47:37Z</time>
      </trkpt>
      <trkpt lat="41.607101500" lon="2.542334400">
        <ele>120.80</ele>
        <time>2013-03-02T18:47:50Z</time>
      </trkpt>
      <trkpt lat="41.607085000" lon="2.542368000">
        <ele>120.80</ele>
        <time>2013-03-02T18:48:09Z</time>
      </trkpt>
      <trkpt lat="41.607076500" lon="2.542365700">
        <ele>120.80</ele>
        <time>2013-03-02T18:48:23Z</time>
      </trkpt>
    </trkseg>
  </trk>
</gpx>
